<?xml version="1.0" encoding="UTF-8" standalone="no" ?>
<gpx xmlns="http://www.topografix.com/GPX/1/1" xmlns:xsi="http://www.w3.org/2001/XMLSchema-instance" xsi:schemaLocation="http://www.topografix.com/GPX/1/1 http://www.topografix.com/GPX/1/1/gpx.xsd" version="1.1" creator="VisuGPX - https://www.visugpx.com">
  <metadata>
    <name>Roc Challenge 2013</name>
    <desc><![CDATA[1700m et 53 km]]></desc>
  </metadata>
  <trk>
    <name><![CDATA[Roc Challenge]]></name>
    <trkseg>
      <trkpt lat="43.44503" lon="6.63636">
        <ele>19</ele>
        <time>2013-10-10T07:00:37Z</time>
      </trkpt>
      <trkpt lat="43.44494" lon="6.63641">
        <ele>19.200000762939</ele>
        <time>2013-10-10T07:01:07Z</time>
      </trkpt>
      <trkpt lat="43.44472" lon="6.63651">
        <ele>19.799999237061</ele>
        <time>2013-10-10T07:01:15Z</time>
      </trkpt>
      <trkpt lat="43.44455" lon="6.63655">
        <ele>20.60000038147</ele>
        <time>2013-10-10T07:01:20Z</time>
      </trkpt>
      <trkpt lat="43.44435" lon="6.63625">
        <ele>23</ele>
        <time>2013-10-10T07:01:27Z</time>
      </trkpt>
      <trkpt lat="43.4443" lon="6.63617">
        <ele>23.60000038147</ele>
        <time>2013-10-10T07:01:29Z</time>
      </trkpt>
      <trkpt lat="43.44424" lon="6.63612">
        <ele>24</ele>
        <time>2013-10-10T07:01:31Z</time>
      </trkpt>
      <trkpt lat="43.44389" lon="6.63594">
        <ele>25.39999961853</ele>
        <time>2013-10-10T07:01:41Z</time>
      </trkpt>
      <trkpt lat="43.44337" lon="6.63566">
        <ele>27.200000762939</ele>
        <time>2013-10-10T07:01:56Z</time>
      </trkpt>
      <trkpt lat="43.44309" lon="6.6356">
        <ele>29.60000038147</ele>
        <time>2013-10-10T07:02:05Z</time>
      </trkpt>
      <trkpt lat="43.44285" lon="6.6354">
        <ele>32.400001525879</ele>
        <time>2013-10-10T07:02:16Z</time>
      </trkpt>
      <trkpt lat="43.44264" lon="6.63494">
        <ele>34.400001525879</ele>
        <time>2013-10-10T07:02:29Z</time>
      </trkpt>
      <trkpt lat="43.44246" lon="6.63451">
        <ele>34.599998474121</ele>
        <time>2013-10-10T07:02:42Z</time>
      </trkpt>
      <trkpt lat="43.44224" lon="6.63398">
        <ele>36.200000762939</ele>
        <time>2013-10-10T07:02:58Z</time>
      </trkpt>
      <trkpt lat="43.44193" lon="6.63369">
        <ele>36.799999237061</ele>
        <time>2013-10-10T07:03:11Z</time>
      </trkpt>
      <trkpt lat="43.44166" lon="6.63368">
        <ele>37.400001525879</ele>
        <time>2013-10-10T07:03:21Z</time>
      </trkpt>
      <trkpt lat="43.44131" lon="6.63388">
        <ele>40.400001525879</ele>
        <time>2013-10-10T07:03:34Z</time>
      </trkpt>
      <trkpt lat="43.44089" lon="6.63421">
        <ele>42.599998474121</ele>
        <time>2013-10-10T07:03:50Z</time>
      </trkpt>
      <trkpt lat="43.44051" lon="6.63441">
        <ele>42.799999237061</ele>
        <time>2013-10-10T07:04:04Z</time>
      </trkpt>
      <trkpt lat="43.44017" lon="6.63431">
        <ele>44</ele>
        <time>2013-10-10T07:04:19Z</time>
      </trkpt>
      <trkpt lat="43.44001" lon="6.63414">
        <ele>45</ele>
        <time>2013-10-10T07:04:34Z</time>
      </trkpt>
      <trkpt lat="43.43991" lon="6.63404">
        <ele>46.799999237061</ele>
        <time>2013-10-10T07:06:06Z</time>
      </trkpt>
      <trkpt lat="43.43984" lon="6.63401">
        <ele>47.799999237061</ele>
        <time>2013-10-10T07:08:12Z</time>
      </trkpt>
      <trkpt lat="43.43971" lon="6.6338">
        <ele>50.799999237061</ele>
        <time>2013-10-10T07:10:18Z</time>
      </trkpt>
      <trkpt lat="43.43955" lon="6.6337">
        <ele>53.799999237061</ele>
        <time>2013-10-10T07:10:36Z</time>
      </trkpt>
      <trkpt lat="43.43942" lon="6.63357">
        <ele>56.400001525879</ele>
        <time>2013-10-10T07:11:06Z</time>
      </trkpt>
      <trkpt lat="43.43934" lon="6.63347">
        <ele>58.400001525879</ele>
        <time>2013-10-10T07:11:20Z</time>
      </trkpt>
      <trkpt lat="43.43923" lon="6.63331">
        <ele>61.200000762939</ele>
        <time>2013-10-10T07:11:35Z</time>
      </trkpt>
      <trkpt lat="43.43908" lon="6.63326">
        <ele>64</ele>
        <time>2013-10-10T07:11:56Z</time>
      </trkpt>
      <trkpt lat="43.43898" lon="6.63335">
        <ele>65.199996948242</ele>
        <time>2013-10-10T07:12:10Z</time>
      </trkpt>
      <trkpt lat="43.43888" lon="6.63343">
        <ele>66.400001525879</ele>
        <time>2013-10-10T07:12:25Z</time>
      </trkpt>
      <trkpt lat="43.43885" lon="6.63344">
        <ele>66.800003051758</ele>
        <time>2013-10-10T07:12:29Z</time>
      </trkpt>
      <trkpt lat="43.43877" lon="6.63348">
        <ele>68</ele>
        <time>2013-10-10T07:12:38Z</time>
      </trkpt>
      <trkpt lat="43.43867" lon="6.63353">
        <ele>69.400001525879</ele>
        <time>2013-10-10T07:12:52Z</time>
      </trkpt>
      <trkpt lat="43.43859" lon="6.63352">
        <ele>70.800003051758</ele>
        <time>2013-10-10T07:12:56Z</time>
      </trkpt>
      <trkpt lat="43.43838" lon="6.63366">
        <ele>73.800003051758</ele>
        <time>2013-10-10T07:13:18Z</time>
      </trkpt>
      <trkpt lat="43.43836" lon="6.63367">
        <ele>74</ele>
        <time>2013-10-10T07:13:19Z</time>
      </trkpt>
      <trkpt lat="43.43823" lon="6.63374">
        <ele>77</ele>
        <time>2013-10-10T07:13:30Z</time>
      </trkpt>
      <trkpt lat="43.43813" lon="6.63372">
        <ele>80</ele>
        <time>2013-10-10T07:13:43Z</time>
      </trkpt>
      <trkpt lat="43.43802" lon="6.63373">
        <ele>83.400001525879</ele>
        <time>2013-10-10T07:13:52Z</time>
      </trkpt>
      <trkpt lat="43.43798" lon="6.63376">
        <ele>84.199996948242</ele>
        <time>2013-10-10T07:13:54Z</time>
      </trkpt>
      <trkpt lat="43.43796" lon="6.63392">
        <ele>84</ele>
        <time>2013-10-10T07:14:06Z</time>
      </trkpt>
      <trkpt lat="43.43796" lon="6.63393">
        <ele>83.800003051758</ele>
        <time>2013-10-10T07:14:07Z</time>
      </trkpt>
      <trkpt lat="43.43798" lon="6.63427">
        <ele>81.199996948242</ele>
        <time>2013-10-10T07:14:24Z</time>
      </trkpt>
      <trkpt lat="43.43796" lon="6.63461">
        <ele>80.400001525879</ele>
        <time>2013-10-10T07:14:35Z</time>
      </trkpt>
      <trkpt lat="43.4379" lon="6.63491">
        <ele>80.199996948242</ele>
        <time>2013-10-10T07:14:51Z</time>
      </trkpt>
      <trkpt lat="43.43772" lon="6.63524">
        <ele>82</ele>
        <time>2013-10-10T07:15:03Z</time>
      </trkpt>
      <trkpt lat="43.43752" lon="6.63533">
        <ele>85.599998474121</ele>
        <time>2013-10-10T07:15:12Z</time>
      </trkpt>
      <trkpt lat="43.43742" lon="6.63536">
        <ele>87.400001525879</ele>
        <time>2013-10-10T07:15:15Z</time>
      </trkpt>
      <trkpt lat="43.43733" lon="6.63565">
        <ele>85</ele>
        <time>2013-10-10T07:15:23Z</time>
      </trkpt>
      <trkpt lat="43.43726" lon="6.63584">
        <ele>83.400001525879</ele>
        <time>2013-10-10T07:15:30Z</time>
      </trkpt>
      <trkpt lat="43.43706" lon="6.63615">
        <ele>82</ele>
        <time>2013-10-10T07:15:40Z</time>
      </trkpt>
      <trkpt lat="43.43686" lon="6.6364">
        <ele>80.599998474121</ele>
        <time>2013-10-10T07:15:54Z</time>
      </trkpt>
      <trkpt lat="43.43683" lon="6.63642">
        <ele>80.599998474121</ele>
        <time>2013-10-10T07:15:57Z</time>
      </trkpt>
      <trkpt lat="43.43668" lon="6.63646">
        <ele>82</ele>
        <time>2013-10-10T07:16:10Z</time>
      </trkpt>
      <trkpt lat="43.43644" lon="6.63638">
        <ele>85</ele>
        <time>2013-10-10T07:16:19Z</time>
      </trkpt>
      <trkpt lat="43.43627" lon="6.63626">
        <ele>88</ele>
        <time>2013-10-10T07:16:25Z</time>
      </trkpt>
      <trkpt lat="43.43617" lon="6.63621">
        <ele>89.199996948242</ele>
        <time>2013-10-10T07:16:29Z</time>
      </trkpt>
      <trkpt lat="43.43595" lon="6.63642">
        <ele>86.800003051758</ele>
        <time>2013-10-10T07:16:39Z</time>
      </trkpt>
      <trkpt lat="43.43582" lon="6.6363">
        <ele>89</ele>
        <time>2013-10-10T07:16:46Z</time>
      </trkpt>
      <trkpt lat="43.43573" lon="6.63619">
        <ele>89.599998474121</ele>
        <time>2013-10-10T07:16:50Z</time>
      </trkpt>
      <trkpt lat="43.43551" lon="6.63607">
        <ele>88.400001525879</ele>
        <time>2013-10-10T07:16:59Z</time>
      </trkpt>
      <trkpt lat="43.43541" lon="6.63592">
        <ele>89.199996948242</ele>
        <time>2013-10-10T07:17:03Z</time>
      </trkpt>
      <trkpt lat="43.43527" lon="6.63568">
        <ele>90</ele>
        <time>2013-10-10T07:17:08Z</time>
      </trkpt>
      <trkpt lat="43.43519" lon="6.63531">
        <ele>92.599998474121</ele>
        <time>2013-10-10T07:17:15Z</time>
      </trkpt>
      <trkpt lat="43.43499" lon="6.63522">
        <ele>90.800003051758</ele>
        <time>2013-10-10T07:17:22Z</time>
      </trkpt>
      <trkpt lat="43.43497" lon="6.63518">
        <ele>91</ele>
        <time>2013-10-10T07:17:23Z</time>
      </trkpt>
      <trkpt lat="43.43481" lon="6.63493">
        <ele>91.800003051758</ele>
        <time>2013-10-10T07:17:30Z</time>
      </trkpt>
      <trkpt lat="43.43472" lon="6.63486">
        <ele>91.599998474121</ele>
        <time>2013-10-10T07:17:34Z</time>
      </trkpt>
      <trkpt lat="43.43457" lon="6.63457">
        <ele>92.599998474121</ele>
        <time>2013-10-10T07:17:43Z</time>
      </trkpt>
      <trkpt lat="43.43439" lon="6.63428">
        <ele>93.599998474121</ele>
        <time>2013-10-10T07:17:54Z</time>
      </trkpt>
      <trkpt lat="43.43422" lon="6.63384">
        <ele>93.800003051758</ele>
        <time>2013-10-10T07:18:07Z</time>
      </trkpt>
      <trkpt lat="43.43414" lon="6.63356">
        <ele>93.800003051758</ele>
        <time>2013-10-10T07:18:19Z</time>
      </trkpt>
      <trkpt lat="43.43414" lon="6.6334">
        <ele>93.800003051758</ele>
        <time>2013-10-10T07:18:27Z</time>
      </trkpt>
      <trkpt lat="43.43414" lon="6.63318">
        <ele>94.400001525879</ele>
        <time>2013-10-10T07:18:36Z</time>
      </trkpt>
      <trkpt lat="43.43421" lon="6.63289">
        <ele>96.199996948242</ele>
        <time>2013-10-10T07:18:51Z</time>
      </trkpt>
      <trkpt lat="43.43426" lon="6.63272">
        <ele>98</ele>
        <time>2013-10-10T07:19:08Z</time>
      </trkpt>
      <trkpt lat="43.43429" lon="6.63267">
        <ele>98.599998474121</ele>
        <time>2013-10-10T07:19:14Z</time>
      </trkpt>
      <trkpt lat="43.43431" lon="6.63264">
        <ele>99.199996948242</ele>
        <time>2013-10-10T07:19:17Z</time>
      </trkpt>
      <trkpt lat="43.4344" lon="6.63243">
        <ele>101.59999847412</ele>
        <time>2013-10-10T07:19:42Z</time>
      </trkpt>
      <trkpt lat="43.43449" lon="6.63232">
        <ele>103.19999694824</ele>
        <time>2013-10-10T07:19:54Z</time>
      </trkpt>
      <trkpt lat="43.43455" lon="6.6322">
        <ele>104.59999847412</ele>
        <time>2013-10-10T07:20:04Z</time>
      </trkpt>
      <trkpt lat="43.43461" lon="6.6321">
        <ele>106.19999694824</ele>
        <time>2013-10-10T07:20:13Z</time>
      </trkpt>
      <trkpt lat="43.4347" lon="6.63182">
        <ele>108.59999847412</ele>
        <time>2013-10-10T07:20:29Z</time>
      </trkpt>
      <trkpt lat="43.43476" lon="6.63142">
        <ele>109.40000152588</ele>
        <time>2013-10-10T07:20:37Z</time>
      </trkpt>
      <trkpt lat="43.43479" lon="6.63093">
        <ele>108.19999694824</ele>
        <time>2013-10-10T07:20:45Z</time>
      </trkpt>
      <trkpt lat="43.43497" lon="6.63071">
        <ele>111.80000305176</ele>
        <time>2013-10-10T07:20:53Z</time>
      </trkpt>
      <trkpt lat="43.43499" lon="6.63071">
        <ele>112.40000152588</ele>
        <time>2013-10-10T07:20:54Z</time>
      </trkpt>
      <trkpt lat="43.43502" lon="6.63063">
        <ele>111.59999847412</ele>
        <time>2013-10-10T07:20:58Z</time>
      </trkpt>
      <trkpt lat="43.43507" lon="6.63042">
        <ele>108.40000152588</ele>
        <time>2013-10-10T07:21:04Z</time>
      </trkpt>
      <trkpt lat="43.43511" lon="6.63023">
        <ele>105.19999694824</ele>
        <time>2013-10-10T07:21:37Z</time>
      </trkpt>
      <trkpt lat="43.43523" lon="6.63007">
        <ele>103.19999694824</ele>
        <time>2013-10-10T07:21:43Z</time>
      </trkpt>
      <trkpt lat="43.43536" lon="6.63001">
        <ele>103</ele>
        <time>2013-10-10T07:21:52Z</time>
      </trkpt>
      <trkpt lat="43.43545" lon="6.62998">
        <ele>103.19999694824</ele>
        <time>2013-10-10T07:22:13Z</time>
      </trkpt>
      <trkpt lat="43.43548" lon="6.62999">
        <ele>103.59999847412</ele>
        <time>2013-10-10T07:22:20Z</time>
      </trkpt>
      <trkpt lat="43.4356" lon="6.63002">
        <ele>105.40000152588</ele>
        <time>2013-10-10T07:22:48Z</time>
      </trkpt>
      <trkpt lat="43.4358" lon="6.63002">
        <ele>107</ele>
        <time>2013-10-10T07:22:54Z</time>
      </trkpt>
      <trkpt lat="43.43605" lon="6.63004">
        <ele>108.19999694824</ele>
        <time>2013-10-10T07:23:22Z</time>
      </trkpt>
      <trkpt lat="43.43625" lon="6.62995">
        <ele>106.19999694824</ele>
        <time>2013-10-10T07:23:35Z</time>
      </trkpt>
      <trkpt lat="43.43632" lon="6.6299">
        <ele>105.19999694824</ele>
        <time>2013-10-10T07:23:38Z</time>
      </trkpt>
      <trkpt lat="43.43651" lon="6.62997">
        <ele>107.19999694824</ele>
        <time>2013-10-10T07:23:50Z</time>
      </trkpt>
      <trkpt lat="43.43661" lon="6.63008">
        <ele>110</ele>
        <time>2013-10-10T07:24:36Z</time>
      </trkpt>
      <trkpt lat="43.43676" lon="6.63025">
        <ele>114.59999847412</ele>
        <time>2013-10-10T07:25:17Z</time>
      </trkpt>
      <trkpt lat="43.43678" lon="6.63027">
        <ele>114.80000305176</ele>
        <time>2013-10-10T07:25:19Z</time>
      </trkpt>
      <trkpt lat="43.43685" lon="6.63034">
        <ele>116.19999694824</ele>
        <time>2013-10-10T07:25:33Z</time>
      </trkpt>
      <trkpt lat="43.43706" lon="6.63045">
        <ele>116.80000305176</ele>
        <time>2013-10-10T07:25:43Z</time>
      </trkpt>
      <trkpt lat="43.43721" lon="6.63031">
        <ele>113.80000305176</ele>
        <time>2013-10-10T07:25:51Z</time>
      </trkpt>
      <trkpt lat="43.43724" lon="6.63024">
        <ele>112.80000305176</ele>
        <time>2013-10-10T07:25:52Z</time>
      </trkpt>
      <trkpt lat="43.4374" lon="6.63005">
        <ele>110.80000305176</ele>
        <time>2013-10-10T07:25:55Z</time>
      </trkpt>
      <trkpt lat="43.43755" lon="6.62988">
        <ele>111</ele>
        <time>2013-10-10T07:26:04Z</time>
      </trkpt>
      <trkpt lat="43.43762" lon="6.62982">
        <ele>110.80000305176</ele>
        <time>2013-10-10T07:26:13Z</time>
      </trkpt>
      <trkpt lat="43.43769" lon="6.62972">
        <ele>111</ele>
        <time>2013-10-10T07:26:17Z</time>
      </trkpt>
      <trkpt lat="43.43794" lon="6.62957">
        <ele>110.59999847412</ele>
        <time>2013-10-10T07:26:29Z</time>
      </trkpt>
      <trkpt lat="43.43808" lon="6.62941">
        <ele>112.19999694824</ele>
        <time>2013-10-10T07:26:41Z</time>
      </trkpt>
      <trkpt lat="43.43816" lon="6.62921">
        <ele>115.19999694824</ele>
        <time>2013-10-10T07:26:49Z</time>
      </trkpt>
      <trkpt lat="43.43822" lon="6.62889">
        <ele>118.19999694824</ele>
        <time>2013-10-10T07:27:01Z</time>
      </trkpt>
      <trkpt lat="43.43828" lon="6.62858">
        <ele>121.19999694824</ele>
        <time>2013-10-10T07:27:12Z</time>
      </trkpt>
      <trkpt lat="43.43834" lon="6.6283">
        <ele>123.59999847412</ele>
        <time>2013-10-10T07:27:20Z</time>
      </trkpt>
      <trkpt lat="43.43838" lon="6.62799">
        <ele>121.59999847412</ele>
        <time>2013-10-10T07:27:28Z</time>
      </trkpt>
      <trkpt lat="43.43845" lon="6.62778">
        <ele>119.19999694824</ele>
        <time>2013-10-10T07:27:33Z</time>
      </trkpt>
      <trkpt lat="43.43854" lon="6.62745">
        <ele>115.80000305176</ele>
        <time>2013-10-10T07:27:39Z</time>
      </trkpt>
      <trkpt lat="43.4386" lon="6.6273">
        <ele>112.80000305176</ele>
        <time>2013-10-10T07:27:44Z</time>
      </trkpt>
      <trkpt lat="43.43865" lon="6.6271">
        <ele>109.59999847412</ele>
        <time>2013-10-10T07:27:50Z</time>
      </trkpt>
      <trkpt lat="43.4387" lon="6.62684">
        <ele>106.40000152588</ele>
        <time>2013-10-10T07:27:56Z</time>
      </trkpt>
      <trkpt lat="43.43876" lon="6.62673">
        <ele>105</ele>
        <time>2013-10-10T07:27:59Z</time>
      </trkpt>
      <trkpt lat="43.43879" lon="6.62648">
        <ele>102</ele>
        <time>2013-10-10T07:28:05Z</time>
      </trkpt>
      <trkpt lat="43.43891" lon="6.62623">
        <ele>98.800003051758</ele>
        <time>2013-10-10T07:28:12Z</time>
      </trkpt>
      <trkpt lat="43.43902" lon="6.62589">
        <ele>95.599998474121</ele>
        <time>2013-10-10T07:28:21Z</time>
      </trkpt>
      <trkpt lat="43.43916" lon="6.6257">
        <ele>93.400001525879</ele>
        <time>2013-10-10T07:28:26Z</time>
      </trkpt>
      <trkpt lat="43.43919" lon="6.62565">
        <ele>92</ele>
        <time>2013-10-10T07:28:27Z</time>
      </trkpt>
      <trkpt lat="43.43926" lon="6.62554">
        <ele>88.400001525879</ele>
        <time>2013-10-10T07:28:30Z</time>
      </trkpt>
      <trkpt lat="43.43932" lon="6.62546">
        <ele>86.199996948242</ele>
        <time>2013-10-10T07:28:32Z</time>
      </trkpt>
      <trkpt lat="43.43934" lon="6.62543">
        <ele>85.400001525879</ele>
        <time>2013-10-10T07:28:33Z</time>
      </trkpt>
      <trkpt lat="43.43942" lon="6.62525">
        <ele>81.599998474121</ele>
        <time>2013-10-10T07:28:38Z</time>
      </trkpt>
      <trkpt lat="43.43956" lon="6.6254">
        <ele>81.400001525879</ele>
        <time>2013-10-10T07:28:43Z</time>
      </trkpt>
      <trkpt lat="43.43963" lon="6.62556">
        <ele>81.599998474121</ele>
        <time>2013-10-10T07:28:46Z</time>
      </trkpt>
      <trkpt lat="43.43971" lon="6.62579">
        <ele>81.199996948242</ele>
        <time>2013-10-10T07:28:50Z</time>
      </trkpt>
      <trkpt lat="43.4397" lon="6.62594">
        <ele>82</ele>
        <time>2013-10-10T07:28:52Z</time>
      </trkpt>
      <trkpt lat="43.43964" lon="6.62625">
        <ele>84.800003051758</ele>
        <time>2013-10-10T07:28:56Z</time>
      </trkpt>
      <trkpt lat="43.43963" lon="6.62655">
        <ele>86</ele>
        <time>2013-10-10T07:29:01Z</time>
      </trkpt>
      <trkpt lat="43.43967" lon="6.62672">
        <ele>85.400001525879</ele>
        <time>2013-10-10T07:29:04Z</time>
      </trkpt>
      <trkpt lat="43.43982" lon="6.62707">
        <ele>82.400001525879</ele>
        <time>2013-10-10T07:29:11Z</time>
      </trkpt>
      <trkpt lat="43.43986" lon="6.6271">
        <ele>81.400001525879</ele>
        <time>2013-10-10T07:29:12Z</time>
      </trkpt>
      <trkpt lat="43.43997" lon="6.62729">
        <ele>79.199996948242</ele>
        <time>2013-10-10T07:29:16Z</time>
      </trkpt>
      <trkpt lat="43.43998" lon="6.62734">
        <ele>79.199996948242</ele>
        <time>2013-10-10T07:29:17Z</time>
      </trkpt>
      <trkpt lat="43.43999" lon="6.6274">
        <ele>79.400001525879</ele>
        <time>2013-10-10T07:29:18Z</time>
      </trkpt>
      <trkpt lat="43.44009" lon="6.62764">
        <ele>78.599998474121</ele>
        <time>2013-10-10T07:29:23Z</time>
      </trkpt>
      <trkpt lat="43.44015" lon="6.62767">
        <ele>77.800003051758</ele>
        <time>2013-10-10T07:29:33Z</time>
      </trkpt>
      <trkpt lat="43.44018" lon="6.62768">
        <ele>77.400001525879</ele>
        <time>2013-10-10T07:29:37Z</time>
      </trkpt>
      <trkpt lat="43.44034" lon="6.62778">
        <ele>75</ele>
        <time>2013-10-10T07:29:47Z</time>
      </trkpt>
      <trkpt lat="43.44049" lon="6.62781">
        <ele>72.400001525879</ele>
        <time>2013-10-10T07:29:52Z</time>
      </trkpt>
      <trkpt lat="43.44052" lon="6.62783">
        <ele>72.199996948242</ele>
        <time>2013-10-10T07:29:53Z</time>
      </trkpt>
      <trkpt lat="43.44062" lon="6.6279">
        <ele>70.400001525879</ele>
        <time>2013-10-10T07:29:56Z</time>
      </trkpt>
      <trkpt lat="43.44075" lon="6.6279">
        <ele>68.199996948242</ele>
        <time>2013-10-10T07:30:00Z</time>
      </trkpt>
      <trkpt lat="43.44074" lon="6.62773">
        <ele>68.800003051758</ele>
        <time>2013-10-10T07:30:05Z</time>
      </trkpt>
      <trkpt lat="43.44068" lon="6.62762">
        <ele>69.800003051758</ele>
        <time>2013-10-10T07:30:08Z</time>
      </trkpt>
      <trkpt lat="43.44053" lon="6.62745">
        <ele>71.800003051758</ele>
        <time>2013-10-10T07:30:12Z</time>
      </trkpt>
      <trkpt lat="43.44038" lon="6.62708">
        <ele>71</ele>
        <time>2013-10-10T07:30:17Z</time>
      </trkpt>
      <trkpt lat="43.44031" lon="6.6269">
        <ele>70.599998474121</ele>
        <time>2013-10-10T07:30:19Z</time>
      </trkpt>
      <trkpt lat="43.44019" lon="6.62666">
        <ele>70.599998474121</ele>
        <time>2013-10-10T07:30:22Z</time>
      </trkpt>
      <trkpt lat="43.44014" lon="6.62636">
        <ele>71.199996948242</ele>
        <time>2013-10-10T07:30:26Z</time>
      </trkpt>
      <trkpt lat="43.44018" lon="6.62613">
        <ele>70.199996948242</ele>
        <time>2013-10-10T07:30:28Z</time>
      </trkpt>
      <trkpt lat="43.4402" lon="6.62592">
        <ele>69.400001525879</ele>
        <time>2013-10-10T07:30:30Z</time>
      </trkpt>
      <trkpt lat="43.44034" lon="6.62558">
        <ele>65.199996948242</ele>
        <time>2013-10-10T07:30:33Z</time>
      </trkpt>
      <trkpt lat="43.44045" lon="6.62526">
        <ele>61.200000762939</ele>
        <time>2013-10-10T07:30:36Z</time>
      </trkpt>
      <trkpt lat="43.44054" lon="6.62496">
        <ele>57</ele>
        <time>2013-10-10T07:30:39Z</time>
      </trkpt>
      <trkpt lat="43.4406" lon="6.62475">
        <ele>53</ele>
        <time>2013-10-10T07:30:41Z</time>
      </trkpt>
      <trkpt lat="43.44067" lon="6.62454">
        <ele>49.200000762939</ele>
        <time>2013-10-10T07:30:43Z</time>
      </trkpt>
      <trkpt lat="43.44074" lon="6.6243">
        <ele>45.799999237061</ele>
        <time>2013-10-10T07:30:45Z</time>
      </trkpt>
      <trkpt lat="43.4408" lon="6.62406">
        <ele>41.400001525879</ele>
        <time>2013-10-10T07:30:47Z</time>
      </trkpt>
      <trkpt lat="43.44084" lon="6.62386">
        <ele>37</ele>
        <time>2013-10-10T07:30:49Z</time>
      </trkpt>
      <trkpt lat="43.44079" lon="6.62362">
        <ele>33</ele>
        <time>2013-10-10T07:30:52Z</time>
      </trkpt>
      <trkpt lat="43.44075" lon="6.62355">
        <ele>32</ele>
        <time>2013-10-10T07:30:53Z</time>
      </trkpt>
      <trkpt lat="43.44068" lon="6.6234">
        <ele>29.799999237061</ele>
        <time>2013-10-10T07:30:55Z</time>
      </trkpt>
      <trkpt lat="43.44041" lon="6.62318">
        <ele>28.799999237061</ele>
        <time>2013-10-10T07:30:59Z</time>
      </trkpt>
      <trkpt lat="43.44" lon="6.62308">
        <ele>30.39999961853</ele>
        <time>2013-10-10T07:31:04Z</time>
      </trkpt>
      <trkpt lat="43.43947" lon="6.62311">
        <ele>32.200000762939</ele>
        <time>2013-10-10T07:31:11Z</time>
      </trkpt>
      <trkpt lat="43.43901" lon="6.62306">
        <ele>31.799999237061</ele>
        <time>2013-10-10T07:31:17Z</time>
      </trkpt>
      <trkpt lat="43.43879" lon="6.62298">
        <ele>30.200000762939</ele>
        <time>2013-10-10T07:31:20Z</time>
      </trkpt>
      <trkpt lat="43.4381" lon="6.62278">
        <ele>27.60000038147</ele>
        <time>2013-10-10T07:31:29Z</time>
      </trkpt>
      <trkpt lat="43.43773" lon="6.62277">
        <ele>26.200000762939</ele>
        <time>2013-10-10T07:31:34Z</time>
      </trkpt>
      <trkpt lat="43.43745" lon="6.62269">
        <ele>25.60000038147</ele>
        <time>2013-10-10T07:31:42Z</time>
      </trkpt>
      <trkpt lat="43.43722" lon="6.62262">
        <ele>26.60000038147</ele>
        <time>2013-10-10T07:31:53Z</time>
      </trkpt>
      <trkpt lat="43.43694" lon="6.62248">
        <ele>27.799999237061</ele>
        <time>2013-10-10T07:32:03Z</time>
      </trkpt>
      <trkpt lat="43.43659" lon="6.62228">
        <ele>30.39999961853</ele>
        <time>2013-10-10T07:32:16Z</time>
      </trkpt>
      <trkpt lat="43.43628" lon="6.62233">
        <ele>31</ele>
        <time>2013-10-10T07:32:27Z</time>
      </trkpt>
      <trkpt lat="43.43582" lon="6.62252">
        <ele>32.400001525879</ele>
        <time>2013-10-10T07:32:41Z</time>
      </trkpt>
      <trkpt lat="43.43554" lon="6.62268">
        <ele>35.400001525879</ele>
        <time>2013-10-10T07:32:49Z</time>
      </trkpt>
      <trkpt lat="43.43528" lon="6.62289">
        <ele>38.599998474121</ele>
        <time>2013-10-10T07:32:58Z</time>
      </trkpt>
      <trkpt lat="43.43491" lon="6.62308">
        <ele>40</ele>
        <time>2013-10-10T07:33:09Z</time>
      </trkpt>
      <trkpt lat="43.43446" lon="6.62325">
        <ele>38.599998474121</ele>
        <time>2013-10-10T07:33:23Z</time>
      </trkpt>
      <trkpt lat="43.43433" lon="6.62335">
        <ele>38.400001525879</ele>
        <time>2013-10-10T07:33:27Z</time>
      </trkpt>
      <trkpt lat="43.4342" lon="6.62353">
        <ele>40.200000762939</ele>
        <time>2013-10-10T07:33:31Z</time>
      </trkpt>
      <trkpt lat="43.43401" lon="6.62363">
        <ele>42.400001525879</ele>
        <time>2013-10-10T07:33:37Z</time>
      </trkpt>
      <trkpt lat="43.43403" lon="6.62342">
        <ele>39.200000762939</ele>
        <time>2013-10-10T07:33:41Z</time>
      </trkpt>
      <trkpt lat="43.43394" lon="6.62307">
        <ele>36.799999237061</ele>
        <time>2013-10-10T07:33:48Z</time>
      </trkpt>
      <trkpt lat="43.43381" lon="6.62292">
        <ele>36.400001525879</ele>
        <time>2013-10-10T07:33:52Z</time>
      </trkpt>
      <trkpt lat="43.43356" lon="6.62283">
        <ele>36.799999237061</ele>
        <time>2013-10-10T07:33:56Z</time>
      </trkpt>
      <trkpt lat="43.4335" lon="6.6228">
        <ele>36.799999237061</ele>
        <time>2013-10-10T07:33:57Z</time>
      </trkpt>
      <trkpt lat="43.43333" lon="6.62275">
        <ele>37</ele>
        <time>2013-10-10T07:34:00Z</time>
      </trkpt>
      <trkpt lat="43.43314" lon="6.62287">
        <ele>40</ele>
        <time>2013-10-10T07:34:04Z</time>
      </trkpt>
      <trkpt lat="43.43297" lon="6.62275">
        <ele>39.599998474121</ele>
        <time>2013-10-10T07:34:10Z</time>
      </trkpt>
      <trkpt lat="43.43292" lon="6.62249">
        <ele>36.799999237061</ele>
        <time>2013-10-10T07:34:15Z</time>
      </trkpt>
      <trkpt lat="43.43277" lon="6.62244">
        <ele>38.200000762939</ele>
        <time>2013-10-10T07:34:19Z</time>
      </trkpt>
      <trkpt lat="43.43272" lon="6.62244">
        <ele>38.599998474121</ele>
        <time>2013-10-10T07:34:20Z</time>
      </trkpt>
      <trkpt lat="43.43255" lon="6.62217">
        <ele>41.799999237061</ele>
        <time>2013-10-10T07:34:26Z</time>
      </trkpt>
      <trkpt lat="43.43258" lon="6.62204">
        <ele>42.400001525879</ele>
        <time>2013-10-10T07:34:28Z</time>
      </trkpt>
      <trkpt lat="43.43262" lon="6.62197">
        <ele>42.400001525879</ele>
        <time>2013-10-10T07:34:29Z</time>
      </trkpt>
      <trkpt lat="43.43277" lon="6.62154">
        <ele>44</ele>
        <time>2013-10-10T07:34:36Z</time>
      </trkpt>
      <trkpt lat="43.43285" lon="6.62122">
        <ele>46.599998474121</ele>
        <time>2013-10-10T07:34:46Z</time>
      </trkpt>
      <trkpt lat="43.43291" lon="6.62102">
        <ele>47.599998474121</ele>
        <time>2013-10-10T07:34:56Z</time>
      </trkpt>
      <trkpt lat="43.43302" lon="6.62082">
        <ele>46.599998474121</ele>
        <time>2013-10-10T07:35:02Z</time>
      </trkpt>
      <trkpt lat="43.43327" lon="6.62061">
        <ele>43.599998474121</ele>
        <time>2013-10-10T07:35:11Z</time>
      </trkpt>
      <trkpt lat="43.4334" lon="6.62049">
        <ele>43.599998474121</ele>
        <time>2013-10-10T07:35:15Z</time>
      </trkpt>
      <trkpt lat="43.43367" lon="6.62029">
        <ele>44.599998474121</ele>
        <time>2013-10-10T07:35:22Z</time>
      </trkpt>
      <trkpt lat="43.4339" lon="6.61999">
        <ele>43.799999237061</ele>
        <time>2013-10-10T07:35:30Z</time>
      </trkpt>
      <trkpt lat="43.43404" lon="6.61956">
        <ele>43.599998474121</ele>
        <time>2013-10-10T07:35:39Z</time>
      </trkpt>
      <trkpt lat="43.43407" lon="6.61926">
        <ele>44.200000762939</ele>
        <time>2013-10-10T07:35:43Z</time>
      </trkpt>
      <trkpt lat="43.43403" lon="6.61884">
        <ele>46.400001525879</ele>
        <time>2013-10-10T07:35:48Z</time>
      </trkpt>
      <trkpt lat="43.43402" lon="6.61876">
        <ele>46.799999237061</ele>
        <time>2013-10-10T07:35:49Z</time>
      </trkpt>
      <trkpt lat="43.43396" lon="6.6184">
        <ele>49.200000762939</ele>
        <time>2013-10-10T07:35:54Z</time>
      </trkpt>
      <trkpt lat="43.4339" lon="6.61821">
        <ele>50.599998474121</ele>
        <time>2013-10-10T07:35:57Z</time>
      </trkpt>
      <trkpt lat="43.43382" lon="6.61808">
        <ele>51.799999237061</ele>
        <time>2013-10-10T07:36:00Z</time>
      </trkpt>
      <trkpt lat="43.4337" lon="6.61779">
        <ele>53</ele>
        <time>2013-10-10T07:36:08Z</time>
      </trkpt>
      <trkpt lat="43.43375" lon="6.61765">
        <ele>52.599998474121</ele>
        <time>2013-10-10T07:36:20Z</time>
      </trkpt>
      <trkpt lat="43.43377" lon="6.61759">
        <ele>52.400001525879</ele>
        <time>2013-10-10T07:36:27Z</time>
      </trkpt>
      <trkpt lat="43.43381" lon="6.61751">
        <ele>52</ele>
        <time>2013-10-10T07:36:32Z</time>
      </trkpt>
      <trkpt lat="43.43377" lon="6.6174">
        <ele>52.400001525879</ele>
        <time>2013-10-10T07:36:39Z</time>
      </trkpt>
      <trkpt lat="43.43371" lon="6.61737">
        <ele>52.799999237061</ele>
        <time>2013-10-10T07:36:43Z</time>
      </trkpt>
      <trkpt lat="43.4337" lon="6.61736">
        <ele>52.799999237061</ele>
        <time>2013-10-10T07:36:44Z</time>
      </trkpt>
      <trkpt lat="43.43368" lon="6.61728">
        <ele>53</ele>
        <time>2013-10-10T07:36:48Z</time>
      </trkpt>
      <trkpt lat="43.43368" lon="6.61724">
        <ele>53.200000762939</ele>
        <time>2013-10-10T07:36:50Z</time>
      </trkpt>
      <trkpt lat="43.43365" lon="6.61706">
        <ele>53.400001525879</ele>
        <time>2013-10-10T07:36:56Z</time>
      </trkpt>
      <trkpt lat="43.43362" lon="6.61668">
        <ele>53.599998474121</ele>
        <time>2013-10-10T07:37:06Z</time>
      </trkpt>
      <trkpt lat="43.43359" lon="6.61653">
        <ele>53.599998474121</ele>
        <time>2013-10-10T07:37:11Z</time>
      </trkpt>
      <trkpt lat="43.43364" lon="6.61622">
        <ele>54</ele>
        <time>2013-10-10T07:37:20Z</time>
      </trkpt>
      <trkpt lat="43.43365" lon="6.61618">
        <ele>54.200000762939</ele>
        <time>2013-10-10T07:37:21Z</time>
      </trkpt>
      <trkpt lat="43.43365" lon="6.61606">
        <ele>54.200000762939</ele>
        <time>2013-10-10T07:37:23Z</time>
      </trkpt>
      <trkpt lat="43.43358" lon="6.6158">
        <ele>54</ele>
        <time>2013-10-10T07:37:30Z</time>
      </trkpt>
      <trkpt lat="43.43357" lon="6.6155">
        <ele>52.400001525879</ele>
        <time>2013-10-10T07:37:39Z</time>
      </trkpt>
      <trkpt lat="43.43353" lon="6.61515">
        <ele>50.599998474121</ele>
        <time>2013-10-10T07:37:52Z</time>
      </trkpt>
      <trkpt lat="43.43353" lon="6.61509">
        <ele>50.200000762939</ele>
        <time>2013-10-10T07:37:57Z</time>
      </trkpt>
      <trkpt lat="43.4335" lon="6.61488">
        <ele>49.599998474121</ele>
        <time>2013-10-10T07:38:09Z</time>
      </trkpt>
      <trkpt lat="43.4335" lon="6.61452">
        <ele>50</ele>
        <time>2013-10-10T07:38:20Z</time>
      </trkpt>
      <trkpt lat="43.43356" lon="6.61427">
        <ele>51</ele>
        <time>2013-10-10T07:38:26Z</time>
      </trkpt>
      <trkpt lat="43.43356" lon="6.61402">
        <ele>51.799999237061</ele>
        <time>2013-10-10T07:38:30Z</time>
      </trkpt>
      <trkpt lat="43.43352" lon="6.61355">
        <ele>53</ele>
        <time>2013-10-10T07:38:39Z</time>
      </trkpt>
      <trkpt lat="43.43352" lon="6.61325">
        <ele>54.200000762939</ele>
        <time>2013-10-10T07:38:46Z</time>
      </trkpt>
      <trkpt lat="43.43343" lon="6.61302">
        <ele>54.200000762939</ele>
        <time>2013-10-10T07:38:52Z</time>
      </trkpt>
      <trkpt lat="43.43342" lon="6.61289">
        <ele>54.799999237061</ele>
        <time>2013-10-10T07:38:55Z</time>
      </trkpt>
      <trkpt lat="43.43339" lon="6.61257">
        <ele>55.599998474121</ele>
        <time>2013-10-10T07:39:02Z</time>
      </trkpt>
      <trkpt lat="43.43337" lon="6.6124">
        <ele>55.799999237061</ele>
        <time>2013-10-10T07:39:07Z</time>
      </trkpt>
      <trkpt lat="43.4333" lon="6.61231">
        <ele>55.599998474121</ele>
        <time>2013-10-10T07:39:11Z</time>
      </trkpt>
      <trkpt lat="43.43328" lon="6.61225">
        <ele>56</ele>
        <time>2013-10-10T07:39:14Z</time>
      </trkpt>
      <trkpt lat="43.43335" lon="6.61182">
        <ele>56</ele>
        <time>2013-10-10T07:39:24Z</time>
      </trkpt>
      <trkpt lat="43.43332" lon="6.61164">
        <ele>56.400001525879</ele>
        <time>2013-10-10T07:39:28Z</time>
      </trkpt>
      <trkpt lat="43.43318" lon="6.61147">
        <ele>59.400001525879</ele>
        <time>2013-10-10T07:39:35Z</time>
      </trkpt>
      <trkpt lat="43.43311" lon="6.61142">
        <ele>60.400001525879</ele>
        <time>2013-10-10T07:39:39Z</time>
      </trkpt>
      <trkpt lat="43.43304" lon="6.61139">
        <ele>61</ele>
        <time>2013-10-10T07:39:43Z</time>
      </trkpt>
      <trkpt lat="43.43284" lon="6.61121">
        <ele>62.400001525879</ele>
        <time>2013-10-10T07:39:54Z</time>
      </trkpt>
      <trkpt lat="43.43264" lon="6.61105">
        <ele>62.200000762939</ele>
        <time>2013-10-10T07:40:07Z</time>
      </trkpt>
      <trkpt lat="43.43262" lon="6.61094">
        <ele>62</ele>
        <time>2013-10-10T07:40:17Z</time>
      </trkpt>
      <trkpt lat="43.43262" lon="6.61076">
        <ele>61.799999237061</ele>
        <time>2013-10-10T07:40:38Z</time>
      </trkpt>
      <trkpt lat="43.43259" lon="6.61064">
        <ele>61.599998474121</ele>
        <time>2013-10-10T07:40:42Z</time>
      </trkpt>
      <trkpt lat="43.43252" lon="6.6104">
        <ele>60.599998474121</ele>
        <time>2013-10-10T07:40:49Z</time>
      </trkpt>
      <trkpt lat="43.4325" lon="6.61033">
        <ele>60.400001525879</ele>
        <time>2013-10-10T07:40:51Z</time>
      </trkpt>
      <trkpt lat="43.43247" lon="6.61029">
        <ele>60.799999237061</ele>
        <time>2013-10-10T07:40:52Z</time>
      </trkpt>
      <trkpt lat="43.43239" lon="6.61002">
        <ele>61.599998474121</ele>
        <time>2013-10-10T07:40:57Z</time>
      </trkpt>
      <trkpt lat="43.43238" lon="6.60977">
        <ele>62.200000762939</ele>
        <time>2013-10-10T07:41:07Z</time>
      </trkpt>
      <trkpt lat="43.43238" lon="6.60974">
        <ele>62.200000762939</ele>
        <time>2013-10-10T07:41:09Z</time>
      </trkpt>
      <trkpt lat="43.43239" lon="6.6097">
        <ele>62.200000762939</ele>
        <time>2013-10-10T07:41:12Z</time>
      </trkpt>
      <trkpt lat="43.43243" lon="6.60964">
        <ele>62</ele>
        <time>2013-10-10T07:41:21Z</time>
      </trkpt>
      <trkpt lat="43.43247" lon="6.60959">
        <ele>61.599998474121</ele>
        <time>2013-10-10T07:41:27Z</time>
      </trkpt>
      <trkpt lat="43.43245" lon="6.60951">
        <ele>62.200000762939</ele>
        <time>2013-10-10T07:41:32Z</time>
      </trkpt>
      <trkpt lat="43.43241" lon="6.60938">
        <ele>63</ele>
        <time>2013-10-10T07:41:39Z</time>
      </trkpt>
      <trkpt lat="43.4324" lon="6.60936">
        <ele>63</ele>
        <time>2013-10-10T07:41:40Z</time>
      </trkpt>
      <trkpt lat="43.43233" lon="6.60924">
        <ele>63.799999237061</ele>
        <time>2013-10-10T07:41:51Z</time>
      </trkpt>
      <trkpt lat="43.4323" lon="6.60912">
        <ele>64.400001525879</ele>
        <time>2013-10-10T07:42:07Z</time>
      </trkpt>
      <trkpt lat="43.43229" lon="6.60901">
        <ele>64.800003051758</ele>
        <time>2013-10-10T07:42:10Z</time>
      </trkpt>
      <trkpt lat="43.43219" lon="6.60885">
        <ele>65.800003051758</ele>
        <time>2013-10-10T07:42:15Z</time>
      </trkpt>
      <trkpt lat="43.43196" lon="6.60846">
        <ele>66.199996948242</ele>
        <time>2013-10-10T07:42:25Z</time>
      </trkpt>
      <trkpt lat="43.43165" lon="6.60809">
        <ele>65.599998474121</ele>
        <time>2013-10-10T07:42:36Z</time>
      </trkpt>
      <trkpt lat="43.43152" lon="6.60779">
        <ele>66.400001525879</ele>
        <time>2013-10-10T07:42:45Z</time>
      </trkpt>
      <trkpt lat="43.43132" lon="6.60744">
        <ele>66.199996948242</ele>
        <time>2013-10-10T07:42:56Z</time>
      </trkpt>
      <trkpt lat="43.43115" lon="6.60746">
        <ele>65.800003051758</ele>
        <time>2013-10-10T07:43:00Z</time>
      </trkpt>
      <trkpt lat="43.43104" lon="6.6075">
        <ele>65.400001525879</ele>
        <time>2013-10-10T07:43:02Z</time>
      </trkpt>
      <trkpt lat="43.43083" lon="6.60743">
        <ele>65</ele>
        <time>2013-10-10T07:43:07Z</time>
      </trkpt>
      <trkpt lat="43.43039" lon="6.60714">
        <ele>66</ele>
        <time>2013-10-10T07:43:22Z</time>
      </trkpt>
      <trkpt lat="43.43022" lon="6.60691">
        <ele>66.400001525879</ele>
        <time>2013-10-10T07:43:38Z</time>
      </trkpt>
      <trkpt lat="43.43021" lon="6.60682">
        <ele>66.400001525879</ele>
        <time>2013-10-10T07:43:43Z</time>
      </trkpt>
      <trkpt lat="43.43019" lon="6.60673">
        <ele>66.400001525879</ele>
        <time>2013-10-10T07:43:47Z</time>
      </trkpt>
      <trkpt lat="43.43011" lon="6.60636">
        <ele>67.800003051758</ele>
        <time>2013-10-10T07:43:57Z</time>
      </trkpt>
      <trkpt lat="43.43004" lon="6.60622">
        <ele>68.400001525879</ele>
        <time>2013-10-10T07:44:02Z</time>
      </trkpt>
      <trkpt lat="43.42996" lon="6.60618">
        <ele>69</ele>
        <time>2013-10-10T07:44:06Z</time>
      </trkpt>
      <trkpt lat="43.4299" lon="6.60614">
        <ele>69.800003051758</ele>
        <time>2013-10-10T07:44:09Z</time>
      </trkpt>
      <trkpt lat="43.42985" lon="6.60597">
        <ele>70.800003051758</ele>
        <time>2013-10-10T07:44:15Z</time>
      </trkpt>
      <trkpt lat="43.42984" lon="6.60589">
        <ele>71.400001525879</ele>
        <time>2013-10-10T07:44:18Z</time>
      </trkpt>
      <trkpt lat="43.42991" lon="6.60569">
        <ele>70.800003051758</ele>
        <time>2013-10-10T07:44:24Z</time>
      </trkpt>
      <trkpt lat="43.42992" lon="6.60566">
        <ele>70.800003051758</ele>
        <time>2013-10-10T07:44:25Z</time>
      </trkpt>
      <trkpt lat="43.42992" lon="6.60557">
        <ele>70.800003051758</ele>
        <time>2013-10-10T07:44:27Z</time>
      </trkpt>
      <trkpt lat="43.42983" lon="6.60536">
        <ele>72</ele>
        <time>2013-10-10T07:44:32Z</time>
      </trkpt>
      <trkpt lat="43.4298" lon="6.60527">
        <ele>72.400001525879</ele>
        <time>2013-10-10T07:44:34Z</time>
      </trkpt>
      <trkpt lat="43.4296" lon="6.60501">
        <ele>75.199996948242</ele>
        <time>2013-10-10T07:44:42Z</time>
      </trkpt>
      <trkpt lat="43.42937" lon="6.60478">
        <ele>77.800003051758</ele>
        <time>2013-10-10T07:44:52Z</time>
      </trkpt>
      <trkpt lat="43.42915" lon="6.60448">
        <ele>78.599998474121</ele>
        <time>2013-10-10T07:45:02Z</time>
      </trkpt>
      <trkpt lat="43.42913" lon="6.60442">
        <ele>78.800003051758</ele>
        <time>2013-10-10T07:45:04Z</time>
      </trkpt>
      <trkpt lat="43.42906" lon="6.60423">
        <ele>79.400001525879</ele>
        <time>2013-10-10T07:45:10Z</time>
      </trkpt>
      <trkpt lat="43.42894" lon="6.60397">
        <ele>81.800003051758</ele>
        <time>2013-10-10T07:45:19Z</time>
      </trkpt>
      <trkpt lat="43.42885" lon="6.60382">
        <ele>83.199996948242</ele>
        <time>2013-10-10T07:45:25Z</time>
      </trkpt>
      <trkpt lat="43.42885" lon="6.60364">
        <ele>83</ele>
        <time>2013-10-10T07:45:34Z</time>
      </trkpt>
      <trkpt lat="43.42865" lon="6.60335">
        <ele>84</ele>
        <time>2013-10-10T07:45:44Z</time>
      </trkpt>
      <trkpt lat="43.42855" lon="6.60323">
        <ele>84.599998474121</ele>
        <time>2013-10-10T07:45:49Z</time>
      </trkpt>
      <trkpt lat="43.42833" lon="6.60301">
        <ele>85.400001525879</ele>
        <time>2013-10-10T07:46:00Z</time>
      </trkpt>
      <trkpt lat="43.42824" lon="6.60296">
        <ele>87.599998474121</ele>
        <time>2013-10-10T07:46:06Z</time>
      </trkpt>
      <trkpt lat="43.42828" lon="6.60277">
        <ele>86</ele>
        <time>2013-10-10T07:46:24Z</time>
      </trkpt>
      <trkpt lat="43.42833" lon="6.60269">
        <ele>84.400001525879</ele>
        <time>2013-10-10T07:46:30Z</time>
      </trkpt>
      <trkpt lat="43.42834" lon="6.60262">
        <ele>84.199996948242</ele>
        <time>2013-10-10T07:46:35Z</time>
      </trkpt>
      <trkpt lat="43.42834" lon="6.6025">
        <ele>84</ele>
        <time>2013-10-10T07:46:45Z</time>
      </trkpt>
      <trkpt lat="43.42831" lon="6.60229">
        <ele>85.599998474121</ele>
        <time>2013-10-10T07:46:57Z</time>
      </trkpt>
      <trkpt lat="43.42831" lon="6.60219">
        <ele>86.199996948242</ele>
        <time>2013-10-10T07:47:11Z</time>
      </trkpt>
      <trkpt lat="43.42831" lon="6.60207">
        <ele>86.800003051758</ele>
        <time>2013-10-10T07:47:24Z</time>
      </trkpt>
      <trkpt lat="43.42832" lon="6.60204">
        <ele>87</ele>
        <time>2013-10-10T07:47:26Z</time>
      </trkpt>
      <trkpt lat="43.42833" lon="6.60197">
        <ele>87</ele>
        <time>2013-10-10T07:47:33Z</time>
      </trkpt>
      <trkpt lat="43.42835" lon="6.60189">
        <ele>87.599998474121</ele>
        <time>2013-10-10T07:47:41Z</time>
      </trkpt>
      <trkpt lat="43.42846" lon="6.60175">
        <ele>89.800003051758</ele>
        <time>2013-10-10T07:48:01Z</time>
      </trkpt>
      <trkpt lat="43.4285" lon="6.60163">
        <ele>91.199996948242</ele>
        <time>2013-10-10T07:48:13Z</time>
      </trkpt>
      <trkpt lat="43.42854" lon="6.60155">
        <ele>92.800003051758</ele>
        <time>2013-10-10T07:48:22Z</time>
      </trkpt>
      <trkpt lat="43.42864" lon="6.60135">
        <ele>96.400001525879</ele>
        <time>2013-10-10T07:48:44Z</time>
      </trkpt>
      <trkpt lat="43.42864" lon="6.60133">
        <ele>96.599998474121</ele>
        <time>2013-10-10T07:48:45Z</time>
      </trkpt>
      <trkpt lat="43.42873" lon="6.60116">
        <ele>100.19999694824</ele>
        <time>2013-10-10T07:49:03Z</time>
      </trkpt>
      <trkpt lat="43.42873" lon="6.60114">
        <ele>100.40000152588</ele>
        <time>2013-10-10T07:49:04Z</time>
      </trkpt>
      <trkpt lat="43.42877" lon="6.60099">
        <ele>103</ele>
        <time>2013-10-10T07:49:17Z</time>
      </trkpt>
      <trkpt lat="43.42879" lon="6.60081">
        <ele>106</ele>
        <time>2013-10-10T07:49:24Z</time>
      </trkpt>
      <trkpt lat="43.42882" lon="6.60071">
        <ele>108.59999847412</ele>
        <time>2013-10-10T07:49:26Z</time>
      </trkpt>
      <trkpt lat="43.42878" lon="6.60055">
        <ele>111.59999847412</ele>
        <time>2013-10-10T07:49:29Z</time>
      </trkpt>
      <trkpt lat="43.42875" lon="6.60052">
        <ele>111.80000305176</ele>
        <time>2013-10-10T07:49:30Z</time>
      </trkpt>
      <trkpt lat="43.42859" lon="6.6004">
        <ele>112</ele>
        <time>2013-10-10T07:49:36Z</time>
      </trkpt>
      <trkpt lat="43.42847" lon="6.6002">
        <ele>114.59999847412</ele>
        <time>2013-10-10T07:49:45Z</time>
      </trkpt>
      <trkpt lat="43.42846" lon="6.60018">
        <ele>115</ele>
        <time>2013-10-10T07:49:46Z</time>
      </trkpt>
      <trkpt lat="43.42843" lon="6.60012">
        <ele>115.80000305176</ele>
        <time>2013-10-10T07:49:49Z</time>
      </trkpt>
      <trkpt lat="43.42836" lon="6.60008">
        <ele>115.59999847412</ele>
        <time>2013-10-10T07:49:53Z</time>
      </trkpt>
      <trkpt lat="43.42815" lon="6.59998">
        <ele>114.40000152588</ele>
        <time>2013-10-10T07:50:06Z</time>
      </trkpt>
      <trkpt lat="43.42795" lon="6.59996">
        <ele>111.40000152588</ele>
        <time>2013-10-10T07:50:18Z</time>
      </trkpt>
      <trkpt lat="43.42784" lon="6.59992">
        <ele>110.40000152588</ele>
        <time>2013-10-10T07:50:25Z</time>
      </trkpt>
      <trkpt lat="43.42779" lon="6.59972">
        <ele>113.59999847412</ele>
        <time>2013-10-10T07:50:35Z</time>
      </trkpt>
      <trkpt lat="43.42779" lon="6.59964">
        <ele>115.40000152588</ele>
        <time>2013-10-10T07:50:38Z</time>
      </trkpt>
      <trkpt lat="43.42778" lon="6.59961">
        <ele>115.59999847412</ele>
        <time>2013-10-10T07:50:39Z</time>
      </trkpt>
      <trkpt lat="43.42773" lon="6.59949">
        <ele>116.80000305176</ele>
        <time>2013-10-10T07:50:44Z</time>
      </trkpt>
      <trkpt lat="43.42769" lon="6.59926">
        <ele>120.19999694824</ele>
        <time>2013-10-10T07:50:54Z</time>
      </trkpt>
      <trkpt lat="43.42772" lon="6.59915">
        <ele>123.19999694824</ele>
        <time>2013-10-10T07:50:58Z</time>
      </trkpt>
      <trkpt lat="43.42775" lon="6.599">
        <ele>126.40000152588</ele>
        <time>2013-10-10T07:51:03Z</time>
      </trkpt>
      <trkpt lat="43.42779" lon="6.59886">
        <ele>130</ele>
        <time>2013-10-10T07:51:08Z</time>
      </trkpt>
      <trkpt lat="43.42783" lon="6.59873">
        <ele>133.39999389648</ele>
        <time>2013-10-10T07:51:13Z</time>
      </trkpt>
      <trkpt lat="43.42784" lon="6.59856">
        <ele>136.60000610352</ele>
        <time>2013-10-10T07:51:20Z</time>
      </trkpt>
      <trkpt lat="43.42776" lon="6.59826">
        <ele>138.60000610352</ele>
        <time>2013-10-10T07:51:31Z</time>
      </trkpt>
      <trkpt lat="43.42761" lon="6.59816">
        <ele>135.60000610352</ele>
        <time>2013-10-10T07:51:39Z</time>
      </trkpt>
      <trkpt lat="43.42753" lon="6.59807">
        <ele>135.19999694824</ele>
        <time>2013-10-10T07:51:44Z</time>
      </trkpt>
      <trkpt lat="43.42743" lon="6.59788">
        <ele>138.39999389648</ele>
        <time>2013-10-10T07:51:54Z</time>
      </trkpt>
      <trkpt lat="43.42742" lon="6.59775">
        <ele>141.80000305176</ele>
        <time>2013-10-10T07:51:59Z</time>
      </trkpt>
      <trkpt lat="43.42741" lon="6.59763">
        <ele>145</ele>
        <time>2013-10-10T07:52:04Z</time>
      </trkpt>
      <trkpt lat="43.42739" lon="6.59751">
        <ele>148</ele>
        <time>2013-10-10T07:52:09Z</time>
      </trkpt>
      <trkpt lat="43.42738" lon="6.5975">
        <ele>148.19999694824</ele>
        <time>2013-10-10T07:52:10Z</time>
      </trkpt>
      <trkpt lat="43.42724" lon="6.59735">
        <ele>150.60000610352</ele>
        <time>2013-10-10T07:52:19Z</time>
      </trkpt>
      <trkpt lat="43.42709" lon="6.59737">
        <ele>148</ele>
        <time>2013-10-10T07:52:28Z</time>
      </trkpt>
      <trkpt lat="43.42705" lon="6.5974">
        <ele>146.60000610352</ele>
        <time>2013-10-10T07:52:31Z</time>
      </trkpt>
      <trkpt lat="43.42702" lon="6.5974">
        <ele>146.39999389648</ele>
        <time>2013-10-10T07:52:33Z</time>
      </trkpt>
      <trkpt lat="43.42692" lon="6.59743">
        <ele>144</ele>
        <time>2013-10-10T07:52:41Z</time>
      </trkpt>
      <trkpt lat="43.42677" lon="6.59731">
        <ele>146</ele>
        <time>2013-10-10T07:52:53Z</time>
      </trkpt>
      <trkpt lat="43.42675" lon="6.5973">
        <ele>146</ele>
        <time>2013-10-10T07:52:55Z</time>
      </trkpt>
      <trkpt lat="43.42663" lon="6.59718">
        <ele>149</ele>
        <time>2013-10-10T07:53:05Z</time>
      </trkpt>
      <trkpt lat="43.42646" lon="6.59714">
        <ele>149.60000610352</ele>
        <time>2013-10-10T07:53:17Z</time>
      </trkpt>
      <trkpt lat="43.42635" lon="6.59711">
        <ele>149.80000305176</ele>
        <time>2013-10-10T07:53:26Z</time>
      </trkpt>
      <trkpt lat="43.42631" lon="6.59704">
        <ele>151.80000305176</ele>
        <time>2013-10-10T07:53:32Z</time>
      </trkpt>
      <trkpt lat="43.42626" lon="6.59693">
        <ele>154.80000305176</ele>
        <time>2013-10-10T07:53:38Z</time>
      </trkpt>
      <trkpt lat="43.42626" lon="6.59692">
        <ele>155.19999694824</ele>
        <time>2013-10-10T07:53:39Z</time>
      </trkpt>
      <trkpt lat="43.42617" lon="6.59679">
        <ele>158.19999694824</ele>
        <time>2013-10-10T07:53:48Z</time>
      </trkpt>
      <trkpt lat="43.42608" lon="6.59665">
        <ele>161.19999694824</ele>
        <time>2013-10-10T07:53:59Z</time>
      </trkpt>
      <trkpt lat="43.42602" lon="6.59659">
        <ele>162</ele>
        <time>2013-10-10T07:54:04Z</time>
      </trkpt>
      <trkpt lat="43.4258" lon="6.59644">
        <ele>163</ele>
        <time>2013-10-10T07:54:18Z</time>
      </trkpt>
      <trkpt lat="43.42556" lon="6.59647">
        <ele>161.39999389648</ele>
        <time>2013-10-10T07:54:30Z</time>
      </trkpt>
      <trkpt lat="43.42538" lon="6.59627">
        <ele>164.80000305176</ele>
        <time>2013-10-10T07:54:40Z</time>
      </trkpt>
      <trkpt lat="43.4253" lon="6.59611">
        <ele>167.80000305176</ele>
        <time>2013-10-10T07:54:45Z</time>
      </trkpt>
      <trkpt lat="43.42507" lon="6.59607">
        <ele>167.39999389648</ele>
        <time>2013-10-10T07:54:55Z</time>
      </trkpt>
      <trkpt lat="43.42488" lon="6.59618">
        <ele>164.39999389648</ele>
        <time>2013-10-10T07:55:06Z</time>
      </trkpt>
      <trkpt lat="43.42468" lon="6.59608">
        <ele>165.19999694824</ele>
        <time>2013-10-10T07:55:19Z</time>
      </trkpt>
      <trkpt lat="43.42464" lon="6.59585">
        <ele>168.60000610352</ele>
        <time>2013-10-10T07:55:27Z</time>
      </trkpt>
      <trkpt lat="43.42457" lon="6.59556">
        <ele>171.60000610352</ele>
        <time>2013-10-10T07:55:36Z</time>
      </trkpt>
      <trkpt lat="43.42441" lon="6.59525">
        <ele>174.19999694824</ele>
        <time>2013-10-10T07:55:47Z</time>
      </trkpt>
      <trkpt lat="43.42441" lon="6.59512">
        <ele>175.80000305176</ele>
        <time>2013-10-10T07:55:50Z</time>
      </trkpt>
      <trkpt lat="43.42424" lon="6.59513">
        <ele>174.80000305176</ele>
        <time>2013-10-10T07:55:56Z</time>
      </trkpt>
      <trkpt lat="43.42414" lon="6.59519">
        <ele>173.39999389648</ele>
        <time>2013-10-10T07:55:59Z</time>
      </trkpt>
      <trkpt lat="43.42398" lon="6.59528">
        <ele>172.19999694824</ele>
        <time>2013-10-10T07:56:03Z</time>
      </trkpt>
      <trkpt lat="43.4237" lon="6.59523">
        <ele>172.60000610352</ele>
        <time>2013-10-10T07:56:09Z</time>
      </trkpt>
      <trkpt lat="43.42352" lon="6.59511">
        <ele>173</ele>
        <time>2013-10-10T07:56:13Z</time>
      </trkpt>
      <trkpt lat="43.42339" lon="6.59484">
        <ele>175.39999389648</ele>
        <time>2013-10-10T07:56:18Z</time>
      </trkpt>
      <trkpt lat="43.42338" lon="6.59478">
        <ele>176.19999694824</ele>
        <time>2013-10-10T07:56:19Z</time>
      </trkpt>
      <trkpt lat="43.42334" lon="6.59462">
        <ele>178.39999389648</ele>
        <time>2013-10-10T07:56:23Z</time>
      </trkpt>
      <trkpt lat="43.42326" lon="6.59476">
        <ele>176.39999389648</ele>
        <time>2013-10-10T07:56:28Z</time>
      </trkpt>
      <trkpt lat="43.42304" lon="6.59474">
        <ele>176.80000305176</ele>
        <time>2013-10-10T07:56:33Z</time>
      </trkpt>
      <trkpt lat="43.42288" lon="6.59467">
        <ele>177.60000610352</ele>
        <time>2013-10-10T07:56:36Z</time>
      </trkpt>
      <trkpt lat="43.42258" lon="6.59477">
        <ele>177</ele>
        <time>2013-10-10T07:56:44Z</time>
      </trkpt>
      <trkpt lat="43.42241" lon="6.59505">
        <ele>177.19999694824</ele>
        <time>2013-10-10T07:57:09Z</time>
      </trkpt>
      <trkpt lat="43.42241" lon="6.59527">
        <ele>178.19999694824</ele>
        <time>2013-10-10T07:57:33Z</time>
      </trkpt>
      <trkpt lat="43.42245" lon="6.59559">
        <ele>179.19999694824</ele>
        <time>2013-10-10T07:58:03Z</time>
      </trkpt>
      <trkpt lat="43.42245" lon="6.5956">
        <ele>179.19999694824</ele>
        <time>2013-10-10T07:58:04Z</time>
      </trkpt>
      <trkpt lat="43.42245" lon="6.59562">
        <ele>179.39999389648</ele>
        <time>2013-10-10T07:58:06Z</time>
      </trkpt>
      <trkpt lat="43.42241" lon="6.59568">
        <ele>180</ele>
        <time>2013-10-10T07:58:11Z</time>
      </trkpt>
      <trkpt lat="43.42229" lon="6.59594">
        <ele>182.39999389648</ele>
        <time>2013-10-10T07:58:25Z</time>
      </trkpt>
      <trkpt lat="43.4222" lon="6.59619">
        <ele>184.60000610352</ele>
        <time>2013-10-10T07:58:37Z</time>
      </trkpt>
      <trkpt lat="43.42204" lon="6.59649">
        <ele>187.60000610352</ele>
        <time>2013-10-10T07:58:54Z</time>
      </trkpt>
      <trkpt lat="43.42184" lon="6.59667">
        <ele>189.80000305176</ele>
        <time>2013-10-10T07:59:07Z</time>
      </trkpt>
      <trkpt lat="43.42176" lon="6.59671">
        <ele>190.39999389648</ele>
        <time>2013-10-10T07:59:09Z</time>
      </trkpt>
      <trkpt lat="43.42159" lon="6.59685">
        <ele>192.60000610352</ele>
        <time>2013-10-10T07:59:13Z</time>
      </trkpt>
      <trkpt lat="43.42142" lon="6.59703">
        <ele>195.60000610352</ele>
        <time>2013-10-10T07:59:18Z</time>
      </trkpt>
      <trkpt lat="43.42129" lon="6.59745">
        <ele>198.60000610352</ele>
        <time>2013-10-10T07:59:30Z</time>
      </trkpt>
      <trkpt lat="43.42115" lon="6.59775">
        <ele>201.60000610352</ele>
        <time>2013-10-10T07:59:42Z</time>
      </trkpt>
      <trkpt lat="43.42096" lon="6.5981">
        <ele>203.60000610352</ele>
        <time>2013-10-10T07:59:55Z</time>
      </trkpt>
      <trkpt lat="43.42068" lon="6.59858">
        <ele>206.19999694824</ele>
        <time>2013-10-10T08:00:11Z</time>
      </trkpt>
      <trkpt lat="43.42079" lon="6.59886">
        <ele>206.80000305176</ele>
        <time>2013-10-10T08:00:19Z</time>
      </trkpt>
      <trkpt lat="43.42083" lon="6.59886">
        <ele>206.39999389648</ele>
        <time>2013-10-10T08:00:20Z</time>
      </trkpt>
      <trkpt lat="43.42091" lon="6.59883">
        <ele>206.39999389648</ele>
        <time>2013-10-10T08:00:22Z</time>
      </trkpt>
      <trkpt lat="43.42125" lon="6.59842">
        <ele>204</ele>
        <time>2013-10-10T08:00:32Z</time>
      </trkpt>
      <trkpt lat="43.42171" lon="6.59826">
        <ele>201.80000305176</ele>
        <time>2013-10-10T08:00:46Z</time>
      </trkpt>
      <trkpt lat="43.422" lon="6.5984">
        <ele>200.60000610352</ele>
        <time>2013-10-10T08:01:00Z</time>
      </trkpt>
      <trkpt lat="43.42223" lon="6.59866">
        <ele>202.39999389648</ele>
        <time>2013-10-10T08:01:17Z</time>
      </trkpt>
      <trkpt lat="43.42241" lon="6.59892">
        <ele>205.19999694824</ele>
        <time>2013-10-10T08:01:35Z</time>
      </trkpt>
      <trkpt lat="43.42246" lon="6.59912">
        <ele>208.39999389648</ele>
        <time>2013-10-10T08:01:46Z</time>
      </trkpt>
      <trkpt lat="43.42249" lon="6.5994">
        <ele>211.19999694824</ele>
        <time>2013-10-10T08:02:00Z</time>
      </trkpt>
      <trkpt lat="43.42247" lon="6.59972">
        <ele>214.19999694824</ele>
        <time>2013-10-10T08:02:14Z</time>
      </trkpt>
      <trkpt lat="43.42241" lon="6.59978">
        <ele>215</ele>
        <time>2013-10-10T08:02:18Z</time>
      </trkpt>
      <trkpt lat="43.42212" lon="6.59999">
        <ele>217.19999694824</ele>
        <time>2013-10-10T08:02:32Z</time>
      </trkpt>
      <trkpt lat="43.42175" lon="6.6005">
        <ele>219.80000305176</ele>
        <time>2013-10-10T08:02:46Z</time>
      </trkpt>
      <trkpt lat="43.42141" lon="6.60105">
        <ele>222.80000305176</ele>
        <time>2013-10-10T08:03:00Z</time>
      </trkpt>
      <trkpt lat="43.42117" lon="6.60163">
        <ele>225.80000305176</ele>
        <time>2013-10-10T08:03:12Z</time>
      </trkpt>
      <trkpt lat="43.42128" lon="6.60204">
        <ele>225.80000305176</ele>
        <time>2013-10-10T08:03:20Z</time>
      </trkpt>
      <trkpt lat="43.42168" lon="6.60287">
        <ele>222.80000305176</ele>
        <time>2013-10-10T08:03:32Z</time>
      </trkpt>
      <trkpt lat="43.42181" lon="6.60331">
        <ele>220</ele>
        <time>2013-10-10T08:03:36Z</time>
      </trkpt>
      <trkpt lat="43.42182" lon="6.6039">
        <ele>219.60000610352</ele>
        <time>2013-10-10T08:03:42Z</time>
      </trkpt>
      <trkpt lat="43.42202" lon="6.6041">
        <ele>216.39999389648</ele>
        <time>2013-10-10T08:03:46Z</time>
      </trkpt>
      <trkpt lat="43.42224" lon="6.60422">
        <ele>212.60000610352</ele>
        <time>2013-10-10T08:03:49Z</time>
      </trkpt>
      <trkpt lat="43.42245" lon="6.60427">
        <ele>208.80000305176</ele>
        <time>2013-10-10T08:03:51Z</time>
      </trkpt>
      <trkpt lat="43.42272" lon="6.60423">
        <ele>205.60000610352</ele>
        <time>2013-10-10T08:03:54Z</time>
      </trkpt>
      <trkpt lat="43.42287" lon="6.60413">
        <ele>204.60000610352</ele>
        <time>2013-10-10T08:03:56Z</time>
      </trkpt>
      <trkpt lat="43.42298" lon="6.60403">
        <ele>203.39999389648</ele>
        <time>2013-10-10T08:03:58Z</time>
      </trkpt>
      <trkpt lat="43.42311" lon="6.6042">
        <ele>201.19999694824</ele>
        <time>2013-10-10T08:04:03Z</time>
      </trkpt>
      <trkpt lat="43.42302" lon="6.60434">
        <ele>200.60000610352</ele>
        <time>2013-10-10T08:04:06Z</time>
      </trkpt>
      <trkpt lat="43.42297" lon="6.60438">
        <ele>200.60000610352</ele>
        <time>2013-10-10T08:04:07Z</time>
      </trkpt>
      <trkpt lat="43.42271" lon="6.60454">
        <ele>202.60000610352</ele>
        <time>2013-10-10T08:04:11Z</time>
      </trkpt>
      <trkpt lat="43.42257" lon="6.60467">
        <ele>203.39999389648</ele>
        <time>2013-10-10T08:04:13Z</time>
      </trkpt>
      <trkpt lat="43.42245" lon="6.60496">
        <ele>203</ele>
        <time>2013-10-10T08:04:16Z</time>
      </trkpt>
      <trkpt lat="43.42243" lon="6.60506">
        <ele>202.19999694824</ele>
        <time>2013-10-10T08:04:17Z</time>
      </trkpt>
      <trkpt lat="43.42241" lon="6.60532">
        <ele>198.60000610352</ele>
        <time>2013-10-10T08:04:20Z</time>
      </trkpt>
      <trkpt lat="43.42243" lon="6.60539">
        <ele>197.39999389648</ele>
        <time>2013-10-10T08:04:21Z</time>
      </trkpt>
      <trkpt lat="43.42246" lon="6.60554">
        <ele>194.80000305176</ele>
        <time>2013-10-10T08:04:23Z</time>
      </trkpt>
      <trkpt lat="43.42231" lon="6.60587">
        <ele>193</ele>
        <time>2013-10-10T08:04:28Z</time>
      </trkpt>
      <trkpt lat="43.42203" lon="6.60612">
        <ele>195.39999389648</ele>
        <time>2013-10-10T08:04:32Z</time>
      </trkpt>
      <trkpt lat="43.42175" lon="6.60674">
        <ele>193</ele>
        <time>2013-10-10T08:04:38Z</time>
      </trkpt>
      <trkpt lat="43.42165" lon="6.60718">
        <ele>192.39999389648</ele>
        <time>2013-10-10T08:04:42Z</time>
      </trkpt>
      <trkpt lat="43.42178" lon="6.60744">
        <ele>191.60000610352</ele>
        <time>2013-10-10T08:04:46Z</time>
      </trkpt>
      <trkpt lat="43.42204" lon="6.60718">
        <ele>192.19999694824</ele>
        <time>2013-10-10T08:04:52Z</time>
      </trkpt>
      <trkpt lat="43.42223" lon="6.60686">
        <ele>190.39999389648</ele>
        <time>2013-10-10T08:04:57Z</time>
      </trkpt>
      <trkpt lat="43.42236" lon="6.60672">
        <ele>188.60000610352</ele>
        <time>2013-10-10T08:05:00Z</time>
      </trkpt>
      <trkpt lat="43.42252" lon="6.60661">
        <ele>187</ele>
        <time>2013-10-10T08:05:03Z</time>
      </trkpt>
      <trkpt lat="43.42279" lon="6.60642">
        <ele>183.80000305176</ele>
        <time>2013-10-10T08:05:08Z</time>
      </trkpt>
      <trkpt lat="43.42306" lon="6.6064">
        <ele>180</ele>
        <time>2013-10-10T08:05:12Z</time>
      </trkpt>
      <trkpt lat="43.42323" lon="6.60649">
        <ele>178.19999694824</ele>
        <time>2013-10-10T08:05:14Z</time>
      </trkpt>
      <trkpt lat="43.42346" lon="6.60667">
        <ele>173.60000610352</ele>
        <time>2013-10-10T08:05:17Z</time>
      </trkpt>
      <trkpt lat="43.42359" lon="6.60704">
        <ele>177.19999694824</ele>
        <time>2013-10-10T08:05:21Z</time>
      </trkpt>
      <trkpt lat="43.4239" lon="6.60737">
        <ele>178.39999389648</ele>
        <time>2013-10-10T08:05:27Z</time>
      </trkpt>
      <trkpt lat="43.42404" lon="6.60737">
        <ele>175.80000305176</ele>
        <time>2013-10-10T08:05:29Z</time>
      </trkpt>
      <trkpt lat="43.4242" lon="6.60736">
        <ele>172.19999694824</ele>
        <time>2013-10-10T08:05:31Z</time>
      </trkpt>
      <trkpt lat="43.42436" lon="6.60739">
        <ele>169</ele>
        <time>2013-10-10T08:05:33Z</time>
      </trkpt>
      <trkpt lat="43.42451" lon="6.60748">
        <ele>168</ele>
        <time>2013-10-10T08:05:35Z</time>
      </trkpt>
      <trkpt lat="43.42459" lon="6.60754">
        <ele>167.80000305176</ele>
        <time>2013-10-10T08:05:36Z</time>
      </trkpt>
      <trkpt lat="43.42466" lon="6.60759">
        <ele>167.60000610352</ele>
        <time>2013-10-10T08:05:37Z</time>
      </trkpt>
      <trkpt lat="43.4249" lon="6.60768">
        <ele>163.60000610352</ele>
        <time>2013-10-10T08:05:40Z</time>
      </trkpt>
      <trkpt lat="43.42505" lon="6.60772">
        <ele>160.60000610352</ele>
        <time>2013-10-10T08:05:42Z</time>
      </trkpt>
      <trkpt lat="43.42525" lon="6.6078">
        <ele>157.39999389648</ele>
        <time>2013-10-10T08:05:46Z</time>
      </trkpt>
      <trkpt lat="43.42532" lon="6.60785">
        <ele>156.19999694824</ele>
        <time>2013-10-10T08:05:58Z</time>
      </trkpt>
      <trkpt lat="43.42542" lon="6.60777">
        <ele>152.19999694824</ele>
        <time>2013-10-10T08:06:26Z</time>
      </trkpt>
      <trkpt lat="43.42549" lon="6.6077">
        <ele>149.19999694824</ele>
        <time>2013-10-10T08:06:38Z</time>
      </trkpt>
      <trkpt lat="43.4255" lon="6.60772">
        <ele>149.39999389648</ele>
        <time>2013-10-10T08:06:39Z</time>
      </trkpt>
      <trkpt lat="43.42557" lon="6.60788">
        <ele>149.60000610352</ele>
        <time>2013-10-10T08:06:50Z</time>
      </trkpt>
      <trkpt lat="43.42556" lon="6.60773">
        <ele>148</ele>
        <time>2013-10-10T08:06:53Z</time>
      </trkpt>
      <trkpt lat="43.42561" lon="6.60754">
        <ele>144.60000610352</ele>
        <time>2013-10-10T08:06:57Z</time>
      </trkpt>
      <trkpt lat="43.42562" lon="6.60745">
        <ele>143</ele>
        <time>2013-10-10T08:07:00Z</time>
      </trkpt>
      <trkpt lat="43.42573" lon="6.60754">
        <ele>142.19999694824</ele>
        <time>2013-10-10T08:07:07Z</time>
      </trkpt>
      <trkpt lat="43.42574" lon="6.60756">
        <ele>142.19999694824</ele>
        <time>2013-10-10T08:07:08Z</time>
      </trkpt>
      <trkpt lat="43.42576" lon="6.60759">
        <ele>142</ele>
        <time>2013-10-10T08:07:11Z</time>
      </trkpt>
      <trkpt lat="43.42578" lon="6.60776">
        <ele>142.60000610352</ele>
        <time>2013-10-10T08:07:15Z</time>
      </trkpt>
      <trkpt lat="43.42578" lon="6.60781">
        <ele>142.80000305176</ele>
        <time>2013-10-10T08:07:16Z</time>
      </trkpt>
      <trkpt lat="43.42579" lon="6.60799">
        <ele>143.60000610352</ele>
        <time>2013-10-10T08:07:19Z</time>
      </trkpt>
      <trkpt lat="43.42593" lon="6.60857">
        <ele>141</ele>
        <time>2013-10-10T08:07:31Z</time>
      </trkpt>
      <trkpt lat="43.42595" lon="6.60863">
        <ele>140.39999389648</ele>
        <time>2013-10-10T08:07:33Z</time>
      </trkpt>
      <trkpt lat="43.42601" lon="6.60842">
        <ele>138</ele>
        <time>2013-10-10T08:07:39Z</time>
      </trkpt>
      <trkpt lat="43.42599" lon="6.60794">
        <ele>136.60000610352</ele>
        <time>2013-10-10T08:07:51Z</time>
      </trkpt>
      <trkpt lat="43.42604" lon="6.60757">
        <ele>133.60000610352</ele>
        <time>2013-10-10T08:07:59Z</time>
      </trkpt>
      <trkpt lat="43.42609" lon="6.6074">
        <ele>130.80000305176</ele>
        <time>2013-10-10T08:08:03Z</time>
      </trkpt>
      <trkpt lat="43.42616" lon="6.6073">
        <ele>127.80000305176</ele>
        <time>2013-10-10T08:08:06Z</time>
      </trkpt>
      <trkpt lat="43.42619" lon="6.60728">
        <ele>126.80000305176</ele>
        <time>2013-10-10T08:08:07Z</time>
      </trkpt>
      <trkpt lat="43.42631" lon="6.60719">
        <ele>123.19999694824</ele>
        <time>2013-10-10T08:08:10Z</time>
      </trkpt>
      <trkpt lat="43.42641" lon="6.60713">
        <ele>120.59999847412</ele>
        <time>2013-10-10T08:08:12Z</time>
      </trkpt>
      <trkpt lat="43.42656" lon="6.60711">
        <ele>117.19999694824</ele>
        <time>2013-10-10T08:08:15Z</time>
      </trkpt>
      <trkpt lat="43.4266" lon="6.60731">
        <ele>116</ele>
        <time>2013-10-10T08:08:20Z</time>
      </trkpt>
      <trkpt lat="43.42651" lon="6.60771">
        <ele>119</ele>
        <time>2013-10-10T08:08:28Z</time>
      </trkpt>
      <trkpt lat="43.4265" lon="6.60778">
        <ele>119.19999694824</ele>
        <time>2013-10-10T08:08:29Z</time>
      </trkpt>
      <trkpt lat="43.42656" lon="6.60792">
        <ele>117.40000152588</ele>
        <time>2013-10-10T08:08:33Z</time>
      </trkpt>
      <trkpt lat="43.42659" lon="6.60794">
        <ele>116.59999847412</ele>
        <time>2013-10-10T08:08:34Z</time>
      </trkpt>
      <trkpt lat="43.42673" lon="6.60802">
        <ele>112.59999847412</ele>
        <time>2013-10-10T08:08:36Z</time>
      </trkpt>
      <trkpt lat="43.42689" lon="6.6082">
        <ele>109.19999694824</ele>
        <time>2013-10-10T08:08:40Z</time>
      </trkpt>
      <trkpt lat="43.4269" lon="6.60825">
        <ele>109</ele>
        <time>2013-10-10T08:08:41Z</time>
      </trkpt>
      <trkpt lat="43.4269" lon="6.6084">
        <ele>109.59999847412</ele>
        <time>2013-10-10T08:08:43Z</time>
      </trkpt>
      <trkpt lat="43.42689" lon="6.60853">
        <ele>110.59999847412</ele>
        <time>2013-10-10T08:08:45Z</time>
      </trkpt>
      <trkpt lat="43.42703" lon="6.60853">
        <ele>107.80000305176</ele>
        <time>2013-10-10T08:08:50Z</time>
      </trkpt>
      <trkpt lat="43.42707" lon="6.60848">
        <ele>106.80000305176</ele>
        <time>2013-10-10T08:08:51Z</time>
      </trkpt>
      <trkpt lat="43.42719" lon="6.60836">
        <ele>103.40000152588</ele>
        <time>2013-10-10T08:08:55Z</time>
      </trkpt>
      <trkpt lat="43.42731" lon="6.60825">
        <ele>100.59999847412</ele>
        <time>2013-10-10T08:08:59Z</time>
      </trkpt>
      <trkpt lat="43.42739" lon="6.60802">
        <ele>98.599998474121</ele>
        <time>2013-10-10T08:09:05Z</time>
      </trkpt>
      <trkpt lat="43.42738" lon="6.60792">
        <ele>98.599998474121</ele>
        <time>2013-10-10T08:09:08Z</time>
      </trkpt>
      <trkpt lat="43.42737" lon="6.60771">
        <ele>98.400001525879</ele>
        <time>2013-10-10T08:09:15Z</time>
      </trkpt>
      <trkpt lat="43.4275" lon="6.60753">
        <ele>95</ele>
        <time>2013-10-10T08:09:21Z</time>
      </trkpt>
      <trkpt lat="43.42763" lon="6.60747">
        <ele>92.400001525879</ele>
        <time>2013-10-10T08:09:27Z</time>
      </trkpt>
      <trkpt lat="43.42775" lon="6.60729">
        <ele>90.199996948242</ele>
        <time>2013-10-10T08:09:36Z</time>
      </trkpt>
      <trkpt lat="43.42777" lon="6.60726">
        <ele>90</ele>
        <time>2013-10-10T08:09:37Z</time>
      </trkpt>
      <trkpt lat="43.42788" lon="6.60708">
        <ele>88</ele>
        <time>2013-10-10T08:09:42Z</time>
      </trkpt>
      <trkpt lat="43.42807" lon="6.60699">
        <ele>84.199996948242</ele>
        <time>2013-10-10T08:09:46Z</time>
      </trkpt>
      <trkpt lat="43.42812" lon="6.60697">
        <ele>83.400001525879</ele>
        <time>2013-10-10T08:09:47Z</time>
      </trkpt>
      <trkpt lat="43.42829" lon="6.60694">
        <ele>80</ele>
        <time>2013-10-10T08:09:51Z</time>
      </trkpt>
      <trkpt lat="43.42833" lon="6.60693">
        <ele>79.199996948242</ele>
        <time>2013-10-10T08:09:52Z</time>
      </trkpt>
      <trkpt lat="43.42854" lon="6.6068">
        <ele>77.599998474121</ele>
        <time>2013-10-10T08:10:01Z</time>
      </trkpt>
      <trkpt lat="43.4286" lon="6.60673">
        <ele>77</ele>
        <time>2013-10-10T08:10:06Z</time>
      </trkpt>
      <trkpt lat="43.42889" lon="6.60679">
        <ele>74.800003051758</ele>
        <time>2013-10-10T08:10:14Z</time>
      </trkpt>
      <trkpt lat="43.42905" lon="6.60683">
        <ele>73.599998474121</ele>
        <time>2013-10-10T08:10:18Z</time>
      </trkpt>
      <trkpt lat="43.42942" lon="6.60683">
        <ele>71</ele>
        <time>2013-10-10T08:10:29Z</time>
      </trkpt>
      <trkpt lat="43.42954" lon="6.60695">
        <ele>70</ele>
        <time>2013-10-10T08:10:32Z</time>
      </trkpt>
      <trkpt lat="43.42975" lon="6.60714">
        <ele>68.599998474121</ele>
        <time>2013-10-10T08:10:37Z</time>
      </trkpt>
      <trkpt lat="43.42989" lon="6.60742">
        <ele>67.599998474121</ele>
        <time>2013-10-10T08:10:44Z</time>
      </trkpt>
      <trkpt lat="43.42983" lon="6.60771">
        <ele>69.400001525879</ele>
        <time>2013-10-10T08:10:49Z</time>
      </trkpt>
      <trkpt lat="43.42985" lon="6.60812">
        <ele>72.400001525879</ele>
        <time>2013-10-10T08:10:59Z</time>
      </trkpt>
      <trkpt lat="43.42995" lon="6.60853">
        <ele>75.199996948242</ele>
        <time>2013-10-10T08:11:15Z</time>
      </trkpt>
      <trkpt lat="43.43004" lon="6.60888">
        <ele>78.199996948242</ele>
        <time>2013-10-10T08:11:29Z</time>
      </trkpt>
      <trkpt lat="43.43013" lon="6.60921">
        <ele>81.400001525879</ele>
        <time>2013-10-10T08:11:40Z</time>
      </trkpt>
      <trkpt lat="43.4303" lon="6.60956">
        <ele>84.599998474121</ele>
        <time>2013-10-10T08:11:50Z</time>
      </trkpt>
      <trkpt lat="43.43048" lon="6.60998">
        <ele>87.199996948242</ele>
        <time>2013-10-10T08:12:03Z</time>
      </trkpt>
      <trkpt lat="43.43069" lon="6.61028">
        <ele>86.400001525879</ele>
        <time>2013-10-10T08:12:14Z</time>
      </trkpt>
      <trkpt lat="43.43078" lon="6.61059">
        <ele>86</ele>
        <time>2013-10-10T08:12:21Z</time>
      </trkpt>
      <trkpt lat="43.43073" lon="6.61082">
        <ele>87.800003051758</ele>
        <time>2013-10-10T08:12:25Z</time>
      </trkpt>
      <trkpt lat="43.43066" lon="6.611">
        <ele>90.199996948242</ele>
        <time>2013-10-10T08:12:28Z</time>
      </trkpt>
      <trkpt lat="43.43062" lon="6.61117">
        <ele>92</ele>
        <time>2013-10-10T08:12:31Z</time>
      </trkpt>
      <trkpt lat="43.43071" lon="6.61127">
        <ele>90.800003051758</ele>
        <time>2013-10-10T08:12:35Z</time>
      </trkpt>
      <trkpt lat="43.43098" lon="6.61139">
        <ele>87.800003051758</ele>
        <time>2013-10-10T08:12:43Z</time>
      </trkpt>
      <trkpt lat="43.43123" lon="6.61175">
        <ele>87.599998474121</ele>
        <time>2013-10-10T08:12:55Z</time>
      </trkpt>
      <trkpt lat="43.43132" lon="6.61228">
        <ele>89.599998474121</ele>
        <time>2013-10-10T08:13:07Z</time>
      </trkpt>
      <trkpt lat="43.43126" lon="6.61266">
        <ele>91.400001525879</ele>
        <time>2013-10-10T08:13:15Z</time>
      </trkpt>
      <trkpt lat="43.43104" lon="6.61313">
        <ele>94.199996948242</ele>
        <time>2013-10-10T08:13:27Z</time>
      </trkpt>
      <trkpt lat="43.43086" lon="6.61345">
        <ele>97.199996948242</ele>
        <time>2013-10-10T08:13:38Z</time>
      </trkpt>
      <trkpt lat="43.4307" lon="6.61357">
        <ele>100.40000152588</ele>
        <time>2013-10-10T08:13:46Z</time>
      </trkpt>
      <trkpt lat="43.43057" lon="6.61372">
        <ele>103.40000152588</ele>
        <time>2013-10-10T08:13:54Z</time>
      </trkpt>
      <trkpt lat="43.43049" lon="6.6141">
        <ele>104.80000305176</ele>
        <time>2013-10-10T08:14:08Z</time>
      </trkpt>
      <trkpt lat="43.4305" lon="6.61434">
        <ele>105</ele>
        <time>2013-10-10T08:14:17Z</time>
      </trkpt>
      <trkpt lat="43.43044" lon="6.61431">
        <ele>106.40000152588</ele>
        <time>2013-10-10T08:14:21Z</time>
      </trkpt>
      <trkpt lat="43.4303" lon="6.61413">
        <ele>109.40000152588</ele>
        <time>2013-10-10T08:14:31Z</time>
      </trkpt>
      <trkpt lat="43.43019" lon="6.61389">
        <ele>112.40000152588</ele>
        <time>2013-10-10T08:14:43Z</time>
      </trkpt>
      <trkpt lat="43.43014" lon="6.61356">
        <ele>113.59999847412</ele>
        <time>2013-10-10T08:14:56Z</time>
      </trkpt>
      <trkpt lat="43.43008" lon="6.61323">
        <ele>114.80000305176</ele>
        <time>2013-10-10T08:15:09Z</time>
      </trkpt>
      <trkpt lat="43.42996" lon="6.61308">
        <ele>117.80000305176</ele>
        <time>2013-10-10T08:15:21Z</time>
      </trkpt>
      <trkpt lat="43.42993" lon="6.61307">
        <ele>119</ele>
        <time>2013-10-10T08:15:24Z</time>
      </trkpt>
      <trkpt lat="43.42987" lon="6.61308">
        <ele>121.40000152588</ele>
        <time>2013-10-10T08:20:38Z</time>
      </trkpt>
      <trkpt lat="43.42986" lon="6.61309">
        <ele>121.59999847412</ele>
        <time>2013-10-10T08:20:39Z</time>
      </trkpt>
      <trkpt lat="43.42986" lon="6.61315">
        <ele>122</ele>
        <time>2013-10-10T08:20:42Z</time>
      </trkpt>
      <trkpt lat="43.42988" lon="6.61323">
        <ele>121.59999847412</ele>
        <time>2013-10-10T08:20:48Z</time>
      </trkpt>
      <trkpt lat="43.4299" lon="6.61348">
        <ele>120.80000305176</ele>
        <time>2013-10-10T08:21:00Z</time>
      </trkpt>
      <trkpt lat="43.42982" lon="6.61371">
        <ele>124.19999694824</ele>
        <time>2013-10-10T08:21:11Z</time>
      </trkpt>
      <trkpt lat="43.42978" lon="6.61388">
        <ele>126</ele>
        <time>2013-10-10T08:21:17Z</time>
      </trkpt>
      <trkpt lat="43.42974" lon="6.61414">
        <ele>127.59999847412</ele>
        <time>2013-10-10T08:21:30Z</time>
      </trkpt>
      <trkpt lat="43.42965" lon="6.61429">
        <ele>130.60000610352</ele>
        <time>2013-10-10T08:21:38Z</time>
      </trkpt>
      <trkpt lat="43.42931" lon="6.61462">
        <ele>141.60000610352</ele>
        <time>2013-10-10T08:22:39Z</time>
      </trkpt>
      <trkpt lat="43.4293" lon="6.61462">
        <ele>142</ele>
        <time>2013-10-10T08:22:41Z</time>
      </trkpt>
      <trkpt lat="43.4292" lon="6.61464">
        <ele>145</ele>
        <time>2013-10-10T08:22:53Z</time>
      </trkpt>
      <trkpt lat="43.4292" lon="6.61465">
        <ele>145.19999694824</ele>
        <time>2013-10-10T08:22:54Z</time>
      </trkpt>
      <trkpt lat="43.42916" lon="6.61469">
        <ele>146.19999694824</ele>
        <time>2013-10-10T08:22:58Z</time>
      </trkpt>
      <trkpt lat="43.42904" lon="6.61509">
        <ele>149.19999694824</ele>
        <time>2013-10-10T08:23:30Z</time>
      </trkpt>
      <trkpt lat="43.42902" lon="6.61512">
        <ele>150.39999389648</ele>
        <time>2013-10-10T08:23:34Z</time>
      </trkpt>
      <trkpt lat="43.42895" lon="6.61519">
        <ele>153.60000610352</ele>
        <time>2013-10-10T08:23:43Z</time>
      </trkpt>
      <trkpt lat="43.42889" lon="6.61526">
        <ele>156.80000305176</ele>
        <time>2013-10-10T08:23:51Z</time>
      </trkpt>
      <trkpt lat="43.42883" lon="6.61537">
        <ele>159.39999389648</ele>
        <time>2013-10-10T08:24:00Z</time>
      </trkpt>
      <trkpt lat="43.42881" lon="6.61555">
        <ele>160.39999389648</ele>
        <time>2013-10-10T08:24:16Z</time>
      </trkpt>
      <trkpt lat="43.4288" lon="6.61565">
        <ele>161</ele>
        <time>2013-10-10T08:24:24Z</time>
      </trkpt>
      <trkpt lat="43.42878" lon="6.61576">
        <ele>161.60000610352</ele>
        <time>2013-10-10T08:24:32Z</time>
      </trkpt>
      <trkpt lat="43.42877" lon="6.61585">
        <ele>162.19999694824</ele>
        <time>2013-10-10T08:24:40Z</time>
      </trkpt>
      <trkpt lat="43.42875" lon="6.61614">
        <ele>166</ele>
        <time>2013-10-10T08:25:08Z</time>
      </trkpt>
      <trkpt lat="43.42875" lon="6.61616">
        <ele>166</ele>
        <time>2013-10-10T08:25:10Z</time>
      </trkpt>
      <trkpt lat="43.42877" lon="6.61626">
        <ele>166.39999389648</ele>
        <time>2013-10-10T08:25:19Z</time>
      </trkpt>
      <trkpt lat="43.4288" lon="6.61641">
        <ele>167.39999389648</ele>
        <time>2013-10-10T08:25:33Z</time>
      </trkpt>
      <trkpt lat="43.42881" lon="6.6165">
        <ele>168.19999694824</ele>
        <time>2013-10-10T08:25:41Z</time>
      </trkpt>
      <trkpt lat="43.4288" lon="6.61669">
        <ele>170.39999389648</ele>
        <time>2013-10-10T08:25:58Z</time>
      </trkpt>
      <trkpt lat="43.42878" lon="6.61674">
        <ele>170.60000610352</ele>
        <time>2013-10-10T08:26:03Z</time>
      </trkpt>
      <trkpt lat="43.42868" lon="6.61687">
        <ele>171.39999389648</ele>
        <time>2013-10-10T08:26:17Z</time>
      </trkpt>
      <trkpt lat="43.42862" lon="6.61691">
        <ele>171.60000610352</ele>
        <time>2013-10-10T08:26:24Z</time>
      </trkpt>
      <trkpt lat="43.42853" lon="6.61686">
        <ele>172.39999389648</ele>
        <time>2013-10-10T08:26:34Z</time>
      </trkpt>
      <trkpt lat="43.42841" lon="6.61675">
        <ele>174.19999694824</ele>
        <time>2013-10-10T08:26:49Z</time>
      </trkpt>
      <trkpt lat="43.42839" lon="6.61674">
        <ele>174.39999389648</ele>
        <time>2013-10-10T08:26:51Z</time>
      </trkpt>
      <trkpt lat="43.42831" lon="6.6167">
        <ele>175.80000305176</ele>
        <time>2013-10-10T08:27:06Z</time>
      </trkpt>
      <trkpt lat="43.42822" lon="6.61661">
        <ele>177.80000305176</ele>
        <time>2013-10-10T08:27:19Z</time>
      </trkpt>
      <trkpt lat="43.42812" lon="6.61651">
        <ele>180.19999694824</ele>
        <time>2013-10-10T08:27:34Z</time>
      </trkpt>
      <trkpt lat="43.42806" lon="6.61634">
        <ele>183.19999694824</ele>
        <time>2013-10-10T08:27:54Z</time>
      </trkpt>
      <trkpt lat="43.42806" lon="6.61626">
        <ele>183.80000305176</ele>
        <time>2013-10-10T08:28:03Z</time>
      </trkpt>
      <trkpt lat="43.42805" lon="6.6161">
        <ele>185.60000610352</ele>
        <time>2013-10-10T08:28:18Z</time>
      </trkpt>
      <trkpt lat="43.42802" lon="6.61598">
        <ele>187.80000305176</ele>
        <time>2013-10-10T08:28:30Z</time>
      </trkpt>
      <trkpt lat="43.42799" lon="6.61583">
        <ele>190.39999389648</ele>
        <time>2013-10-10T08:28:45Z</time>
      </trkpt>
      <trkpt lat="43.42799" lon="6.61579">
        <ele>190.80000305176</ele>
        <time>2013-10-10T08:28:48Z</time>
      </trkpt>
      <trkpt lat="43.42798" lon="6.61575">
        <ele>191.39999389648</ele>
        <time>2013-10-10T08:28:52Z</time>
      </trkpt>
      <trkpt lat="43.42792" lon="6.61559">
        <ele>194.39999389648</ele>
        <time>2013-10-10T08:29:05Z</time>
      </trkpt>
      <trkpt lat="43.4279" lon="6.61554">
        <ele>195.60000610352</ele>
        <time>2013-10-10T08:29:10Z</time>
      </trkpt>
      <trkpt lat="43.42783" lon="6.61539">
        <ele>199.19999694824</ele>
        <time>2013-10-10T08:29:26Z</time>
      </trkpt>
      <trkpt lat="43.42783" lon="6.61538">
        <ele>199.39999389648</ele>
        <time>2013-10-10T08:29:27Z</time>
      </trkpt>
      <trkpt lat="43.42778" lon="6.61521">
        <ele>202.39999389648</ele>
        <time>2013-10-10T08:29:43Z</time>
      </trkpt>
      <trkpt lat="43.42777" lon="6.61514">
        <ele>203.19999694824</ele>
        <time>2013-10-10T08:29:49Z</time>
      </trkpt>
      <trkpt lat="43.42778" lon="6.61498">
        <ele>204.39999389648</ele>
        <time>2013-10-10T08:30:00Z</time>
      </trkpt>
      <trkpt lat="43.42774" lon="6.6148">
        <ele>206.39999389648</ele>
        <time>2013-10-10T08:30:12Z</time>
      </trkpt>
      <trkpt lat="43.42765" lon="6.6148">
        <ele>209.60000610352</ele>
        <time>2013-10-10T08:30:19Z</time>
      </trkpt>
      <trkpt lat="43.42757" lon="6.61482">
        <ele>212.60000610352</ele>
        <time>2013-10-10T08:30:26Z</time>
      </trkpt>
      <trkpt lat="43.42744" lon="6.61485">
        <ele>215.60000610352</ele>
        <time>2013-10-10T08:30:35Z</time>
      </trkpt>
      <trkpt lat="43.42718" lon="6.61497">
        <ele>218.39999389648</ele>
        <time>2013-10-10T08:30:47Z</time>
      </trkpt>
      <trkpt lat="43.42685" lon="6.61514">
        <ele>221.19999694824</ele>
        <time>2013-10-10T08:31:00Z</time>
      </trkpt>
      <trkpt lat="43.42665" lon="6.615">
        <ele>224.19999694824</ele>
        <time>2013-10-10T08:31:10Z</time>
      </trkpt>
      <trkpt lat="43.42651" lon="6.61474">
        <ele>224.80000305176</ele>
        <time>2013-10-10T08:31:22Z</time>
      </trkpt>
      <trkpt lat="43.42633" lon="6.61446">
        <ele>225.19999694824</ele>
        <time>2013-10-10T08:31:36Z</time>
      </trkpt>
      <trkpt lat="43.42606" lon="6.61417">
        <ele>225.80000305176</ele>
        <time>2013-10-10T08:31:52Z</time>
      </trkpt>
      <trkpt lat="43.42563" lon="6.61408">
        <ele>228.60000610352</ele>
        <time>2013-10-10T08:32:08Z</time>
      </trkpt>
      <trkpt lat="43.42542" lon="6.61418">
        <ele>231.60000610352</ele>
        <time>2013-10-10T08:32:13Z</time>
      </trkpt>
      <trkpt lat="43.42527" lon="6.61426">
        <ele>233.39999389648</ele>
        <time>2013-10-10T08:32:17Z</time>
      </trkpt>
      <trkpt lat="43.42502" lon="6.61415">
        <ele>234.60000610352</ele>
        <time>2013-10-10T08:32:26Z</time>
      </trkpt>
      <trkpt lat="43.42482" lon="6.61398">
        <ele>237.39999389648</ele>
        <time>2013-10-10T08:32:36Z</time>
      </trkpt>
      <trkpt lat="43.42462" lon="6.61375">
        <ele>239.39999389648</ele>
        <time>2013-10-10T08:32:47Z</time>
      </trkpt>
      <trkpt lat="43.4244" lon="6.61338">
        <ele>239.19999694824</ele>
        <time>2013-10-10T08:33:02Z</time>
      </trkpt>
      <trkpt lat="43.4241" lon="6.61308">
        <ele>241.80000305176</ele>
        <time>2013-10-10T08:33:13Z</time>
      </trkpt>
      <trkpt lat="43.42396" lon="6.61265">
        <ele>240.19999694824</ele>
        <time>2013-10-10T08:33:24Z</time>
      </trkpt>
      <trkpt lat="43.4239" lon="6.61246">
        <ele>239.39999389648</ele>
        <time>2013-10-10T08:33:29Z</time>
      </trkpt>
      <trkpt lat="43.42352" lon="6.61186">
        <ele>239.39999389648</ele>
        <time>2013-10-10T08:33:42Z</time>
      </trkpt>
      <trkpt lat="43.42313" lon="6.61128">
        <ele>239</ele>
        <time>2013-10-10T08:33:55Z</time>
      </trkpt>
      <trkpt lat="43.42307" lon="6.61119">
        <ele>238.60000610352</ele>
        <time>2013-10-10T08:33:57Z</time>
      </trkpt>
      <trkpt lat="43.42294" lon="6.61105">
        <ele>238.19999694824</ele>
        <time>2013-10-10T08:34:01Z</time>
      </trkpt>
      <trkpt lat="43.4228" lon="6.61062">
        <ele>235</ele>
        <time>2013-10-10T08:34:08Z</time>
      </trkpt>
      <trkpt lat="43.42281" lon="6.6105">
        <ele>233.80000305176</ele>
        <time>2013-10-10T08:34:10Z</time>
      </trkpt>
      <trkpt lat="43.42286" lon="6.61031">
        <ele>231.80000305176</ele>
        <time>2013-10-10T08:34:13Z</time>
      </trkpt>
      <trkpt lat="43.42297" lon="6.61001">
        <ele>228.80000305176</ele>
        <time>2013-10-10T08:34:17Z</time>
      </trkpt>
      <trkpt lat="43.42316" lon="6.60955">
        <ele>225.39999389648</ele>
        <time>2013-10-10T08:34:23Z</time>
      </trkpt>
      <trkpt lat="43.42321" lon="6.60947">
        <ele>224.80000305176</ele>
        <time>2013-10-10T08:34:24Z</time>
      </trkpt>
      <trkpt lat="43.42342" lon="6.60923">
        <ele>221.80000305176</ele>
        <time>2013-10-10T08:34:28Z</time>
      </trkpt>
      <trkpt lat="43.42353" lon="6.60904">
        <ele>217.80000305176</ele>
        <time>2013-10-10T08:34:31Z</time>
      </trkpt>
      <trkpt lat="43.42356" lon="6.60898">
        <ele>216.80000305176</ele>
        <time>2013-10-10T08:34:32Z</time>
      </trkpt>
      <trkpt lat="43.4236" lon="6.60882">
        <ele>214.19999694824</ele>
        <time>2013-10-10T08:34:35Z</time>
      </trkpt>
      <trkpt lat="43.4236" lon="6.60859">
        <ele>211.19999694824</ele>
        <time>2013-10-10T08:34:38Z</time>
      </trkpt>
      <trkpt lat="43.4236" lon="6.60849">
        <ele>210</ele>
        <time>2013-10-10T08:34:40Z</time>
      </trkpt>
      <trkpt lat="43.42357" lon="6.60845">
        <ele>209.80000305176</ele>
        <time>2013-10-10T08:34:41Z</time>
      </trkpt>
      <trkpt lat="43.42348" lon="6.60841">
        <ele>210.39999389648</ele>
        <time>2013-10-10T08:34:44Z</time>
      </trkpt>
      <trkpt lat="43.42319" lon="6.60836">
        <ele>210.80000305176</ele>
        <time>2013-10-10T08:34:48Z</time>
      </trkpt>
      <trkpt lat="43.42307" lon="6.60826">
        <ele>208.39999389648</ele>
        <time>2013-10-10T08:34:50Z</time>
      </trkpt>
      <trkpt lat="43.42291" lon="6.60809">
        <ele>204.80000305176</ele>
        <time>2013-10-10T08:34:53Z</time>
      </trkpt>
      <trkpt lat="43.42276" lon="6.60789">
        <ele>201.19999694824</ele>
        <time>2013-10-10T08:34:56Z</time>
      </trkpt>
      <trkpt lat="43.42256" lon="6.60767">
        <ele>198.19999694824</ele>
        <time>2013-10-10T08:35:00Z</time>
      </trkpt>
      <trkpt lat="43.42252" lon="6.60764">
        <ele>198</ele>
        <time>2013-10-10T08:35:01Z</time>
      </trkpt>
      <trkpt lat="43.42215" lon="6.60785">
        <ele>198.39999389648</ele>
        <time>2013-10-10T08:35:08Z</time>
      </trkpt>
      <trkpt lat="43.4221" lon="6.60791">
        <ele>198.60000610352</ele>
        <time>2013-10-10T08:35:09Z</time>
      </trkpt>
      <trkpt lat="43.42185" lon="6.60792">
        <ele>196.80000305176</ele>
        <time>2013-10-10T08:35:13Z</time>
      </trkpt>
      <trkpt lat="43.4218" lon="6.60788">
        <ele>196</ele>
        <time>2013-10-10T08:35:14Z</time>
      </trkpt>
      <trkpt lat="43.42171" lon="6.60762">
        <ele>192.39999389648</ele>
        <time>2013-10-10T08:35:18Z</time>
      </trkpt>
      <trkpt lat="43.42153" lon="6.60772">
        <ele>194.80000305176</ele>
        <time>2013-10-10T08:35:23Z</time>
      </trkpt>
      <trkpt lat="43.42136" lon="6.60798">
        <ele>197.80000305176</ele>
        <time>2013-10-10T08:35:28Z</time>
      </trkpt>
      <trkpt lat="43.42134" lon="6.60803">
        <ele>198</ele>
        <time>2013-10-10T08:35:29Z</time>
      </trkpt>
      <trkpt lat="43.42109" lon="6.6086">
        <ele>201</ele>
        <time>2013-10-10T08:35:41Z</time>
      </trkpt>
      <trkpt lat="43.42072" lon="6.60906">
        <ele>201.60000610352</ele>
        <time>2013-10-10T08:35:55Z</time>
      </trkpt>
      <trkpt lat="43.42043" lon="6.60923">
        <ele>202.60000610352</ele>
        <time>2013-10-10T08:36:06Z</time>
      </trkpt>
      <trkpt lat="43.42014" lon="6.60938">
        <ele>203.60000610352</ele>
        <time>2013-10-10T08:36:17Z</time>
      </trkpt>
      <trkpt lat="43.42003" lon="6.6095">
        <ele>204.39999389648</ele>
        <time>2013-10-10T08:36:23Z</time>
      </trkpt>
      <trkpt lat="43.42003" lon="6.60966">
        <ele>205.60000610352</ele>
        <time>2013-10-10T08:36:32Z</time>
      </trkpt>
      <trkpt lat="43.42003" lon="6.6097">
        <ele>206</ele>
        <time>2013-10-10T08:36:36Z</time>
      </trkpt>
      <trkpt lat="43.42001" lon="6.60986">
        <ele>207</ele>
        <time>2013-10-10T08:36:51Z</time>
      </trkpt>
      <trkpt lat="43.41999" lon="6.61006">
        <ele>208.60000610352</ele>
        <time>2013-10-10T08:37:06Z</time>
      </trkpt>
      <trkpt lat="43.41993" lon="6.61028">
        <ele>211</ele>
        <time>2013-10-10T08:37:22Z</time>
      </trkpt>
      <trkpt lat="43.41988" lon="6.61044">
        <ele>213</ele>
        <time>2013-10-10T08:37:34Z</time>
      </trkpt>
      <trkpt lat="43.41984" lon="6.61066">
        <ele>215.19999694824</ele>
        <time>2013-10-10T08:37:48Z</time>
      </trkpt>
      <trkpt lat="43.41984" lon="6.61068">
        <ele>215.39999389648</ele>
        <time>2013-10-10T08:37:49Z</time>
      </trkpt>
      <trkpt lat="43.41987" lon="6.61098">
        <ele>217.80000305176</ele>
        <time>2013-10-10T08:37:59Z</time>
      </trkpt>
      <trkpt lat="43.41987" lon="6.611">
        <ele>218</ele>
        <time>2013-10-10T08:38:00Z</time>
      </trkpt>
      <trkpt lat="43.41979" lon="6.61115">
        <ele>219.39999389648</ele>
        <time>2013-10-10T08:38:08Z</time>
      </trkpt>
      <trkpt lat="43.41971" lon="6.61125">
        <ele>220.19999694824</ele>
        <time>2013-10-10T08:38:18Z</time>
      </trkpt>
      <trkpt lat="43.41963" lon="6.61134">
        <ele>221</ele>
        <time>2013-10-10T08:38:30Z</time>
      </trkpt>
      <trkpt lat="43.41953" lon="6.61142">
        <ele>221.60000610352</ele>
        <time>2013-10-10T08:38:40Z</time>
      </trkpt>
      <trkpt lat="43.41951" lon="6.61142">
        <ele>221.80000305176</ele>
        <time>2013-10-10T08:38:42Z</time>
      </trkpt>
      <trkpt lat="43.41946" lon="6.61147">
        <ele>222</ele>
        <time>2013-10-10T08:38:46Z</time>
      </trkpt>
      <trkpt lat="43.41928" lon="6.61157">
        <ele>222.60000610352</ele>
        <time>2013-10-10T08:38:57Z</time>
      </trkpt>
      <trkpt lat="43.4191" lon="6.61158">
        <ele>223.19999694824</ele>
        <time>2013-10-10T08:39:07Z</time>
      </trkpt>
      <trkpt lat="43.41905" lon="6.61161">
        <ele>223.39999389648</ele>
        <time>2013-10-10T08:39:10Z</time>
      </trkpt>
      <trkpt lat="43.41902" lon="6.61166">
        <ele>223.60000610352</ele>
        <time>2013-10-10T08:39:14Z</time>
      </trkpt>
      <trkpt lat="43.419" lon="6.6117">
        <ele>224</ele>
        <time>2013-10-10T08:39:18Z</time>
      </trkpt>
      <trkpt lat="43.41892" lon="6.61175">
        <ele>225</ele>
        <time>2013-10-10T08:39:25Z</time>
      </trkpt>
      <trkpt lat="43.41884" lon="6.61179">
        <ele>225.80000305176</ele>
        <time>2013-10-10T08:39:34Z</time>
      </trkpt>
      <trkpt lat="43.41874" lon="6.61186">
        <ele>226.80000305176</ele>
        <time>2013-10-10T08:39:44Z</time>
      </trkpt>
      <trkpt lat="43.41855" lon="6.61204">
        <ele>228.39999389648</ele>
        <time>2013-10-10T08:39:54Z</time>
      </trkpt>
      <trkpt lat="43.41826" lon="6.6122">
        <ele>229</ele>
        <time>2013-10-10T08:40:07Z</time>
      </trkpt>
      <trkpt lat="43.41806" lon="6.61231">
        <ele>229.80000305176</ele>
        <time>2013-10-10T08:40:15Z</time>
      </trkpt>
      <trkpt lat="43.41803" lon="6.61234">
        <ele>229.80000305176</ele>
        <time>2013-10-10T08:40:17Z</time>
      </trkpt>
      <trkpt lat="43.41781" lon="6.61234">
        <ele>230.39999389648</ele>
        <time>2013-10-10T08:40:27Z</time>
      </trkpt>
      <trkpt lat="43.41768" lon="6.61237">
        <ele>230.60000610352</ele>
        <time>2013-10-10T08:40:47Z</time>
      </trkpt>
      <trkpt lat="43.41767" lon="6.61237">
        <ele>230.60000610352</ele>
        <time>2013-10-10T08:40:48Z</time>
      </trkpt>
      <trkpt lat="43.41757" lon="6.61244">
        <ele>230.80000305176</ele>
        <time>2013-10-10T08:40:59Z</time>
      </trkpt>
      <trkpt lat="43.41744" lon="6.6125">
        <ele>231.39999389648</ele>
        <time>2013-10-10T08:41:10Z</time>
      </trkpt>
      <trkpt lat="43.41738" lon="6.61251">
        <ele>231.80000305176</ele>
        <time>2013-10-10T08:41:13Z</time>
      </trkpt>
      <trkpt lat="43.41726" lon="6.61251">
        <ele>232.80000305176</ele>
        <time>2013-10-10T08:41:18Z</time>
      </trkpt>
      <trkpt lat="43.41711" lon="6.61248">
        <ele>233.60000610352</ele>
        <time>2013-10-10T08:41:25Z</time>
      </trkpt>
      <trkpt lat="43.41713" lon="6.61238">
        <ele>233.39999389648</ele>
        <time>2013-10-10T08:41:29Z</time>
      </trkpt>
      <trkpt lat="43.41727" lon="6.61196">
        <ele>232.19999694824</ele>
        <time>2013-10-10T08:41:39Z</time>
      </trkpt>
      <trkpt lat="43.41724" lon="6.61154">
        <ele>234.39999389648</ele>
        <time>2013-10-10T08:41:49Z</time>
      </trkpt>
      <trkpt lat="43.41731" lon="6.61142">
        <ele>236.19999694824</ele>
        <time>2013-10-10T08:41:55Z</time>
      </trkpt>
      <trkpt lat="43.41734" lon="6.61136">
        <ele>237.39999389648</ele>
        <time>2013-10-10T08:41:58Z</time>
      </trkpt>
      <trkpt lat="43.41728" lon="6.61126">
        <ele>239.19999694824</ele>
        <time>2013-10-10T08:42:05Z</time>
      </trkpt>
      <trkpt lat="43.41711" lon="6.61126">
        <ele>239.60000610352</ele>
        <time>2013-10-10T08:42:17Z</time>
      </trkpt>
      <trkpt lat="43.41694" lon="6.61122">
        <ele>240.60000610352</ele>
        <time>2013-10-10T08:42:28Z</time>
      </trkpt>
      <trkpt lat="43.41681" lon="6.61115">
        <ele>242.19999694824</ele>
        <time>2013-10-10T08:42:37Z</time>
      </trkpt>
      <trkpt lat="43.41672" lon="6.61094">
        <ele>245.39999389648</ele>
        <time>2013-10-10T08:42:47Z</time>
      </trkpt>
      <trkpt lat="43.41666" lon="6.61074">
        <ele>248.39999389648</ele>
        <time>2013-10-10T08:42:56Z</time>
      </trkpt>
      <trkpt lat="43.41665" lon="6.61072">
        <ele>248.80000305176</ele>
        <time>2013-10-10T08:42:57Z</time>
      </trkpt>
      <trkpt lat="43.41648" lon="6.61065">
        <ele>250.19999694824</ele>
        <time>2013-10-10T08:43:07Z</time>
      </trkpt>
      <trkpt lat="43.41632" lon="6.61053">
        <ele>252.19999694824</ele>
        <time>2013-10-10T08:43:18Z</time>
      </trkpt>
      <trkpt lat="43.41629" lon="6.6105">
        <ele>252.60000610352</ele>
        <time>2013-10-10T08:43:20Z</time>
      </trkpt>
      <trkpt lat="43.41614" lon="6.61035">
        <ele>255.39999389648</ele>
        <time>2013-10-10T08:43:33Z</time>
      </trkpt>
      <trkpt lat="43.41606" lon="6.61017">
        <ele>258.60000610352</ele>
        <time>2013-10-10T08:43:44Z</time>
      </trkpt>
      <trkpt lat="43.41601" lon="6.61008">
        <ele>260.20001220703</ele>
        <time>2013-10-10T08:43:50Z</time>
      </trkpt>
      <trkpt lat="43.41598" lon="6.61006">
        <ele>260.60000610352</ele>
        <time>2013-10-10T08:43:52Z</time>
      </trkpt>
      <trkpt lat="43.4159" lon="6.61019">
        <ele>258.60000610352</ele>
        <time>2013-10-10T08:44:02Z</time>
      </trkpt>
      <trkpt lat="43.41588" lon="6.61027">
        <ele>257.20001220703</ele>
        <time>2013-10-10T08:44:06Z</time>
      </trkpt>
      <trkpt lat="43.41575" lon="6.61046">
        <ele>255</ele>
        <time>2013-10-10T08:44:17Z</time>
      </trkpt>
      <trkpt lat="43.41566" lon="6.61045">
        <ele>256.20001220703</ele>
        <time>2013-10-10T08:44:22Z</time>
      </trkpt>
      <trkpt lat="43.41551" lon="6.61039">
        <ele>259.20001220703</ele>
        <time>2013-10-10T08:44:31Z</time>
      </trkpt>
      <trkpt lat="43.41526" lon="6.61038">
        <ele>262.20001220703</ele>
        <time>2013-10-10T08:44:44Z</time>
      </trkpt>
      <trkpt lat="43.41514" lon="6.61028">
        <ele>265.39999389648</ele>
        <time>2013-10-10T08:44:51Z</time>
      </trkpt>
      <trkpt lat="43.41502" lon="6.61021">
        <ele>268.39999389648</ele>
        <time>2013-10-10T08:44:58Z</time>
      </trkpt>
      <trkpt lat="43.41478" lon="6.61025">
        <ele>269</ele>
        <time>2013-10-10T08:45:11Z</time>
      </trkpt>
      <trkpt lat="43.41453" lon="6.61023">
        <ele>270.79998779297</ele>
        <time>2013-10-10T08:45:22Z</time>
      </trkpt>
      <trkpt lat="43.41426" lon="6.61013">
        <ele>273.79998779297</ele>
        <time>2013-10-10T08:45:34Z</time>
      </trkpt>
      <trkpt lat="43.41382" lon="6.61">
        <ele>275.60000610352</ele>
        <time>2013-10-10T08:45:52Z</time>
      </trkpt>
      <trkpt lat="43.41344" lon="6.60981">
        <ele>278.20001220703</ele>
        <time>2013-10-10T08:46:06Z</time>
      </trkpt>
      <trkpt lat="43.41323" lon="6.60968">
        <ele>281.39999389648</ele>
        <time>2013-10-10T08:46:14Z</time>
      </trkpt>
      <trkpt lat="43.41308" lon="6.60951">
        <ele>284.60000610352</ele>
        <time>2013-10-10T08:46:22Z</time>
      </trkpt>
      <trkpt lat="43.41283" lon="6.60911">
        <ele>287.39999389648</ele>
        <time>2013-10-10T08:46:39Z</time>
      </trkpt>
      <trkpt lat="43.41262" lon="6.60882">
        <ele>290.39999389648</ele>
        <time>2013-10-10T08:46:53Z</time>
      </trkpt>
      <trkpt lat="43.41234" lon="6.60875">
        <ele>292.79998779297</ele>
        <time>2013-10-10T08:47:10Z</time>
      </trkpt>
      <trkpt lat="43.41215" lon="6.60862">
        <ele>295.79998779297</ele>
        <time>2013-10-10T08:47:23Z</time>
      </trkpt>
      <trkpt lat="43.41189" lon="6.6084">
        <ele>298</ele>
        <time>2013-10-10T08:47:42Z</time>
      </trkpt>
      <trkpt lat="43.41165" lon="6.60824">
        <ele>301.20001220703</ele>
        <time>2013-10-10T08:48:00Z</time>
      </trkpt>
      <trkpt lat="43.41157" lon="6.60822">
        <ele>303.20001220703</ele>
        <time>2013-10-10T08:48:06Z</time>
      </trkpt>
      <trkpt lat="43.41154" lon="6.60837">
        <ele>302.20001220703</ele>
        <time>2013-10-10T08:48:13Z</time>
      </trkpt>
      <trkpt lat="43.41166" lon="6.60876">
        <ele>302.60000610352</ele>
        <time>2013-10-10T08:48:30Z</time>
      </trkpt>
      <trkpt lat="43.41185" lon="6.60909">
        <ele>301.20001220703</ele>
        <time>2013-10-10T08:48:45Z</time>
      </trkpt>
      <trkpt lat="43.4121" lon="6.60948">
        <ele>299.20001220703</ele>
        <time>2013-10-10T08:49:01Z</time>
      </trkpt>
      <trkpt lat="43.41229" lon="6.60988">
        <ele>299</ele>
        <time>2013-10-10T08:49:15Z</time>
      </trkpt>
      <trkpt lat="43.41246" lon="6.61031">
        <ele>298.60000610352</ele>
        <time>2013-10-10T08:49:29Z</time>
      </trkpt>
      <trkpt lat="43.41268" lon="6.61081">
        <ele>298.60000610352</ele>
        <time>2013-10-10T08:49:45Z</time>
      </trkpt>
      <trkpt lat="43.41268" lon="6.61087">
        <ele>298.39999389648</ele>
        <time>2013-10-10T08:49:47Z</time>
      </trkpt>
      <trkpt lat="43.41252" lon="6.61093">
        <ele>301</ele>
        <time>2013-10-10T08:49:55Z</time>
      </trkpt>
      <trkpt lat="43.41248" lon="6.61091">
        <ele>301.79998779297</ele>
        <time>2013-10-10T08:49:57Z</time>
      </trkpt>
      <trkpt lat="43.41217" lon="6.61075">
        <ele>304.39999389648</ele>
        <time>2013-10-10T08:50:14Z</time>
      </trkpt>
      <trkpt lat="43.41181" lon="6.61073">
        <ele>307</ele>
        <time>2013-10-10T08:50:33Z</time>
      </trkpt>
      <trkpt lat="43.41145" lon="6.61064">
        <ele>307.79998779297</ele>
        <time>2013-10-10T08:50:50Z</time>
      </trkpt>
      <trkpt lat="43.41103" lon="6.61044">
        <ele>309.20001220703</ele>
        <time>2013-10-10T08:51:09Z</time>
      </trkpt>
      <trkpt lat="43.41087" lon="6.61024">
        <ele>312.20001220703</ele>
        <time>2013-10-10T08:51:18Z</time>
      </trkpt>
      <trkpt lat="43.41071" lon="6.60971">
        <ele>313.60000610352</ele>
        <time>2013-10-10T08:51:33Z</time>
      </trkpt>
      <trkpt lat="43.41063" lon="6.60908">
        <ele>314.20001220703</ele>
        <time>2013-10-10T08:51:51Z</time>
      </trkpt>
      <trkpt lat="43.41046" lon="6.6086">
        <ele>314.79998779297</ele>
        <time>2013-10-10T08:52:06Z</time>
      </trkpt>
      <trkpt lat="43.41031" lon="6.60828">
        <ele>317.79998779297</ele>
        <time>2013-10-10T08:52:16Z</time>
      </trkpt>
      <trkpt lat="43.41011" lon="6.60805">
        <ele>321</ele>
        <time>2013-10-10T08:52:25Z</time>
      </trkpt>
      <trkpt lat="43.4098" lon="6.6079">
        <ele>323.39999389648</ele>
        <time>2013-10-10T08:52:37Z</time>
      </trkpt>
      <trkpt lat="43.4096" lon="6.60776">
        <ele>326.60000610352</ele>
        <time>2013-10-10T08:52:45Z</time>
      </trkpt>
      <trkpt lat="43.40951" lon="6.60765">
        <ele>329.60000610352</ele>
        <time>2013-10-10T08:52:49Z</time>
      </trkpt>
      <trkpt lat="43.40918" lon="6.6077">
        <ele>328.20001220703</ele>
        <time>2013-10-10T08:52:59Z</time>
      </trkpt>
      <trkpt lat="43.40905" lon="6.60779">
        <ele>325</ele>
        <time>2013-10-10T08:53:02Z</time>
      </trkpt>
      <trkpt lat="43.40896" lon="6.60785">
        <ele>323.20001220703</ele>
        <time>2013-10-10T08:53:04Z</time>
      </trkpt>
      <trkpt lat="43.40859" lon="6.60794">
        <ele>320.60000610352</ele>
        <time>2013-10-10T08:53:12Z</time>
      </trkpt>
      <trkpt lat="43.4084" lon="6.60785">
        <ele>323.60000610352</ele>
        <time>2013-10-10T08:53:16Z</time>
      </trkpt>
      <trkpt lat="43.40836" lon="6.60781">
        <ele>325</ele>
        <time>2013-10-10T08:53:17Z</time>
      </trkpt>
      <trkpt lat="43.40824" lon="6.6077">
        <ele>328.20001220703</ele>
        <time>2013-10-10T08:53:20Z</time>
      </trkpt>
      <trkpt lat="43.4082" lon="6.60766">
        <ele>329</ele>
        <time>2013-10-10T08:53:21Z</time>
      </trkpt>
      <trkpt lat="43.4081" lon="6.60752">
        <ele>331.79998779297</ele>
        <time>2013-10-10T08:53:24Z</time>
      </trkpt>
      <trkpt lat="43.40798" lon="6.60748">
        <ele>331.79998779297</ele>
        <time>2013-10-10T08:53:27Z</time>
      </trkpt>
      <trkpt lat="43.40776" lon="6.60728">
        <ele>334.79998779297</ele>
        <time>2013-10-10T08:53:33Z</time>
      </trkpt>
      <trkpt lat="43.40773" lon="6.60724">
        <ele>335.79998779297</ele>
        <time>2013-10-10T08:53:34Z</time>
      </trkpt>
      <trkpt lat="43.40756" lon="6.60711">
        <ele>337</ele>
        <time>2013-10-10T08:53:38Z</time>
      </trkpt>
      <trkpt lat="43.40743" lon="6.60705">
        <ele>338.39999389648</ele>
        <time>2013-10-10T08:53:41Z</time>
      </trkpt>
      <trkpt lat="43.40723" lon="6.60699">
        <ele>341.39999389648</ele>
        <time>2013-10-10T08:53:46Z</time>
      </trkpt>
      <trkpt lat="43.40686" lon="6.60687">
        <ele>344.39999389648</ele>
        <time>2013-10-10T08:53:58Z</time>
      </trkpt>
      <trkpt lat="43.4065" lon="6.60658">
        <ele>348</ele>
        <time>2013-10-10T08:54:14Z</time>
      </trkpt>
      <trkpt lat="43.40634" lon="6.60659">
        <ele>349.20001220703</ele>
        <time>2013-10-10T08:54:20Z</time>
      </trkpt>
      <trkpt lat="43.4063" lon="6.6069">
        <ele>350.79998779297</ele>
        <time>2013-10-10T08:54:30Z</time>
      </trkpt>
      <trkpt lat="43.4065" lon="6.60711">
        <ele>349.39999389648</ele>
        <time>2013-10-10T08:54:35Z</time>
      </trkpt>
      <trkpt lat="43.40673" lon="6.60732">
        <ele>345.79998779297</ele>
        <time>2013-10-10T08:54:40Z</time>
      </trkpt>
      <trkpt lat="43.40689" lon="6.60749">
        <ele>342</ele>
        <time>2013-10-10T08:54:44Z</time>
      </trkpt>
      <trkpt lat="43.40707" lon="6.60766">
        <ele>338.39999389648</ele>
        <time>2013-10-10T08:54:48Z</time>
      </trkpt>
      <trkpt lat="43.40717" lon="6.60774">
        <ele>336</ele>
        <time>2013-10-10T08:54:50Z</time>
      </trkpt>
      <trkpt lat="43.40727" lon="6.6079">
        <ele>333</ele>
        <time>2013-10-10T08:54:53Z</time>
      </trkpt>
      <trkpt lat="43.40732" lon="6.60802">
        <ele>331.79998779297</ele>
        <time>2013-10-10T08:54:55Z</time>
      </trkpt>
      <trkpt lat="43.40741" lon="6.60845">
        <ele>329.20001220703</ele>
        <time>2013-10-10T08:55:02Z</time>
      </trkpt>
      <trkpt lat="43.40747" lon="6.60901">
        <ele>332.20001220703</ele>
        <time>2013-10-10T08:55:13Z</time>
      </trkpt>
      <trkpt lat="43.40762" lon="6.60932">
        <ele>329</ele>
        <time>2013-10-10T08:55:20Z</time>
      </trkpt>
      <trkpt lat="43.40773" lon="6.60947">
        <ele>326</ele>
        <time>2013-10-10T08:55:24Z</time>
      </trkpt>
      <trkpt lat="43.40781" lon="6.6097">
        <ele>324.20001220703</ele>
        <time>2013-10-10T08:55:29Z</time>
      </trkpt>
      <trkpt lat="43.40764" lon="6.60981">
        <ele>327</ele>
        <time>2013-10-10T08:55:35Z</time>
      </trkpt>
      <trkpt lat="43.40748" lon="6.60977">
        <ele>330</ele>
        <time>2013-10-10T08:55:39Z</time>
      </trkpt>
      <trkpt lat="43.40736" lon="6.60972">
        <ele>334</ele>
        <time>2013-10-10T08:55:42Z</time>
      </trkpt>
      <trkpt lat="43.40725" lon="6.60967">
        <ele>337.79998779297</ele>
        <time>2013-10-10T08:55:45Z</time>
      </trkpt>
      <trkpt lat="43.40714" lon="6.60963">
        <ele>341.60000610352</ele>
        <time>2013-10-10T08:55:48Z</time>
      </trkpt>
      <trkpt lat="43.40706" lon="6.60974">
        <ele>343.20001220703</ele>
        <time>2013-10-10T08:55:51Z</time>
      </trkpt>
      <trkpt lat="43.40708" lon="6.60987">
        <ele>342</ele>
        <time>2013-10-10T08:55:54Z</time>
      </trkpt>
      <trkpt lat="43.40712" lon="6.61014">
        <ele>339</ele>
        <time>2013-10-10T08:56:00Z</time>
      </trkpt>
      <trkpt lat="43.407" lon="6.61031">
        <ele>342.39999389648</ele>
        <time>2013-10-10T08:56:05Z</time>
      </trkpt>
      <trkpt lat="43.40691" lon="6.61072">
        <ele>344.20001220703</ele>
        <time>2013-10-10T08:56:15Z</time>
      </trkpt>
      <trkpt lat="43.40698" lon="6.61114">
        <ele>341</ele>
        <time>2013-10-10T08:56:25Z</time>
      </trkpt>
      <trkpt lat="43.40706" lon="6.61133">
        <ele>338</ele>
        <time>2013-10-10T08:56:30Z</time>
      </trkpt>
      <trkpt lat="43.40715" lon="6.61164">
        <ele>335</ele>
        <time>2013-10-10T08:56:39Z</time>
      </trkpt>
      <trkpt lat="43.4072" lon="6.61187">
        <ele>331.60000610352</ele>
        <time>2013-10-10T08:56:45Z</time>
      </trkpt>
      <trkpt lat="43.40704" lon="6.61238">
        <ele>331.79998779297</ele>
        <time>2013-10-10T08:56:58Z</time>
      </trkpt>
      <trkpt lat="43.40688" lon="6.61247">
        <ele>335</ele>
        <time>2013-10-10T08:57:04Z</time>
      </trkpt>
      <trkpt lat="43.40676" lon="6.61247">
        <ele>338</ele>
        <time>2013-10-10T08:57:08Z</time>
      </trkpt>
      <trkpt lat="43.40663" lon="6.61245">
        <ele>341.39999389648</ele>
        <time>2013-10-10T08:57:13Z</time>
      </trkpt>
      <trkpt lat="43.40643" lon="6.61243">
        <ele>344.60000610352</ele>
        <time>2013-10-10T08:57:20Z</time>
      </trkpt>
      <trkpt lat="43.40607" lon="6.61265">
        <ele>343.60000610352</ele>
        <time>2013-10-10T08:57:35Z</time>
      </trkpt>
      <trkpt lat="43.40567" lon="6.61266">
        <ele>346.60000610352</ele>
        <time>2013-10-10T08:57:49Z</time>
      </trkpt>
      <trkpt lat="43.40539" lon="6.61248">
        <ele>350</ele>
        <time>2013-10-10T08:57:59Z</time>
      </trkpt>
      <trkpt lat="43.40527" lon="6.61234">
        <ele>353.20001220703</ele>
        <time>2013-10-10T08:58:04Z</time>
      </trkpt>
      <trkpt lat="43.40518" lon="6.61222">
        <ele>356.20001220703</ele>
        <time>2013-10-10T08:58:08Z</time>
      </trkpt>
      <trkpt lat="43.40513" lon="6.61218">
        <ele>357</ele>
        <time>2013-10-10T08:58:10Z</time>
      </trkpt>
      <trkpt lat="43.40488" lon="6.61211">
        <ele>360.39999389648</ele>
        <time>2013-10-10T08:58:19Z</time>
      </trkpt>
      <trkpt lat="43.40481" lon="6.61204">
        <ele>363.39999389648</ele>
        <time>2013-10-10T08:58:22Z</time>
      </trkpt>
      <trkpt lat="43.4047" lon="6.61195">
        <ele>366.60000610352</ele>
        <time>2013-10-10T08:58:26Z</time>
      </trkpt>
      <trkpt lat="43.40459" lon="6.61187">
        <ele>369.39999389648</ele>
        <time>2013-10-10T08:58:30Z</time>
      </trkpt>
      <trkpt lat="43.40452" lon="6.61197">
        <ele>369</ele>
        <time>2013-10-10T08:58:34Z</time>
      </trkpt>
      <trkpt lat="43.40452" lon="6.61221">
        <ele>366</ele>
        <time>2013-10-10T08:58:40Z</time>
      </trkpt>
      <trkpt lat="43.40453" lon="6.61244">
        <ele>362.79998779297</ele>
        <time>2013-10-10T08:58:45Z</time>
      </trkpt>
      <trkpt lat="43.40446" lon="6.61305">
        <ele>364.20001220703</ele>
        <time>2013-10-10T08:59:00Z</time>
      </trkpt>
      <trkpt lat="43.40447" lon="6.61344">
        <ele>365.60000610352</ele>
        <time>2013-10-10T08:59:12Z</time>
      </trkpt>
      <trkpt lat="43.40469" lon="6.61368">
        <ele>362.39999389648</ele>
        <time>2013-10-10T08:59:22Z</time>
      </trkpt>
      <trkpt lat="43.4049" lon="6.61389">
        <ele>359.20001220703</ele>
        <time>2013-10-10T08:59:31Z</time>
      </trkpt>
      <trkpt lat="43.40519" lon="6.61431">
        <ele>360.20001220703</ele>
        <time>2013-10-10T08:59:45Z</time>
      </trkpt>
      <trkpt lat="43.40526" lon="6.6145">
        <ele>363.79998779297</ele>
        <time>2013-10-10T08:59:50Z</time>
      </trkpt>
      <trkpt lat="43.40555" lon="6.61484">
        <ele>364.79998779297</ele>
        <time>2013-10-10T09:00:03Z</time>
      </trkpt>
      <trkpt lat="43.40587" lon="6.61516">
        <ele>365.39999389648</ele>
        <time>2013-10-10T09:00:18Z</time>
      </trkpt>
      <trkpt lat="43.40626" lon="6.61526">
        <ele>363.79998779297</ele>
        <time>2013-10-10T09:00:31Z</time>
      </trkpt>
      <trkpt lat="43.40665" lon="6.61542">
        <ele>364.20001220703</ele>
        <time>2013-10-10T09:00:45Z</time>
      </trkpt>
      <trkpt lat="43.40703" lon="6.61553">
        <ele>363.60000610352</ele>
        <time>2013-10-10T09:00:58Z</time>
      </trkpt>
      <trkpt lat="43.40739" lon="6.61571">
        <ele>364.39999389648</ele>
        <time>2013-10-10T09:01:12Z</time>
      </trkpt>
      <trkpt lat="43.40772" lon="6.61599">
        <ele>362.20001220703</ele>
        <time>2013-10-10T09:01:26Z</time>
      </trkpt>
      <trkpt lat="43.40792" lon="6.61624">
        <ele>359.20001220703</ele>
        <time>2013-10-10T09:01:36Z</time>
      </trkpt>
      <trkpt lat="43.40788" lon="6.61657">
        <ele>362.39999389648</ele>
        <time>2013-10-10T09:01:46Z</time>
      </trkpt>
      <trkpt lat="43.40775" lon="6.61666">
        <ele>365.79998779297</ele>
        <time>2013-10-10T09:01:51Z</time>
      </trkpt>
      <trkpt lat="43.40768" lon="6.61669">
        <ele>366.60000610352</ele>
        <time>2013-10-10T09:01:53Z</time>
      </trkpt>
      <trkpt lat="43.4073" lon="6.61691">
        <ele>369.60000610352</ele>
        <time>2013-10-10T09:02:04Z</time>
      </trkpt>
      <trkpt lat="43.40693" lon="6.61716">
        <ele>372.20001220703</ele>
        <time>2013-10-10T09:02:17Z</time>
      </trkpt>
      <trkpt lat="43.40665" lon="6.61729">
        <ele>375.79998779297</ele>
        <time>2013-10-10T09:02:26Z</time>
      </trkpt>
      <trkpt lat="43.40653" lon="6.61731">
        <ele>379</ele>
        <time>2013-10-10T09:02:30Z</time>
      </trkpt>
      <trkpt lat="43.40637" lon="6.6174">
        <ele>382</ele>
        <time>2013-10-10T09:02:36Z</time>
      </trkpt>
      <trkpt lat="43.40613" lon="6.61761">
        <ele>385.20001220703</ele>
        <time>2013-10-10T09:02:45Z</time>
      </trkpt>
      <trkpt lat="43.40586" lon="6.61802">
        <ele>384.60000610352</ele>
        <time>2013-10-10T09:03:00Z</time>
      </trkpt>
      <trkpt lat="43.40559" lon="6.61851">
        <ele>384</ele>
        <time>2013-10-10T09:03:15Z</time>
      </trkpt>
      <trkpt lat="43.4054" lon="6.61889">
        <ele>380.79998779297</ele>
        <time>2013-10-10T09:03:25Z</time>
      </trkpt>
      <trkpt lat="43.40511" lon="6.61916">
        <ele>384</ele>
        <time>2013-10-10T09:03:35Z</time>
      </trkpt>
      <trkpt lat="43.405" lon="6.6192">
        <ele>387.20001220703</ele>
        <time>2013-10-10T09:03:38Z</time>
      </trkpt>
      <trkpt lat="43.40489" lon="6.61924">
        <ele>390.60000610352</ele>
        <time>2013-10-10T09:03:41Z</time>
      </trkpt>
      <trkpt lat="43.40476" lon="6.6193">
        <ele>394.39999389648</ele>
        <time>2013-10-10T09:03:45Z</time>
      </trkpt>
      <trkpt lat="43.40465" lon="6.61941">
        <ele>396.79998779297</ele>
        <time>2013-10-10T09:03:49Z</time>
      </trkpt>
      <trkpt lat="43.4046" lon="6.61969">
        <ele>393</ele>
        <time>2013-10-10T09:03:55Z</time>
      </trkpt>
      <trkpt lat="43.40461" lon="6.61984">
        <ele>390</ele>
        <time>2013-10-10T09:03:58Z</time>
      </trkpt>
      <trkpt lat="43.40462" lon="6.61998">
        <ele>386.60000610352</ele>
        <time>2013-10-10T09:04:01Z</time>
      </trkpt>
      <trkpt lat="43.40457" lon="6.62042">
        <ele>384.60000610352</ele>
        <time>2013-10-10T09:04:12Z</time>
      </trkpt>
      <trkpt lat="43.40444" lon="6.62083">
        <ele>386</ele>
        <time>2013-10-10T09:04:24Z</time>
      </trkpt>
      <trkpt lat="43.40435" lon="6.62102">
        <ele>389.39999389648</ele>
        <time>2013-10-10T09:04:29Z</time>
      </trkpt>
      <trkpt lat="43.40425" lon="6.62117">
        <ele>393</ele>
        <time>2013-10-10T09:04:34Z</time>
      </trkpt>
      <trkpt lat="43.40416" lon="6.62131">
        <ele>395.60000610352</ele>
        <time>2013-10-10T09:04:39Z</time>
      </trkpt>
      <trkpt lat="43.40397" lon="6.62163">
        <ele>392.60000610352</ele>
        <time>2013-10-10T09:04:51Z</time>
      </trkpt>
      <trkpt lat="43.40384" lon="6.62182">
        <ele>391.39999389648</ele>
        <time>2013-10-10T09:09:05Z</time>
      </trkpt>
      <trkpt lat="43.40385" lon="6.62183">
        <ele>391.60000610352</ele>
        <time>2013-10-10T09:09:07Z</time>
      </trkpt>
      <trkpt lat="43.40392" lon="6.62202">
        <ele>393</ele>
        <time>2013-10-10T09:09:21Z</time>
      </trkpt>
      <trkpt lat="43.40401" lon="6.62217">
        <ele>395.39999389648</ele>
        <time>2013-10-10T09:09:43Z</time>
      </trkpt>
      <trkpt lat="43.40404" lon="6.62226">
        <ele>396.79998779297</ele>
        <time>2013-10-10T09:10:06Z</time>
      </trkpt>
      <trkpt lat="43.40418" lon="6.62315">
        <ele>413.60000610352</ele>
        <time>2013-10-10T09:12:40Z</time>
      </trkpt>
      <trkpt lat="43.40418" lon="6.62315">
        <ele>413.60000610352</ele>
        <time>2013-10-10T09:12:42Z</time>
      </trkpt>
      <trkpt lat="43.40418" lon="6.62315">
        <ele>413.60000610352</ele>
        <time>2013-10-10T09:12:56Z</time>
      </trkpt>
      <trkpt lat="43.40418" lon="6.62334">
        <ele>417</ele>
        <time>2013-10-10T09:13:00Z</time>
      </trkpt>
      <trkpt lat="43.40422" lon="6.62348">
        <ele>420</ele>
        <time>2013-10-10T09:13:06Z</time>
      </trkpt>
      <trkpt lat="43.40424" lon="6.62349">
        <ele>420.39999389648</ele>
        <time>2013-10-10T09:13:07Z</time>
      </trkpt>
      <trkpt lat="43.40435" lon="6.62363">
        <ele>424.20001220703</ele>
        <time>2013-10-10T09:13:25Z</time>
      </trkpt>
      <trkpt lat="43.40444" lon="6.62386">
        <ele>430.79998779297</ele>
        <time>2013-10-10T09:14:33Z</time>
      </trkpt>
      <trkpt lat="43.40444" lon="6.62386">
        <ele>430.79998779297</ele>
        <time>2013-10-10T09:14:34Z</time>
      </trkpt>
      <trkpt lat="43.40443" lon="6.62388">
        <ele>431.20001220703</ele>
        <time>2013-10-10T09:14:42Z</time>
      </trkpt>
      <trkpt lat="43.40444" lon="6.62391">
        <ele>432</ele>
        <time>2013-10-10T09:15:41Z</time>
      </trkpt>
      <trkpt lat="43.40444" lon="6.6239">
        <ele>432</ele>
        <time>2013-10-10T09:15:43Z</time>
      </trkpt>
      <trkpt lat="43.40443" lon="6.62415">
        <ele>438.39999389648</ele>
        <time>2013-10-10T09:15:54Z</time>
      </trkpt>
      <trkpt lat="43.40442" lon="6.62436">
        <ele>441.60000610352</ele>
        <time>2013-10-10T09:16:01Z</time>
      </trkpt>
      <trkpt lat="43.40442" lon="6.62441">
        <ele>442.20001220703</ele>
        <time>2013-10-10T09:16:03Z</time>
      </trkpt>
      <trkpt lat="43.40441" lon="6.62446">
        <ele>443</ele>
        <time>2013-10-10T09:16:05Z</time>
      </trkpt>
      <trkpt lat="43.40452" lon="6.62471">
        <ele>449.39999389648</ele>
        <time>2013-10-10T09:16:20Z</time>
      </trkpt>
      <trkpt lat="43.40457" lon="6.62481">
        <ele>452.39999389648</ele>
        <time>2013-10-10T09:16:30Z</time>
      </trkpt>
      <trkpt lat="43.40455" lon="6.62483">
        <ele>452.20001220703</ele>
        <time>2013-10-10T09:16:31Z</time>
      </trkpt>
      <trkpt lat="43.4045" lon="6.62484">
        <ele>451.20001220703</ele>
        <time>2013-10-10T09:16:40Z</time>
      </trkpt>
      <trkpt lat="43.40447" lon="6.62483">
        <ele>450.20001220703</ele>
        <time>2013-10-10T09:16:42Z</time>
      </trkpt>
      <trkpt lat="43.40428" lon="6.62491">
        <ele>447.20001220703</ele>
        <time>2013-10-10T09:16:49Z</time>
      </trkpt>
      <trkpt lat="43.40414" lon="6.62507">
        <ele>444.60000610352</ele>
        <time>2013-10-10T09:16:56Z</time>
      </trkpt>
      <trkpt lat="43.40405" lon="6.62507">
        <ele>441.60000610352</ele>
        <time>2013-10-10T09:17:00Z</time>
      </trkpt>
      <trkpt lat="43.404" lon="6.62508">
        <ele>440.20001220703</ele>
        <time>2013-10-10T09:17:02Z</time>
      </trkpt>
      <trkpt lat="43.40398" lon="6.62509">
        <ele>439.60000610352</ele>
        <time>2013-10-10T09:17:03Z</time>
      </trkpt>
      <trkpt lat="43.40388" lon="6.62514">
        <ele>436.39999389648</ele>
        <time>2013-10-10T09:17:08Z</time>
      </trkpt>
      <trkpt lat="43.40377" lon="6.62535">
        <ele>433.60000610352</ele>
        <time>2013-10-10T09:17:15Z</time>
      </trkpt>
      <trkpt lat="43.40372" lon="6.62536">
        <ele>432.60000610352</ele>
        <time>2013-10-10T09:17:17Z</time>
      </trkpt>
      <trkpt lat="43.40352" lon="6.62549">
        <ele>429.39999389648</ele>
        <time>2013-10-10T09:17:25Z</time>
      </trkpt>
      <trkpt lat="43.40342" lon="6.6255">
        <ele>427.79998779297</ele>
        <time>2013-10-10T09:17:29Z</time>
      </trkpt>
      <trkpt lat="43.40328" lon="6.62567">
        <ele>427.60000610352</ele>
        <time>2013-10-10T09:17:36Z</time>
      </trkpt>
      <trkpt lat="43.40314" lon="6.62592">
        <ele>426.79998779297</ele>
        <time>2013-10-10T09:17:45Z</time>
      </trkpt>
      <trkpt lat="43.40309" lon="6.62606">
        <ele>424.20001220703</ele>
        <time>2013-10-10T09:17:57Z</time>
      </trkpt>
      <trkpt lat="43.40308" lon="6.62608">
        <ele>423.79998779297</ele>
        <time>2013-10-10T09:18:00Z</time>
      </trkpt>
      <trkpt lat="43.403" lon="6.62607">
        <ele>423.20001220703</ele>
        <time>2013-10-10T09:18:04Z</time>
      </trkpt>
      <trkpt lat="43.40295" lon="6.62607">
        <ele>422.79998779297</ele>
        <time>2013-10-10T09:18:06Z</time>
      </trkpt>
      <trkpt lat="43.40286" lon="6.62604">
        <ele>422</ele>
        <time>2013-10-10T09:18:10Z</time>
      </trkpt>
      <trkpt lat="43.40278" lon="6.62608">
        <ele>420.79998779297</ele>
        <time>2013-10-10T09:18:25Z</time>
      </trkpt>
      <trkpt lat="43.40255" lon="6.62615">
        <ele>418.39999389648</ele>
        <time>2013-10-10T09:18:35Z</time>
      </trkpt>
      <trkpt lat="43.40239" lon="6.62622">
        <ele>415.39999389648</ele>
        <time>2013-10-10T09:18:43Z</time>
      </trkpt>
      <trkpt lat="43.40229" lon="6.62628">
        <ele>413.79998779297</ele>
        <time>2013-10-10T09:18:47Z</time>
      </trkpt>
      <trkpt lat="43.4021" lon="6.62636">
        <ele>410.79998779297</ele>
        <time>2013-10-10T09:18:53Z</time>
      </trkpt>
      <trkpt lat="43.40188" lon="6.62651">
        <ele>409.79998779297</ele>
        <time>2013-10-10T09:19:02Z</time>
      </trkpt>
      <trkpt lat="43.4018" lon="6.62658">
        <ele>410.20001220703</ele>
        <time>2013-10-10T09:19:04Z</time>
      </trkpt>
      <trkpt lat="43.40173" lon="6.62666">
        <ele>411.20001220703</ele>
        <time>2013-10-10T09:19:06Z</time>
      </trkpt>
      <trkpt lat="43.40159" lon="6.62671">
        <ele>409</ele>
        <time>2013-10-10T09:19:09Z</time>
      </trkpt>
      <trkpt lat="43.40152" lon="6.62671">
        <ele>407.20001220703</ele>
        <time>2013-10-10T09:19:11Z</time>
      </trkpt>
      <trkpt lat="43.40148" lon="6.62677">
        <ele>406.20001220703</ele>
        <time>2013-10-10T09:19:13Z</time>
      </trkpt>
      <trkpt lat="43.40125" lon="6.62712">
        <ele>404.60000610352</ele>
        <time>2013-10-10T09:19:21Z</time>
      </trkpt>
      <trkpt lat="43.40114" lon="6.62717">
        <ele>403.60000610352</ele>
        <time>2013-10-10T09:19:26Z</time>
      </trkpt>
      <trkpt lat="43.40103" lon="6.62744">
        <ele>406.60000610352</ele>
        <time>2013-10-10T09:19:35Z</time>
      </trkpt>
      <trkpt lat="43.40102" lon="6.62746">
        <ele>407</ele>
        <time>2013-10-10T09:19:38Z</time>
      </trkpt>
      <trkpt lat="43.401" lon="6.6276">
        <ele>407.79998779297</ele>
        <time>2013-10-10T09:19:46Z</time>
      </trkpt>
      <trkpt lat="43.40089" lon="6.62769">
        <ele>408.20001220703</ele>
        <time>2013-10-10T09:19:52Z</time>
      </trkpt>
      <trkpt lat="43.40084" lon="6.62782">
        <ele>409.20001220703</ele>
        <time>2013-10-10T09:20:00Z</time>
      </trkpt>
      <trkpt lat="43.40074" lon="6.62794">
        <ele>407.20001220703</ele>
        <time>2013-10-10T09:20:17Z</time>
      </trkpt>
      <trkpt lat="43.40066" lon="6.62808">
        <ele>405.79998779297</ele>
        <time>2013-10-10T09:20:22Z</time>
      </trkpt>
      <trkpt lat="43.40059" lon="6.62824">
        <ele>405.60000610352</ele>
        <time>2013-10-10T09:20:29Z</time>
      </trkpt>
      <trkpt lat="43.40055" lon="6.62831">
        <ele>405.20001220703</ele>
        <time>2013-10-10T09:20:35Z</time>
      </trkpt>
      <trkpt lat="43.4005" lon="6.62855">
        <ele>404.79998779297</ele>
        <time>2013-10-10T09:20:47Z</time>
      </trkpt>
      <trkpt lat="43.40047" lon="6.6286">
        <ele>404.60000610352</ele>
        <time>2013-10-10T09:20:50Z</time>
      </trkpt>
      <trkpt lat="43.4004" lon="6.6288">
        <ele>404.60000610352</ele>
        <time>2013-10-10T09:20:59Z</time>
      </trkpt>
      <trkpt lat="43.40038" lon="6.62894">
        <ele>405.20001220703</ele>
        <time>2013-10-10T09:21:04Z</time>
      </trkpt>
      <trkpt lat="43.40033" lon="6.62904">
        <ele>405.79998779297</ele>
        <time>2013-10-10T09:21:10Z</time>
      </trkpt>
      <trkpt lat="43.40027" lon="6.62925">
        <ele>406.60000610352</ele>
        <time>2013-10-10T09:21:19Z</time>
      </trkpt>
      <trkpt lat="43.40023" lon="6.62941">
        <ele>406.39999389648</ele>
        <time>2013-10-10T09:21:25Z</time>
      </trkpt>
      <trkpt lat="43.40019" lon="6.6297">
        <ele>406.60000610352</ele>
        <time>2013-10-10T09:21:33Z</time>
      </trkpt>
      <trkpt lat="43.40016" lon="6.62975">
        <ele>407</ele>
        <time>2013-10-10T09:21:37Z</time>
      </trkpt>
      <trkpt lat="43.40007" lon="6.62984">
        <ele>408.79998779297</ele>
        <time>2013-10-10T09:21:44Z</time>
      </trkpt>
      <trkpt lat="43.39998" lon="6.63016">
        <ele>410.79998779297</ele>
        <time>2013-10-10T09:21:51Z</time>
      </trkpt>
      <trkpt lat="43.39996" lon="6.63022">
        <ele>410.39999389648</ele>
        <time>2013-10-10T09:21:52Z</time>
      </trkpt>
      <trkpt lat="43.39989" lon="6.63045">
        <ele>409.39999389648</ele>
        <time>2013-10-10T09:21:58Z</time>
      </trkpt>
      <trkpt lat="43.39971" lon="6.63066">
        <ele>406.60000610352</ele>
        <time>2013-10-10T09:22:04Z</time>
      </trkpt>
      <trkpt lat="43.39966" lon="6.63069">
        <ele>405.79998779297</ele>
        <time>2013-10-10T09:22:05Z</time>
      </trkpt>
      <trkpt lat="43.39959" lon="6.63077">
        <ele>405</ele>
        <time>2013-10-10T09:22:07Z</time>
      </trkpt>
      <trkpt lat="43.39951" lon="6.63094">
        <ele>404.39999389648</ele>
        <time>2013-10-10T09:22:14Z</time>
      </trkpt>
      <trkpt lat="43.39947" lon="6.63102">
        <ele>404.20001220703</ele>
        <time>2013-10-10T09:22:21Z</time>
      </trkpt>
      <trkpt lat="43.39933" lon="6.63118">
        <ele>403.60000610352</ele>
        <time>2013-10-10T09:22:29Z</time>
      </trkpt>
      <trkpt lat="43.39923" lon="6.63118">
        <ele>402.39999389648</ele>
        <time>2013-10-10T09:22:33Z</time>
      </trkpt>
      <trkpt lat="43.3992" lon="6.63119">
        <ele>402.20001220703</ele>
        <time>2013-10-10T09:22:34Z</time>
      </trkpt>
      <trkpt lat="43.3991" lon="6.63153">
        <ele>402.20001220703</ele>
        <time>2013-10-10T09:22:42Z</time>
      </trkpt>
      <trkpt lat="43.39902" lon="6.63183">
        <ele>399.20001220703</ele>
        <time>2013-10-10T09:22:49Z</time>
      </trkpt>
      <trkpt lat="43.399" lon="6.63193">
        <ele>397.79998779297</ele>
        <time>2013-10-10T09:22:52Z</time>
      </trkpt>
      <trkpt lat="43.39897" lon="6.63196">
        <ele>396.60000610352</ele>
        <time>2013-10-10T09:22:54Z</time>
      </trkpt>
      <trkpt lat="43.39891" lon="6.63204">
        <ele>394</ele>
        <time>2013-10-10T09:23:03Z</time>
      </trkpt>
      <trkpt lat="43.39882" lon="6.632">
        <ele>390.79998779297</ele>
        <time>2013-10-10T09:23:12Z</time>
      </trkpt>
      <trkpt lat="43.39875" lon="6.63193">
        <ele>388</ele>
        <time>2013-10-10T09:23:20Z</time>
      </trkpt>
      <trkpt lat="43.39872" lon="6.63184">
        <ele>387</ele>
        <time>2013-10-10T09:23:24Z</time>
      </trkpt>
      <trkpt lat="43.39864" lon="6.63189">
        <ele>383.79998779297</ele>
        <time>2013-10-10T09:23:31Z</time>
      </trkpt>
      <trkpt lat="43.39864" lon="6.63191">
        <ele>383.60000610352</ele>
        <time>2013-10-10T09:23:34Z</time>
      </trkpt>
      <trkpt lat="43.39861" lon="6.632">
        <ele>382.79998779297</ele>
        <time>2013-10-10T09:23:39Z</time>
      </trkpt>
      <trkpt lat="43.3986" lon="6.63208">
        <ele>383</ele>
        <time>2013-10-10T09:23:43Z</time>
      </trkpt>
      <trkpt lat="43.3985" lon="6.63233">
        <ele>381</ele>
        <time>2013-10-10T09:23:51Z</time>
      </trkpt>
      <trkpt lat="43.39843" lon="6.63243">
        <ele>379.60000610352</ele>
        <time>2013-10-10T09:23:56Z</time>
      </trkpt>
      <trkpt lat="43.3984" lon="6.63245">
        <ele>379.20001220703</ele>
        <time>2013-10-10T09:23:57Z</time>
      </trkpt>
      <trkpt lat="43.39838" lon="6.63247">
        <ele>378.79998779297</ele>
        <time>2013-10-10T09:24:08Z</time>
      </trkpt>
      <trkpt lat="43.39836" lon="6.63247">
        <ele>378.20001220703</ele>
        <time>2013-10-10T09:24:10Z</time>
      </trkpt>
      <trkpt lat="43.39832" lon="6.63245">
        <ele>376.79998779297</ele>
        <time>2013-10-10T09:24:14Z</time>
      </trkpt>
      <trkpt lat="43.39825" lon="6.63245">
        <ele>373.60000610352</ele>
        <time>2013-10-10T09:24:25Z</time>
      </trkpt>
      <trkpt lat="43.39822" lon="6.63243">
        <ele>372.20001220703</ele>
        <time>2013-10-10T09:24:30Z</time>
      </trkpt>
      <trkpt lat="43.39814" lon="6.63249">
        <ele>369.20001220703</ele>
        <time>2013-10-10T09:24:39Z</time>
      </trkpt>
      <trkpt lat="43.39813" lon="6.63249">
        <ele>369</ele>
        <time>2013-10-10T09:24:40Z</time>
      </trkpt>
      <trkpt lat="43.39806" lon="6.63272">
        <ele>365.60000610352</ele>
        <time>2013-10-10T09:24:48Z</time>
      </trkpt>
      <trkpt lat="43.39798" lon="6.63283">
        <ele>362.60000610352</ele>
        <time>2013-10-10T09:24:51Z</time>
      </trkpt>
      <trkpt lat="43.3979" lon="6.63299">
        <ele>360.20001220703</ele>
        <time>2013-10-10T09:24:54Z</time>
      </trkpt>
      <trkpt lat="43.39773" lon="6.6332">
        <ele>356.39999389648</ele>
        <time>2013-10-10T09:24:59Z</time>
      </trkpt>
      <trkpt lat="43.39766" lon="6.63331">
        <ele>355.39999389648</ele>
        <time>2013-10-10T09:25:01Z</time>
      </trkpt>
      <trkpt lat="43.39757" lon="6.63346">
        <ele>352.39999389648</ele>
        <time>2013-10-10T09:25:04Z</time>
      </trkpt>
      <trkpt lat="43.39755" lon="6.63352">
        <ele>351.79998779297</ele>
        <time>2013-10-10T09:25:05Z</time>
      </trkpt>
      <trkpt lat="43.39746" lon="6.63366">
        <ele>348.79998779297</ele>
        <time>2013-10-10T09:25:08Z</time>
      </trkpt>
      <trkpt lat="43.39737" lon="6.63374">
        <ele>346.20001220703</ele>
        <time>2013-10-10T09:25:11Z</time>
      </trkpt>
      <trkpt lat="43.39728" lon="6.63383">
        <ele>344</ele>
        <time>2013-10-10T09:25:14Z</time>
      </trkpt>
      <trkpt lat="43.39718" lon="6.63389">
        <ele>341.79998779297</ele>
        <time>2013-10-10T09:25:16Z</time>
      </trkpt>
      <trkpt lat="43.39696" lon="6.63406">
        <ele>338.39999389648</ele>
        <time>2013-10-10T09:25:20Z</time>
      </trkpt>
      <trkpt lat="43.39674" lon="6.63433">
        <ele>335.60000610352</ele>
        <time>2013-10-10T09:25:26Z</time>
      </trkpt>
      <trkpt lat="43.39664" lon="6.63451">
        <ele>333.79998779297</ele>
        <time>2013-10-10T09:25:32Z</time>
      </trkpt>
      <trkpt lat="43.39662" lon="6.63452">
        <ele>333.39999389648</ele>
        <time>2013-10-10T09:25:34Z</time>
      </trkpt>
      <trkpt lat="43.39656" lon="6.63453">
        <ele>332.20001220703</ele>
        <time>2013-10-10T09:25:40Z</time>
      </trkpt>
      <trkpt lat="43.39649" lon="6.63461">
        <ele>330.60000610352</ele>
        <time>2013-10-10T09:25:46Z</time>
      </trkpt>
      <trkpt lat="43.3964" lon="6.63469">
        <ele>329</ele>
        <time>2013-10-10T09:25:49Z</time>
      </trkpt>
      <trkpt lat="43.39633" lon="6.6348">
        <ele>328</ele>
        <time>2013-10-10T09:25:51Z</time>
      </trkpt>
      <trkpt lat="43.39616" lon="6.63491">
        <ele>326</ele>
        <time>2013-10-10T09:25:56Z</time>
      </trkpt>
      <trkpt lat="43.39595" lon="6.63506">
        <ele>322.79998779297</ele>
        <time>2013-10-10T09:26:01Z</time>
      </trkpt>
      <trkpt lat="43.39577" lon="6.6351">
        <ele>319.20001220703</ele>
        <time>2013-10-10T09:26:04Z</time>
      </trkpt>
      <trkpt lat="43.39561" lon="6.63515">
        <ele>315.20001220703</ele>
        <time>2013-10-10T09:26:08Z</time>
      </trkpt>
      <trkpt lat="43.39545" lon="6.63513">
        <ele>312.20001220703</ele>
        <time>2013-10-10T09:26:12Z</time>
      </trkpt>
      <trkpt lat="43.39533" lon="6.63508">
        <ele>310.20001220703</ele>
        <time>2013-10-10T09:26:17Z</time>
      </trkpt>
      <trkpt lat="43.39523" lon="6.63518">
        <ele>307.20001220703</ele>
        <time>2013-10-10T09:26:20Z</time>
      </trkpt>
      <trkpt lat="43.39506" lon="6.63524">
        <ele>303.20001220703</ele>
        <time>2013-10-10T09:26:24Z</time>
      </trkpt>
      <trkpt lat="43.39494" lon="6.63527">
        <ele>300.79998779297</ele>
        <time>2013-10-10T09:26:26Z</time>
      </trkpt>
      <trkpt lat="43.39482" lon="6.63528">
        <ele>297.79998779297</ele>
        <time>2013-10-10T09:26:28Z</time>
      </trkpt>
      <trkpt lat="43.39469" lon="6.63535">
        <ele>294.39999389648</ele>
        <time>2013-10-10T09:26:30Z</time>
      </trkpt>
      <trkpt lat="43.39455" lon="6.63554">
        <ele>290.79998779297</ele>
        <time>2013-10-10T09:26:33Z</time>
      </trkpt>
      <trkpt lat="43.39439" lon="6.6357">
        <ele>287.60000610352</ele>
        <time>2013-10-10T09:26:38Z</time>
      </trkpt>
      <trkpt lat="43.39435" lon="6.63574">
        <ele>287</ele>
        <time>2013-10-10T09:26:39Z</time>
      </trkpt>
      <trkpt lat="43.39422" lon="6.63596">
        <ele>283.39999389648</ele>
        <time>2013-10-10T09:26:44Z</time>
      </trkpt>
      <trkpt lat="43.39417" lon="6.63621">
        <ele>280.39999389648</ele>
        <time>2013-10-10T09:26:47Z</time>
      </trkpt>
      <trkpt lat="43.3941" lon="6.63638">
        <ele>276.39999389648</ele>
        <time>2013-10-10T09:26:49Z</time>
      </trkpt>
      <trkpt lat="43.39403" lon="6.63648">
        <ele>273.39999389648</ele>
        <time>2013-10-10T09:26:51Z</time>
      </trkpt>
      <trkpt lat="43.39398" lon="6.6366">
        <ele>271</ele>
        <time>2013-10-10T09:26:53Z</time>
      </trkpt>
      <trkpt lat="43.39395" lon="6.63667">
        <ele>269.79998779297</ele>
        <time>2013-10-10T09:26:54Z</time>
      </trkpt>
      <trkpt lat="43.39389" lon="6.63678">
        <ele>266.79998779297</ele>
        <time>2013-10-10T09:26:56Z</time>
      </trkpt>
      <trkpt lat="43.39382" lon="6.63684">
        <ele>264.20001220703</ele>
        <time>2013-10-10T09:26:59Z</time>
      </trkpt>
      <trkpt lat="43.39375" lon="6.63689">
        <ele>262.20001220703</ele>
        <time>2013-10-10T09:27:01Z</time>
      </trkpt>
      <trkpt lat="43.39363" lon="6.63696">
        <ele>259</ele>
        <time>2013-10-10T09:27:04Z</time>
      </trkpt>
      <trkpt lat="43.39357" lon="6.63702">
        <ele>257.20001220703</ele>
        <time>2013-10-10T09:27:06Z</time>
      </trkpt>
      <trkpt lat="43.39346" lon="6.63719">
        <ele>254.19999694824</ele>
        <time>2013-10-10T09:27:10Z</time>
      </trkpt>
      <trkpt lat="43.3933" lon="6.63745">
        <ele>251</ele>
        <time>2013-10-10T09:27:15Z</time>
      </trkpt>
      <trkpt lat="43.39324" lon="6.63754">
        <ele>248</ele>
        <time>2013-10-10T09:27:17Z</time>
      </trkpt>
      <trkpt lat="43.39317" lon="6.63761">
        <ele>244.39999389648</ele>
        <time>2013-10-10T09:27:20Z</time>
      </trkpt>
      <trkpt lat="43.39307" lon="6.63767">
        <ele>240.39999389648</ele>
        <time>2013-10-10T09:27:23Z</time>
      </trkpt>
      <trkpt lat="43.39302" lon="6.63772">
        <ele>238</ele>
        <time>2013-10-10T09:27:25Z</time>
      </trkpt>
      <trkpt lat="43.39299" lon="6.6378">
        <ele>236</ele>
        <time>2013-10-10T09:27:27Z</time>
      </trkpt>
      <trkpt lat="43.39292" lon="6.6379">
        <ele>232.80000305176</ele>
        <time>2013-10-10T09:27:31Z</time>
      </trkpt>
      <trkpt lat="43.39289" lon="6.63792">
        <ele>231.60000610352</ele>
        <time>2013-10-10T09:27:34Z</time>
      </trkpt>
      <trkpt lat="43.39287" lon="6.6379">
        <ele>231.39999389648</ele>
        <time>2013-10-10T09:27:37Z</time>
      </trkpt>
      <trkpt lat="43.39284" lon="6.63788">
        <ele>231</ele>
        <time>2013-10-10T09:27:40Z</time>
      </trkpt>
      <trkpt lat="43.3928" lon="6.63793">
        <ele>229.39999389648</ele>
        <time>2013-10-10T09:27:49Z</time>
      </trkpt>
      <trkpt lat="43.39279" lon="6.63816">
        <ele>226.60000610352</ele>
        <time>2013-10-10T09:27:55Z</time>
      </trkpt>
      <trkpt lat="43.39274" lon="6.63842">
        <ele>222.80000305176</ele>
        <time>2013-10-10T09:28:00Z</time>
      </trkpt>
      <trkpt lat="43.39272" lon="6.63863">
        <ele>219.80000305176</ele>
        <time>2013-10-10T09:28:03Z</time>
      </trkpt>
      <trkpt lat="43.39261" lon="6.63892">
        <ele>216.39999389648</ele>
        <time>2013-10-10T09:28:08Z</time>
      </trkpt>
      <trkpt lat="43.39259" lon="6.63905">
        <ele>215.19999694824</ele>
        <time>2013-10-10T09:28:10Z</time>
      </trkpt>
      <trkpt lat="43.39257" lon="6.63914">
        <ele>214.60000610352</ele>
        <time>2013-10-10T09:28:11Z</time>
      </trkpt>
      <trkpt lat="43.39254" lon="6.63952">
        <ele>211.19999694824</ele>
        <time>2013-10-10T09:28:16Z</time>
      </trkpt>
      <trkpt lat="43.39249" lon="6.63985">
        <ele>208.19999694824</ele>
        <time>2013-10-10T09:28:20Z</time>
      </trkpt>
      <trkpt lat="43.39255" lon="6.63996">
        <ele>206.39999389648</ele>
        <time>2013-10-10T09:28:25Z</time>
      </trkpt>
      <trkpt lat="43.39272" lon="6.63984">
        <ele>205.19999694824</ele>
        <time>2013-10-10T09:28:29Z</time>
      </trkpt>
      <trkpt lat="43.39277" lon="6.63978">
        <ele>205.19999694824</ele>
        <time>2013-10-10T09:28:30Z</time>
      </trkpt>
      <trkpt lat="43.39335" lon="6.63944">
        <ele>203.39999389648</ele>
        <time>2013-10-10T09:28:37Z</time>
      </trkpt>
      <trkpt lat="43.3938" lon="6.63934">
        <ele>200.19999694824</ele>
        <time>2013-10-10T09:28:43Z</time>
      </trkpt>
      <trkpt lat="43.39386" lon="6.63934">
        <ele>199.39999389648</ele>
        <time>2013-10-10T09:28:44Z</time>
      </trkpt>
      <trkpt lat="43.39407" lon="6.6394">
        <ele>195.19999694824</ele>
        <time>2013-10-10T09:28:47Z</time>
      </trkpt>
      <trkpt lat="43.39415" lon="6.63943">
        <ele>193.39999389648</ele>
        <time>2013-10-10T09:28:48Z</time>
      </trkpt>
      <trkpt lat="43.39436" lon="6.63949">
        <ele>191.39999389648</ele>
        <time>2013-10-10T09:28:51Z</time>
      </trkpt>
      <trkpt lat="43.39458" lon="6.63941">
        <ele>193.60000610352</ele>
        <time>2013-10-10T09:28:57Z</time>
      </trkpt>
      <trkpt lat="43.39486" lon="6.63949">
        <ele>191</ele>
        <time>2013-10-10T09:29:03Z</time>
      </trkpt>
      <trkpt lat="43.39497" lon="6.63959">
        <ele>187.80000305176</ele>
        <time>2013-10-10T09:29:05Z</time>
      </trkpt>
      <trkpt lat="43.39523" lon="6.63956">
        <ele>188.80000305176</ele>
        <time>2013-10-10T09:29:11Z</time>
      </trkpt>
      <trkpt lat="43.39528" lon="6.63954">
        <ele>189.39999389648</ele>
        <time>2013-10-10T09:29:12Z</time>
      </trkpt>
      <trkpt lat="43.39545" lon="6.63942">
        <ele>192.80000305176</ele>
        <time>2013-10-10T09:29:16Z</time>
      </trkpt>
      <trkpt lat="43.39549" lon="6.63938">
        <ele>193.80000305176</ele>
        <time>2013-10-10T09:29:17Z</time>
      </trkpt>
      <trkpt lat="43.39558" lon="6.63926">
        <ele>196.39999389648</ele>
        <time>2013-10-10T09:29:20Z</time>
      </trkpt>
      <trkpt lat="43.39566" lon="6.63922">
        <ele>197.19999694824</ele>
        <time>2013-10-10T09:29:22Z</time>
      </trkpt>
      <trkpt lat="43.39575" lon="6.63925">
        <ele>196.39999389648</ele>
        <time>2013-10-10T09:29:24Z</time>
      </trkpt>
      <trkpt lat="43.39596" lon="6.63932">
        <ele>197.19999694824</ele>
        <time>2013-10-10T09:29:30Z</time>
      </trkpt>
      <trkpt lat="43.39603" lon="6.63943">
        <ele>196.39999389648</ele>
        <time>2013-10-10T09:29:33Z</time>
      </trkpt>
      <trkpt lat="43.39604" lon="6.63962">
        <ele>192.39999389648</ele>
        <time>2013-10-10T09:29:36Z</time>
      </trkpt>
      <trkpt lat="43.39605" lon="6.63969">
        <ele>191.19999694824</ele>
        <time>2013-10-10T09:29:37Z</time>
      </trkpt>
      <trkpt lat="43.39606" lon="6.63975">
        <ele>190</ele>
        <time>2013-10-10T09:29:38Z</time>
      </trkpt>
      <trkpt lat="43.39612" lon="6.63996">
        <ele>186.39999389648</ele>
        <time>2013-10-10T09:29:42Z</time>
      </trkpt>
      <trkpt lat="43.39621" lon="6.64008">
        <ele>185.39999389648</ele>
        <time>2013-10-10T09:30:33Z</time>
      </trkpt>
      <trkpt lat="43.39628" lon="6.64015">
        <ele>185</ele>
        <time>2013-10-10T09:30:36Z</time>
      </trkpt>
      <trkpt lat="43.39649" lon="6.64019">
        <ele>187.80000305176</ele>
        <time>2013-10-10T09:30:40Z</time>
      </trkpt>
      <trkpt lat="43.39694" lon="6.64042">
        <ele>186</ele>
        <time>2013-10-10T09:30:47Z</time>
      </trkpt>
      <trkpt lat="43.39704" lon="6.64047">
        <ele>185.19999694824</ele>
        <time>2013-10-10T09:30:49Z</time>
      </trkpt>
      <trkpt lat="43.39735" lon="6.64045">
        <ele>187.60000610352</ele>
        <time>2013-10-10T09:30:57Z</time>
      </trkpt>
      <trkpt lat="43.39745" lon="6.64043">
        <ele>188.60000610352</ele>
        <time>2013-10-10T09:30:59Z</time>
      </trkpt>
      <trkpt lat="43.39763" lon="6.64048">
        <ele>187.39999389648</ele>
        <time>2013-10-10T09:31:02Z</time>
      </trkpt>
      <trkpt lat="43.39783" lon="6.64058">
        <ele>184.19999694824</ele>
        <time>2013-10-10T09:31:05Z</time>
      </trkpt>
      <trkpt lat="43.3979" lon="6.64062">
        <ele>183</ele>
        <time>2013-10-10T09:31:06Z</time>
      </trkpt>
      <trkpt lat="43.39799" lon="6.64065">
        <ele>182.19999694824</ele>
        <time>2013-10-10T09:31:08Z</time>
      </trkpt>
      <trkpt lat="43.39822" lon="6.64071">
        <ele>180.39999389648</ele>
        <time>2013-10-10T09:31:13Z</time>
      </trkpt>
      <trkpt lat="43.39826" lon="6.64072">
        <ele>180.19999694824</ele>
        <time>2013-10-10T09:31:14Z</time>
      </trkpt>
      <trkpt lat="43.39844" lon="6.64071">
        <ele>181</ele>
        <time>2013-10-10T09:31:18Z</time>
      </trkpt>
      <trkpt lat="43.39862" lon="6.64061">
        <ele>185</ele>
        <time>2013-10-10T09:31:22Z</time>
      </trkpt>
      <trkpt lat="43.39869" lon="6.64052">
        <ele>187.80000305176</ele>
        <time>2013-10-10T09:31:24Z</time>
      </trkpt>
      <trkpt lat="43.39872" lon="6.64047">
        <ele>189.19999694824</ele>
        <time>2013-10-10T09:31:25Z</time>
      </trkpt>
      <trkpt lat="43.39894" lon="6.64053">
        <ele>189</ele>
        <time>2013-10-10T09:31:31Z</time>
      </trkpt>
      <trkpt lat="43.39912" lon="6.64075">
        <ele>185.39999389648</ele>
        <time>2013-10-10T09:31:37Z</time>
      </trkpt>
      <trkpt lat="43.39935" lon="6.64091">
        <ele>186</ele>
        <time>2013-10-10T09:31:44Z</time>
      </trkpt>
      <trkpt lat="43.39947" lon="6.64101">
        <ele>186.80000305176</ele>
        <time>2013-10-10T09:31:48Z</time>
      </trkpt>
      <trkpt lat="43.39969" lon="6.64123">
        <ele>188.39999389648</ele>
        <time>2013-10-10T09:31:58Z</time>
      </trkpt>
      <trkpt lat="43.39996" lon="6.64141">
        <ele>190.60000610352</ele>
        <time>2013-10-10T09:32:11Z</time>
      </trkpt>
      <trkpt lat="43.40023" lon="6.64158">
        <ele>189.60000610352</ele>
        <time>2013-10-10T09:32:24Z</time>
      </trkpt>
      <trkpt lat="43.40039" lon="6.64168">
        <ele>189.19999694824</ele>
        <time>2013-10-10T09:32:31Z</time>
      </trkpt>
      <trkpt lat="43.4004" lon="6.64195">
        <ele>192.19999694824</ele>
        <time>2013-10-10T09:32:39Z</time>
      </trkpt>
      <trkpt lat="43.40044" lon="6.64214">
        <ele>194.60000610352</ele>
        <time>2013-10-10T09:32:49Z</time>
      </trkpt>
      <trkpt lat="43.40056" lon="6.64238">
        <ele>197.80000305176</ele>
        <time>2013-10-10T09:33:01Z</time>
      </trkpt>
      <trkpt lat="43.40066" lon="6.64248">
        <ele>199.19999694824</ele>
        <time>2013-10-10T09:33:08Z</time>
      </trkpt>
      <trkpt lat="43.40075" lon="6.64263">
        <ele>202.19999694824</ele>
        <time>2013-10-10T09:33:25Z</time>
      </trkpt>
      <trkpt lat="43.40075" lon="6.64264">
        <ele>202.39999389648</ele>
        <time>2013-10-10T09:33:26Z</time>
      </trkpt>
      <trkpt lat="43.40075" lon="6.64276">
        <ele>204.80000305176</ele>
        <time>2013-10-10T09:33:39Z</time>
      </trkpt>
      <trkpt lat="43.40072" lon="6.64287">
        <ele>207</ele>
        <time>2013-10-10T09:33:50Z</time>
      </trkpt>
      <trkpt lat="43.40071" lon="6.64289">
        <ele>207.19999694824</ele>
        <time>2013-10-10T09:33:51Z</time>
      </trkpt>
      <trkpt lat="43.4007" lon="6.6429">
        <ele>207.60000610352</ele>
        <time>2013-10-10T09:33:53Z</time>
      </trkpt>
      <trkpt lat="43.40065" lon="6.64299">
        <ele>209</ele>
        <time>2013-10-10T09:34:00Z</time>
      </trkpt>
      <trkpt lat="43.40063" lon="6.64309">
        <ele>211.19999694824</ele>
        <time>2013-10-10T09:34:07Z</time>
      </trkpt>
      <trkpt lat="43.40057" lon="6.64324">
        <ele>214.19999694824</ele>
        <time>2013-10-10T09:34:26Z</time>
      </trkpt>
      <trkpt lat="43.40055" lon="6.64326">
        <ele>214.39999389648</ele>
        <time>2013-10-10T09:34:30Z</time>
      </trkpt>
      <trkpt lat="43.40038" lon="6.6434">
        <ele>217.39999389648</ele>
        <time>2013-10-10T09:35:04Z</time>
      </trkpt>
      <trkpt lat="43.40036" lon="6.64341">
        <ele>217.60000610352</ele>
        <time>2013-10-10T09:35:07Z</time>
      </trkpt>
      <trkpt lat="43.40032" lon="6.6434">
        <ele>217.39999389648</ele>
        <time>2013-10-10T09:35:12Z</time>
      </trkpt>
      <trkpt lat="43.40019" lon="6.64344">
        <ele>218</ele>
        <time>2013-10-10T09:35:29Z</time>
      </trkpt>
      <trkpt lat="43.40012" lon="6.64345">
        <ele>218.19999694824</ele>
        <time>2013-10-10T09:35:38Z</time>
      </trkpt>
      <trkpt lat="43.39997" lon="6.6435">
        <ele>218.80000305176</ele>
        <time>2013-10-10T09:35:52Z</time>
      </trkpt>
      <trkpt lat="43.39982" lon="6.64359">
        <ele>218.80000305176</ele>
        <time>2013-10-10T09:36:09Z</time>
      </trkpt>
      <trkpt lat="43.39979" lon="6.6436">
        <ele>218.39999389648</ele>
        <time>2013-10-10T09:36:13Z</time>
      </trkpt>
      <trkpt lat="43.39958" lon="6.64388">
        <ele>221.39999389648</ele>
        <time>2013-10-10T09:36:26Z</time>
      </trkpt>
      <trkpt lat="43.39951" lon="6.64409">
        <ele>224.39999389648</ele>
        <time>2013-10-10T09:36:29Z</time>
      </trkpt>
      <trkpt lat="43.39938" lon="6.64431">
        <ele>227.60000610352</ele>
        <time>2013-10-10T09:36:33Z</time>
      </trkpt>
      <trkpt lat="43.39921" lon="6.64441">
        <ele>227.39999389648</ele>
        <time>2013-10-10T09:36:37Z</time>
      </trkpt>
      <trkpt lat="43.39897" lon="6.64446">
        <ele>226.80000305176</ele>
        <time>2013-10-10T09:36:48Z</time>
      </trkpt>
      <trkpt lat="43.39872" lon="6.64464">
        <ele>229.19999694824</ele>
        <time>2013-10-10T09:37:06Z</time>
      </trkpt>
      <trkpt lat="43.39856" lon="6.64485">
        <ele>232.39999389648</ele>
        <time>2013-10-10T09:37:23Z</time>
      </trkpt>
      <trkpt lat="43.3984" lon="6.64502">
        <ele>234.60000610352</ele>
        <time>2013-10-10T09:37:41Z</time>
      </trkpt>
      <trkpt lat="43.39821" lon="6.64516">
        <ele>235.60000610352</ele>
        <time>2013-10-10T09:37:56Z</time>
      </trkpt>
      <trkpt lat="43.398" lon="6.64527">
        <ele>235.80000305176</ele>
        <time>2013-10-10T09:38:11Z</time>
      </trkpt>
      <trkpt lat="43.39774" lon="6.64516">
        <ele>235.19999694824</ele>
        <time>2013-10-10T09:38:27Z</time>
      </trkpt>
      <trkpt lat="43.39735" lon="6.64508">
        <ele>234.19999694824</ele>
        <time>2013-10-10T09:38:41Z</time>
      </trkpt>
      <trkpt lat="43.39712" lon="6.64505">
        <ele>232.39999389648</ele>
        <time>2013-10-10T09:38:48Z</time>
      </trkpt>
      <trkpt lat="43.39683" lon="6.64527">
        <ele>229.39999389648</ele>
        <time>2013-10-10T09:38:57Z</time>
      </trkpt>
      <trkpt lat="43.39651" lon="6.6453">
        <ele>226.19999694824</ele>
        <time>2013-10-10T09:39:02Z</time>
      </trkpt>
      <trkpt lat="43.39636" lon="6.64533">
        <ele>224.19999694824</ele>
        <time>2013-10-10T09:39:04Z</time>
      </trkpt>
      <trkpt lat="43.39609" lon="6.64545">
        <ele>221.19999694824</ele>
        <time>2013-10-10T09:39:08Z</time>
      </trkpt>
      <trkpt lat="43.39586" lon="6.64577">
        <ele>219.80000305176</ele>
        <time>2013-10-10T09:39:15Z</time>
      </trkpt>
      <trkpt lat="43.3958" lon="6.64583">
        <ele>219</ele>
        <time>2013-10-10T09:39:17Z</time>
      </trkpt>
      <trkpt lat="43.39566" lon="6.64593">
        <ele>215</ele>
        <time>2013-10-10T09:39:20Z</time>
      </trkpt>
      <trkpt lat="43.39553" lon="6.64598">
        <ele>212</ele>
        <time>2013-10-10T09:39:23Z</time>
      </trkpt>
      <trkpt lat="43.39538" lon="6.64601">
        <ele>209</ele>
        <time>2013-10-10T09:39:27Z</time>
      </trkpt>
      <trkpt lat="43.39523" lon="6.64609">
        <ele>206</ele>
        <time>2013-10-10T09:39:30Z</time>
      </trkpt>
      <trkpt lat="43.39507" lon="6.64618">
        <ele>203</ele>
        <time>2013-10-10T09:39:33Z</time>
      </trkpt>
      <trkpt lat="43.39486" lon="6.64631">
        <ele>199.80000305176</ele>
        <time>2013-10-10T09:39:37Z</time>
      </trkpt>
      <trkpt lat="43.39474" lon="6.64636">
        <ele>198.19999694824</ele>
        <time>2013-10-10T09:39:39Z</time>
      </trkpt>
      <trkpt lat="43.3944" lon="6.64653">
        <ele>195</ele>
        <time>2013-10-10T09:39:44Z</time>
      </trkpt>
      <trkpt lat="43.39434" lon="6.64656">
        <ele>194.39999389648</ele>
        <time>2013-10-10T09:39:45Z</time>
      </trkpt>
      <trkpt lat="43.39401" lon="6.64644">
        <ele>190.80000305176</ele>
        <time>2013-10-10T09:39:50Z</time>
      </trkpt>
      <trkpt lat="43.39396" lon="6.6464">
        <ele>190.39999389648</ele>
        <time>2013-10-10T09:39:51Z</time>
      </trkpt>
      <trkpt lat="43.39361" lon="6.64632">
        <ele>188.39999389648</ele>
        <time>2013-10-10T09:39:57Z</time>
      </trkpt>
      <trkpt lat="43.39347" lon="6.64635">
        <ele>188.19999694824</ele>
        <time>2013-10-10T09:40:00Z</time>
      </trkpt>
      <trkpt lat="43.39348" lon="6.64668">
        <ele>190.39999389648</ele>
        <time>2013-10-10T09:40:06Z</time>
      </trkpt>
      <trkpt lat="43.39353" lon="6.64673">
        <ele>189.39999389648</ele>
        <time>2013-10-10T09:40:07Z</time>
      </trkpt>
      <trkpt lat="43.39375" lon="6.64696">
        <ele>186</ele>
        <time>2013-10-10T09:40:11Z</time>
      </trkpt>
      <trkpt lat="43.39418" lon="6.64728">
        <ele>183</ele>
        <time>2013-10-10T09:40:17Z</time>
      </trkpt>
      <trkpt lat="43.39434" lon="6.64736">
        <ele>182.60000610352</ele>
        <time>2013-10-10T09:40:19Z</time>
      </trkpt>
      <trkpt lat="43.39478" lon="6.64737">
        <ele>185.80000305176</ele>
        <time>2013-10-10T09:40:26Z</time>
      </trkpt>
      <trkpt lat="43.39522" lon="6.64735">
        <ele>188.80000305176</ele>
        <time>2013-10-10T09:40:36Z</time>
      </trkpt>
      <trkpt lat="43.39565" lon="6.64747">
        <ele>188.60000610352</ele>
        <time>2013-10-10T09:40:48Z</time>
      </trkpt>
      <trkpt lat="43.39591" lon="6.64738">
        <ele>192</ele>
        <time>2013-10-10T09:40:55Z</time>
      </trkpt>
      <trkpt lat="43.39607" lon="6.64728">
        <ele>195</ele>
        <time>2013-10-10T09:41:01Z</time>
      </trkpt>
      <trkpt lat="43.39626" lon="6.6474">
        <ele>195</ele>
        <time>2013-10-10T09:41:12Z</time>
      </trkpt>
      <trkpt lat="43.39635" lon="6.64775">
        <ele>197.60000610352</ele>
        <time>2013-10-10T09:41:31Z</time>
      </trkpt>
      <trkpt lat="43.39624" lon="6.64814">
        <ele>200.39999389648</ele>
        <time>2013-10-10T09:41:49Z</time>
      </trkpt>
      <trkpt lat="43.396" lon="6.64832">
        <ele>197.19999694824</ele>
        <time>2013-10-10T09:42:00Z</time>
      </trkpt>
      <trkpt lat="43.39578" lon="6.64839">
        <ele>194.19999694824</ele>
        <time>2013-10-10T09:42:05Z</time>
      </trkpt>
      <trkpt lat="43.39532" lon="6.64869">
        <ele>191.19999694824</ele>
        <time>2013-10-10T09:42:15Z</time>
      </trkpt>
      <trkpt lat="43.39502" lon="6.64925">
        <ele>191.39999389648</ele>
        <time>2013-10-10T09:42:28Z</time>
      </trkpt>
      <trkpt lat="43.395" lon="6.64955">
        <ele>194.39999389648</ele>
        <time>2013-10-10T09:42:36Z</time>
      </trkpt>
      <trkpt lat="43.39497" lon="6.64986">
        <ele>197.39999389648</ele>
        <time>2013-10-10T09:42:45Z</time>
      </trkpt>
      <trkpt lat="43.39471" lon="6.65032">
        <ele>196.80000305176</ele>
        <time>2013-10-10T09:43:00Z</time>
      </trkpt>
      <trkpt lat="43.39454" lon="6.65044">
        <ele>194.19999694824</ele>
        <time>2013-10-10T09:43:04Z</time>
      </trkpt>
      <trkpt lat="43.39436" lon="6.65069">
        <ele>193.19999694824</ele>
        <time>2013-10-10T09:43:10Z</time>
      </trkpt>
      <trkpt lat="43.39424" lon="6.65092">
        <ele>192.80000305176</ele>
        <time>2013-10-10T09:43:14Z</time>
      </trkpt>
      <trkpt lat="43.39408" lon="6.65133">
        <ele>190.80000305176</ele>
        <time>2013-10-10T09:43:19Z</time>
      </trkpt>
      <trkpt lat="43.39403" lon="6.6517">
        <ele>190.80000305176</ele>
        <time>2013-10-10T09:43:24Z</time>
      </trkpt>
      <trkpt lat="43.39392" lon="6.65162">
        <ele>189.39999389648</ele>
        <time>2013-10-10T09:43:29Z</time>
      </trkpt>
      <trkpt lat="43.3939" lon="6.65156">
        <ele>188.80000305176</ele>
        <time>2013-10-10T09:43:30Z</time>
      </trkpt>
      <trkpt lat="43.39375" lon="6.65143">
        <ele>185.80000305176</ele>
        <time>2013-10-10T09:43:34Z</time>
      </trkpt>
      <trkpt lat="43.39367" lon="6.65151">
        <ele>185.19999694824</ele>
        <time>2013-10-10T09:43:36Z</time>
      </trkpt>
      <trkpt lat="43.39364" lon="6.65155">
        <ele>185</ele>
        <time>2013-10-10T09:43:37Z</time>
      </trkpt>
      <trkpt lat="43.39354" lon="6.65165">
        <ele>184.39999389648</ele>
        <time>2013-10-10T09:43:40Z</time>
      </trkpt>
      <trkpt lat="43.39342" lon="6.65191">
        <ele>181.39999389648</ele>
        <time>2013-10-10T09:43:45Z</time>
      </trkpt>
      <trkpt lat="43.39329" lon="6.65221">
        <ele>177.80000305176</ele>
        <time>2013-10-10T09:43:49Z</time>
      </trkpt>
      <trkpt lat="43.39313" lon="6.6524">
        <ele>174.19999694824</ele>
        <time>2013-10-10T09:43:52Z</time>
      </trkpt>
      <trkpt lat="43.39308" lon="6.65244">
        <ele>173.19999694824</ele>
        <time>2013-10-10T09:43:53Z</time>
      </trkpt>
      <trkpt lat="43.393" lon="6.65264">
        <ele>168.80000305176</ele>
        <time>2013-10-10T09:43:56Z</time>
      </trkpt>
      <trkpt lat="43.393" lon="6.65278">
        <ele>165.80000305176</ele>
        <time>2013-10-10T09:43:58Z</time>
      </trkpt>
      <trkpt lat="43.39301" lon="6.65293">
        <ele>162.80000305176</ele>
        <time>2013-10-10T09:44:00Z</time>
      </trkpt>
      <trkpt lat="43.39301" lon="6.653">
        <ele>161.39999389648</ele>
        <time>2013-10-10T09:44:01Z</time>
      </trkpt>
      <trkpt lat="43.39299" lon="6.65316">
        <ele>158</ele>
        <time>2013-10-10T09:44:03Z</time>
      </trkpt>
      <trkpt lat="43.39292" lon="6.6533">
        <ele>154.60000610352</ele>
        <time>2013-10-10T09:44:05Z</time>
      </trkpt>
      <trkpt lat="43.39284" lon="6.65354">
        <ele>151.19999694824</ele>
        <time>2013-10-10T09:44:08Z</time>
      </trkpt>
      <trkpt lat="43.39281" lon="6.65363">
        <ele>150.19999694824</ele>
        <time>2013-10-10T09:44:09Z</time>
      </trkpt>
      <trkpt lat="43.39266" lon="6.65402">
        <ele>147.80000305176</ele>
        <time>2013-10-10T09:44:14Z</time>
      </trkpt>
      <trkpt lat="43.39256" lon="6.65428">
        <ele>147.39999389648</ele>
        <time>2013-10-10T09:44:17Z</time>
      </trkpt>
      <trkpt lat="43.39251" lon="6.65446">
        <ele>147.60000610352</ele>
        <time>2013-10-10T09:44:19Z</time>
      </trkpt>
      <trkpt lat="43.39217" lon="6.65483">
        <ele>147</ele>
        <time>2013-10-10T09:44:26Z</time>
      </trkpt>
      <trkpt lat="43.39203" lon="6.65501">
        <ele>148.19999694824</ele>
        <time>2013-10-10T09:44:29Z</time>
      </trkpt>
      <trkpt lat="43.39176" lon="6.65522">
        <ele>151.39999389648</ele>
        <time>2013-10-10T09:44:37Z</time>
      </trkpt>
      <trkpt lat="43.39162" lon="6.6554">
        <ele>154.39999389648</ele>
        <time>2013-10-10T09:44:49Z</time>
      </trkpt>
      <trkpt lat="43.39153" lon="6.65547">
        <ele>155.19999694824</ele>
        <time>2013-10-10T09:44:57Z</time>
      </trkpt>
      <trkpt lat="43.39156" lon="6.65563">
        <ele>157</ele>
        <time>2013-10-10T09:45:04Z</time>
      </trkpt>
      <trkpt lat="43.3917" lon="6.65601">
        <ele>159</ele>
        <time>2013-10-10T09:45:19Z</time>
      </trkpt>
      <trkpt lat="43.39159" lon="6.65647">
        <ele>161.19999694824</ele>
        <time>2013-10-10T09:45:36Z</time>
      </trkpt>
      <trkpt lat="43.39157" lon="6.65654">
        <ele>161.39999389648</ele>
        <time>2013-10-10T09:45:38Z</time>
      </trkpt>
      <trkpt lat="43.39172" lon="6.65673">
        <ele>160.60000610352</ele>
        <time>2013-10-10T09:45:45Z</time>
      </trkpt>
      <trkpt lat="43.39186" lon="6.65687">
        <ele>157.80000305176</ele>
        <time>2013-10-10T09:45:49Z</time>
      </trkpt>
      <trkpt lat="43.39199" lon="6.65722">
        <ele>154.80000305176</ele>
        <time>2013-10-10T09:45:57Z</time>
      </trkpt>
      <trkpt lat="43.39201" lon="6.65751">
        <ele>153.39999389648</ele>
        <time>2013-10-10T09:46:04Z</time>
      </trkpt>
      <trkpt lat="43.39209" lon="6.65767">
        <ele>150.39999389648</ele>
        <time>2013-10-10T09:46:08Z</time>
      </trkpt>
      <trkpt lat="43.39222" lon="6.65786">
        <ele>147.39999389648</ele>
        <time>2013-10-10T09:46:15Z</time>
      </trkpt>
      <trkpt lat="43.39223" lon="6.6579">
        <ele>146.80000305176</ele>
        <time>2013-10-10T09:46:16Z</time>
      </trkpt>
      <trkpt lat="43.39224" lon="6.65812">
        <ele>143.39999389648</ele>
        <time>2013-10-10T09:46:20Z</time>
      </trkpt>
      <trkpt lat="43.39229" lon="6.65839">
        <ele>139.80000305176</ele>
        <time>2013-10-10T09:46:25Z</time>
      </trkpt>
      <trkpt lat="43.39234" lon="6.65859">
        <ele>137.19999694824</ele>
        <time>2013-10-10T09:46:28Z</time>
      </trkpt>
      <trkpt lat="43.39234" lon="6.6588">
        <ele>133.80000305176</ele>
        <time>2013-10-10T09:46:31Z</time>
      </trkpt>
      <trkpt lat="43.39232" lon="6.65897">
        <ele>130.80000305176</ele>
        <time>2013-10-10T09:46:35Z</time>
      </trkpt>
      <trkpt lat="43.39232" lon="6.65912">
        <ele>128.39999389648</ele>
        <time>2013-10-10T09:46:40Z</time>
      </trkpt>
      <trkpt lat="43.39226" lon="6.65925">
        <ele>125.19999694824</ele>
        <time>2013-10-10T09:46:43Z</time>
      </trkpt>
      <trkpt lat="43.39225" lon="6.6593">
        <ele>123.80000305176</ele>
        <time>2013-10-10T09:46:44Z</time>
      </trkpt>
      <trkpt lat="43.39224" lon="6.65935">
        <ele>122.40000152588</ele>
        <time>2013-10-10T09:46:45Z</time>
      </trkpt>
      <trkpt lat="43.39214" lon="6.65946">
        <ele>119.19999694824</ele>
        <time>2013-10-10T09:46:49Z</time>
      </trkpt>
      <trkpt lat="43.39209" lon="6.65957">
        <ele>116.19999694824</ele>
        <time>2013-10-10T09:46:54Z</time>
      </trkpt>
      <trkpt lat="43.39211" lon="6.65964">
        <ele>114.80000305176</ele>
        <time>2013-10-10T09:46:57Z</time>
      </trkpt>
      <trkpt lat="43.39214" lon="6.6597">
        <ele>113.59999847412</ele>
        <time>2013-10-10T09:47:03Z</time>
      </trkpt>
      <trkpt lat="43.3921" lon="6.65978">
        <ele>111.80000305176</ele>
        <time>2013-10-10T09:47:09Z</time>
      </trkpt>
      <trkpt lat="43.3921" lon="6.65986">
        <ele>110</ele>
        <time>2013-10-10T09:47:14Z</time>
      </trkpt>
      <trkpt lat="43.3921" lon="6.65989">
        <ele>109.40000152588</ele>
        <time>2013-10-10T09:47:17Z</time>
      </trkpt>
      <trkpt lat="43.39213" lon="6.65997">
        <ele>107.80000305176</ele>
        <time>2013-10-10T09:47:21Z</time>
      </trkpt>
      <trkpt lat="43.3921" lon="6.66011">
        <ele>104.40000152588</ele>
        <time>2013-10-10T09:47:25Z</time>
      </trkpt>
      <trkpt lat="43.39206" lon="6.6602">
        <ele>102.19999694824</ele>
        <time>2013-10-10T09:47:28Z</time>
      </trkpt>
      <trkpt lat="43.39216" lon="6.66036">
        <ele>98.800003051758</ele>
        <time>2013-10-10T09:47:33Z</time>
      </trkpt>
      <trkpt lat="43.3922" lon="6.66041">
        <ele>97.599998474121</ele>
        <time>2013-10-10T09:47:35Z</time>
      </trkpt>
      <trkpt lat="43.39224" lon="6.6605">
        <ele>95.599998474121</ele>
        <time>2013-10-10T09:47:40Z</time>
      </trkpt>
      <trkpt lat="43.39225" lon="6.66061">
        <ele>93</ele>
        <time>2013-10-10T09:47:45Z</time>
      </trkpt>
      <trkpt lat="43.39218" lon="6.66072">
        <ele>90.199996948242</ele>
        <time>2013-10-10T09:47:50Z</time>
      </trkpt>
      <trkpt lat="43.39222" lon="6.66083">
        <ele>87.599998474121</ele>
        <time>2013-10-10T09:47:54Z</time>
      </trkpt>
      <trkpt lat="43.39227" lon="6.66096">
        <ele>85.400001525879</ele>
        <time>2013-10-10T09:47:58Z</time>
      </trkpt>
      <trkpt lat="43.39208" lon="6.66102">
        <ele>84.400001525879</ele>
        <time>2013-10-10T09:48:04Z</time>
      </trkpt>
      <trkpt lat="43.39208" lon="6.66122">
        <ele>81.199996948242</ele>
        <time>2013-10-10T09:48:08Z</time>
      </trkpt>
      <trkpt lat="43.3921" lon="6.66128">
        <ele>80</ele>
        <time>2013-10-10T09:48:10Z</time>
      </trkpt>
      <trkpt lat="43.39212" lon="6.66136">
        <ele>78.800003051758</ele>
        <time>2013-10-10T09:48:12Z</time>
      </trkpt>
      <trkpt lat="43.39214" lon="6.66153">
        <ele>75.800003051758</ele>
        <time>2013-10-10T09:48:15Z</time>
      </trkpt>
      <trkpt lat="43.39213" lon="6.66176">
        <ele>72.599998474121</ele>
        <time>2013-10-10T09:48:20Z</time>
      </trkpt>
      <trkpt lat="43.39213" lon="6.66182">
        <ele>72</ele>
        <time>2013-10-10T09:48:21Z</time>
      </trkpt>
      <trkpt lat="43.39212" lon="6.66205">
        <ele>69.400001525879</ele>
        <time>2013-10-10T09:48:26Z</time>
      </trkpt>
      <trkpt lat="43.3921" lon="6.66213">
        <ele>68.599998474121</ele>
        <time>2013-10-10T09:48:28Z</time>
      </trkpt>
      <trkpt lat="43.39208" lon="6.6624">
        <ele>65.599998474121</ele>
        <time>2013-10-10T09:48:35Z</time>
      </trkpt>
      <trkpt lat="43.39205" lon="6.66257">
        <ele>63.599998474121</ele>
        <time>2013-10-10T09:48:38Z</time>
      </trkpt>
      <trkpt lat="43.39211" lon="6.66278">
        <ele>61.200000762939</ele>
        <time>2013-10-10T09:48:43Z</time>
      </trkpt>
      <trkpt lat="43.39211" lon="6.66298">
        <ele>59</ele>
        <time>2013-10-10T09:48:47Z</time>
      </trkpt>
      <trkpt lat="43.39207" lon="6.66327">
        <ele>55.599998474121</ele>
        <time>2013-10-10T09:48:51Z</time>
      </trkpt>
      <trkpt lat="43.39208" lon="6.66344">
        <ele>54.599998474121</ele>
        <time>2013-10-10T09:48:53Z</time>
      </trkpt>
      <trkpt lat="43.3921" lon="6.66358">
        <ele>54.200000762939</ele>
        <time>2013-10-10T09:48:55Z</time>
      </trkpt>
      <trkpt lat="43.39212" lon="6.66374">
        <ele>53.799999237061</ele>
        <time>2013-10-10T09:48:58Z</time>
      </trkpt>
      <trkpt lat="43.39202" lon="6.66371">
        <ele>54.200000762939</ele>
        <time>2013-10-10T09:49:03Z</time>
      </trkpt>
      <trkpt lat="43.39193" lon="6.66352">
        <ele>54.799999237061</ele>
        <time>2013-10-10T09:49:07Z</time>
      </trkpt>
      <trkpt lat="43.39173" lon="6.66336">
        <ele>55.599998474121</ele>
        <time>2013-10-10T09:49:12Z</time>
      </trkpt>
      <trkpt lat="43.39117" lon="6.66308">
        <ele>58.200000762939</ele>
        <time>2013-10-10T09:49:28Z</time>
      </trkpt>
      <trkpt lat="43.39085" lon="6.66258">
        <ele>60.599998474121</ele>
        <time>2013-10-10T09:49:43Z</time>
      </trkpt>
      <trkpt lat="43.39059" lon="6.66232">
        <ele>62.400001525879</ele>
        <time>2013-10-10T09:49:56Z</time>
      </trkpt>
      <trkpt lat="43.39036" lon="6.66222">
        <ele>62.599998474121</ele>
        <time>2013-10-10T09:50:08Z</time>
      </trkpt>
      <trkpt lat="43.39015" lon="6.66205">
        <ele>63.400001525879</ele>
        <time>2013-10-10T09:50:24Z</time>
      </trkpt>
      <trkpt lat="43.39011" lon="6.66172">
        <ele>66</ele>
        <time>2013-10-10T09:50:38Z</time>
      </trkpt>
      <trkpt lat="43.39014" lon="6.66133">
        <ele>69</ele>
        <time>2013-10-10T09:50:50Z</time>
      </trkpt>
      <trkpt lat="43.39014" lon="6.66087">
        <ele>72.199996948242</ele>
        <time>2013-10-10T09:51:03Z</time>
      </trkpt>
      <trkpt lat="43.39017" lon="6.66051">
        <ele>75.199996948242</ele>
        <time>2013-10-10T09:51:12Z</time>
      </trkpt>
      <trkpt lat="43.38997" lon="6.66016">
        <ele>75.599998474121</ele>
        <time>2013-10-10T09:51:23Z</time>
      </trkpt>
      <trkpt lat="43.38951" lon="6.65997">
        <ele>76</ele>
        <time>2013-10-10T09:51:38Z</time>
      </trkpt>
      <trkpt lat="43.38923" lon="6.65962">
        <ele>77.800003051758</ele>
        <time>2013-10-10T09:51:53Z</time>
      </trkpt>
      <trkpt lat="43.38883" lon="6.6593">
        <ele>78.599998474121</ele>
        <time>2013-10-10T09:52:09Z</time>
      </trkpt>
      <trkpt lat="43.38856" lon="6.65912">
        <ele>79.199996948242</ele>
        <time>2013-10-10T09:52:18Z</time>
      </trkpt>
      <trkpt lat="43.38801" lon="6.65911">
        <ele>80.800003051758</ele>
        <time>2013-10-10T09:52:33Z</time>
      </trkpt>
      <trkpt lat="43.38773" lon="6.65957">
        <ele>78</ele>
        <time>2013-10-10T09:52:41Z</time>
      </trkpt>
      <trkpt lat="43.38767" lon="6.65977">
        <ele>76.400001525879</ele>
        <time>2013-10-10T09:52:43Z</time>
      </trkpt>
      <trkpt lat="43.38729" lon="6.66032">
        <ele>74.800003051758</ele>
        <time>2013-10-10T09:52:51Z</time>
      </trkpt>
      <trkpt lat="43.38692" lon="6.66087">
        <ele>75.800003051758</ele>
        <time>2013-10-10T09:53:02Z</time>
      </trkpt>
      <trkpt lat="43.38669" lon="6.66142">
        <ele>76.199996948242</ele>
        <time>2013-10-10T09:53:14Z</time>
      </trkpt>
      <trkpt lat="43.38652" lon="6.66185">
        <ele>73</ele>
        <time>2013-10-10T09:53:26Z</time>
      </trkpt>
      <trkpt lat="43.38613" lon="6.66196">
        <ele>71.599998474121</ele>
        <time>2013-10-10T09:53:38Z</time>
      </trkpt>
      <trkpt lat="43.38596" lon="6.66192">
        <ele>72.400001525879</ele>
        <time>2013-10-10T09:53:42Z</time>
      </trkpt>
      <trkpt lat="43.38573" lon="6.66169">
        <ele>75.400001525879</ele>
        <time>2013-10-10T09:53:48Z</time>
      </trkpt>
      <trkpt lat="43.38564" lon="6.66132">
        <ele>75.800003051758</ele>
        <time>2013-10-10T09:53:53Z</time>
      </trkpt>
      <trkpt lat="43.38562" lon="6.66117">
        <ele>76</ele>
        <time>2013-10-10T09:53:55Z</time>
      </trkpt>
      <trkpt lat="43.38557" lon="6.66099">
        <ele>76</ele>
        <time>2013-10-10T09:53:58Z</time>
      </trkpt>
      <trkpt lat="43.38564" lon="6.66069">
        <ele>77.800003051758</ele>
        <time>2013-10-10T09:54:03Z</time>
      </trkpt>
      <trkpt lat="43.38571" lon="6.66057">
        <ele>79</ele>
        <time>2013-10-10T09:54:05Z</time>
      </trkpt>
      <trkpt lat="43.38572" lon="6.66044">
        <ele>79.800003051758</ele>
        <time>2013-10-10T09:54:07Z</time>
      </trkpt>
      <trkpt lat="43.38547" lon="6.66023">
        <ele>77.400001525879</ele>
        <time>2013-10-10T09:54:14Z</time>
      </trkpt>
      <trkpt lat="43.38519" lon="6.65993">
        <ele>74.400001525879</ele>
        <time>2013-10-10T09:54:22Z</time>
      </trkpt>
      <trkpt lat="43.38501" lon="6.65974">
        <ele>72.599998474121</ele>
        <time>2013-10-10T09:54:26Z</time>
      </trkpt>
      <trkpt lat="43.38484" lon="6.65906">
        <ele>72.800003051758</ele>
        <time>2013-10-10T09:54:35Z</time>
      </trkpt>
      <trkpt lat="43.38482" lon="6.65891">
        <ele>72</ele>
        <time>2013-10-10T09:54:37Z</time>
      </trkpt>
      <trkpt lat="43.385" lon="6.65852">
        <ele>74.400001525879</ele>
        <time>2013-10-10T09:54:44Z</time>
      </trkpt>
      <trkpt lat="43.38505" lon="6.6585">
        <ele>75.400001525879</ele>
        <time>2013-10-10T09:54:45Z</time>
      </trkpt>
      <trkpt lat="43.3851" lon="6.65848">
        <ele>76.400001525879</ele>
        <time>2013-10-10T09:54:46Z</time>
      </trkpt>
      <trkpt lat="43.38516" lon="6.65836">
        <ele>77.400001525879</ele>
        <time>2013-10-10T09:54:48Z</time>
      </trkpt>
      <trkpt lat="43.38497" lon="6.65817">
        <ele>74</ele>
        <time>2013-10-10T09:54:53Z</time>
      </trkpt>
      <trkpt lat="43.38487" lon="6.65816">
        <ele>72.199996948242</ele>
        <time>2013-10-10T09:54:55Z</time>
      </trkpt>
      <trkpt lat="43.38471" lon="6.65812">
        <ele>69.199996948242</ele>
        <time>2013-10-10T09:54:59Z</time>
      </trkpt>
      <trkpt lat="43.38458" lon="6.65813">
        <ele>66.599998474121</ele>
        <time>2013-10-10T09:55:02Z</time>
      </trkpt>
      <trkpt lat="43.3845" lon="6.65812">
        <ele>65</ele>
        <time>2013-10-10T09:55:04Z</time>
      </trkpt>
      <trkpt lat="43.3844" lon="6.6579">
        <ele>62.799999237061</ele>
        <time>2013-10-10T09:55:09Z</time>
      </trkpt>
      <trkpt lat="43.38441" lon="6.65752">
        <ele>63</ele>
        <time>2013-10-10T09:55:14Z</time>
      </trkpt>
      <trkpt lat="43.3845" lon="6.65726">
        <ele>63</ele>
        <time>2013-10-10T09:55:18Z</time>
      </trkpt>
      <trkpt lat="43.38474" lon="6.65689">
        <ele>66.199996948242</ele>
        <time>2013-10-10T09:55:25Z</time>
      </trkpt>
      <trkpt lat="43.38489" lon="6.65658">
        <ele>67.800003051758</ele>
        <time>2013-10-10T09:55:30Z</time>
      </trkpt>
      <trkpt lat="43.38494" lon="6.65612">
        <ele>64.800003051758</ele>
        <time>2013-10-10T09:55:37Z</time>
      </trkpt>
      <trkpt lat="43.38495" lon="6.65605">
        <ele>64</ele>
        <time>2013-10-10T09:55:38Z</time>
      </trkpt>
      <trkpt lat="43.38494" lon="6.65589">
        <ele>62.200000762939</ele>
        <time>2013-10-10T09:55:40Z</time>
      </trkpt>
      <trkpt lat="43.38499" lon="6.65558">
        <ele>62.599998474121</ele>
        <time>2013-10-10T09:55:44Z</time>
      </trkpt>
      <trkpt lat="43.38507" lon="6.65536">
        <ele>64</ele>
        <time>2013-10-10T09:55:47Z</time>
      </trkpt>
      <trkpt lat="43.38517" lon="6.65521">
        <ele>65.599998474121</ele>
        <time>2013-10-10T09:55:50Z</time>
      </trkpt>
      <trkpt lat="43.38508" lon="6.65513">
        <ele>64</ele>
        <time>2013-10-10T09:55:55Z</time>
      </trkpt>
      <trkpt lat="43.38488" lon="6.65517">
        <ele>60.799999237061</ele>
        <time>2013-10-10T09:56:01Z</time>
      </trkpt>
      <trkpt lat="43.38471" lon="6.65518">
        <ele>57.799999237061</ele>
        <time>2013-10-10T09:56:07Z</time>
      </trkpt>
      <trkpt lat="43.38461" lon="6.65514">
        <ele>56</ele>
        <time>2013-10-10T09:56:11Z</time>
      </trkpt>
      <trkpt lat="43.38462" lon="6.65497">
        <ele>56.400001525879</ele>
        <time>2013-10-10T09:56:17Z</time>
      </trkpt>
      <trkpt lat="43.38477" lon="6.6548">
        <ele>59.400001525879</ele>
        <time>2013-10-10T09:56:27Z</time>
      </trkpt>
      <trkpt lat="43.38493" lon="6.65463">
        <ele>62.400001525879</ele>
        <time>2013-10-10T09:56:37Z</time>
      </trkpt>
      <trkpt lat="43.38509" lon="6.65445">
        <ele>65.599998474121</ele>
        <time>2013-10-10T09:56:48Z</time>
      </trkpt>
      <trkpt lat="43.38513" lon="6.65438">
        <ele>66.199996948242</ele>
        <time>2013-10-10T09:56:50Z</time>
      </trkpt>
      <trkpt lat="43.38518" lon="6.65428">
        <ele>67.199996948242</ele>
        <time>2013-10-10T09:56:52Z</time>
      </trkpt>
      <trkpt lat="43.38519" lon="6.65406">
        <ele>69.400001525879</ele>
        <time>2013-10-10T09:56:56Z</time>
      </trkpt>
      <trkpt lat="43.38512" lon="6.65388">
        <ele>71</ele>
        <time>2013-10-10T09:57:02Z</time>
      </trkpt>
      <trkpt lat="43.38496" lon="6.6537">
        <ele>70.400001525879</ele>
        <time>2013-10-10T09:57:15Z</time>
      </trkpt>
      <trkpt lat="43.38486" lon="6.65352">
        <ele>70.199996948242</ele>
        <time>2013-10-10T09:57:28Z</time>
      </trkpt>
      <trkpt lat="43.38484" lon="6.65326">
        <ele>73</ele>
        <time>2013-10-10T09:57:42Z</time>
      </trkpt>
      <trkpt lat="43.38484" lon="6.6531">
        <ele>75.199996948242</ele>
        <time>2013-10-10T09:57:57Z</time>
      </trkpt>
      <trkpt lat="43.38485" lon="6.65293">
        <ele>77.800003051758</ele>
        <time>2013-10-10T09:58:12Z</time>
      </trkpt>
      <trkpt lat="43.38488" lon="6.65278">
        <ele>80.800003051758</ele>
        <time>2013-10-10T09:58:23Z</time>
      </trkpt>
      <trkpt lat="43.38492" lon="6.65266">
        <ele>83.800003051758</ele>
        <time>2013-10-10T09:58:33Z</time>
      </trkpt>
      <trkpt lat="43.38492" lon="6.65242">
        <ele>86.199996948242</ele>
        <time>2013-10-10T09:58:50Z</time>
      </trkpt>
      <trkpt lat="43.38492" lon="6.65218">
        <ele>86.800003051758</ele>
        <time>2013-10-10T09:59:06Z</time>
      </trkpt>
      <trkpt lat="43.38493" lon="6.65208">
        <ele>87.400001525879</ele>
        <time>2013-10-10T09:59:10Z</time>
      </trkpt>
      <trkpt lat="43.385" lon="6.65184">
        <ele>90.599998474121</ele>
        <time>2013-10-10T09:59:20Z</time>
      </trkpt>
      <trkpt lat="43.38511" lon="6.65174">
        <ele>93.800003051758</ele>
        <time>2013-10-10T09:59:26Z</time>
      </trkpt>
      <trkpt lat="43.38522" lon="6.65161">
        <ele>96.800003051758</ele>
        <time>2013-10-10T09:59:33Z</time>
      </trkpt>
      <trkpt lat="43.38538" lon="6.65133">
        <ele>99.400001525879</ele>
        <time>2013-10-10T09:59:46Z</time>
      </trkpt>
      <trkpt lat="43.38553" lon="6.65104">
        <ele>101.80000305176</ele>
        <time>2013-10-10T10:00:01Z</time>
      </trkpt>
      <trkpt lat="43.38556" lon="6.65099">
        <ele>102.40000152588</ele>
        <time>2013-10-10T10:00:04Z</time>
      </trkpt>
      <trkpt lat="43.38567" lon="6.65092">
        <ele>105.40000152588</ele>
        <time>2013-10-10T10:00:11Z</time>
      </trkpt>
      <trkpt lat="43.38579" lon="6.65083">
        <ele>108.59999847412</ele>
        <time>2013-10-10T10:00:19Z</time>
      </trkpt>
      <trkpt lat="43.38587" lon="6.65065">
        <ele>111.59999847412</ele>
        <time>2013-10-10T10:00:28Z</time>
      </trkpt>
      <trkpt lat="43.38589" lon="6.65034">
        <ele>112.80000305176</ele>
        <time>2013-10-10T10:00:41Z</time>
      </trkpt>
      <trkpt lat="43.38587" lon="6.65007">
        <ele>112.59999847412</ele>
        <time>2013-10-10T10:00:54Z</time>
      </trkpt>
      <trkpt lat="43.38584" lon="6.6498">
        <ele>111.80000305176</ele>
        <time>2013-10-10T10:01:08Z</time>
      </trkpt>
      <trkpt lat="43.38585" lon="6.64948">
        <ele>113</ele>
        <time>2013-10-10T10:01:25Z</time>
      </trkpt>
      <trkpt lat="43.38586" lon="6.6492">
        <ele>113.59999847412</ele>
        <time>2013-10-10T10:01:41Z</time>
      </trkpt>
      <trkpt lat="43.38599" lon="6.649">
        <ele>114.19999694824</ele>
        <time>2013-10-10T10:01:57Z</time>
      </trkpt>
      <trkpt lat="43.3862" lon="6.64885">
        <ele>116.59999847412</ele>
        <time>2013-10-10T10:02:13Z</time>
      </trkpt>
      <trkpt lat="43.38644" lon="6.6487">
        <ele>119.19999694824</ele>
        <time>2013-10-10T10:02:28Z</time>
      </trkpt>
      <trkpt lat="43.3867" lon="6.64857">
        <ele>122.19999694824</ele>
        <time>2013-10-10T10:02:43Z</time>
      </trkpt>
      <trkpt lat="43.38682" lon="6.64855">
        <ele>125.19999694824</ele>
        <time>2013-10-10T10:02:50Z</time>
      </trkpt>
      <trkpt lat="43.38695" lon="6.64854">
        <ele>128.60000610352</ele>
        <time>2013-10-10T10:02:58Z</time>
      </trkpt>
      <trkpt lat="43.38705" lon="6.64853">
        <ele>131.19999694824</ele>
        <time>2013-10-10T10:03:04Z</time>
      </trkpt>
      <trkpt lat="43.38721" lon="6.64846">
        <ele>134.19999694824</ele>
        <time>2013-10-10T10:03:14Z</time>
      </trkpt>
      <trkpt lat="43.38735" lon="6.64841">
        <ele>137.19999694824</ele>
        <time>2013-10-10T10:03:23Z</time>
      </trkpt>
      <trkpt lat="43.38751" lon="6.64822">
        <ele>138.60000610352</ele>
        <time>2013-10-10T10:03:36Z</time>
      </trkpt>
      <trkpt lat="43.38763" lon="6.64782">
        <ele>135.60000610352</ele>
        <time>2013-10-10T10:03:48Z</time>
      </trkpt>
      <trkpt lat="43.38764" lon="6.6476">
        <ele>132.60000610352</ele>
        <time>2013-10-10T10:03:56Z</time>
      </trkpt>
      <trkpt lat="43.38764" lon="6.6474">
        <ele>129.39999389648</ele>
        <time>2013-10-10T10:04:01Z</time>
      </trkpt>
      <trkpt lat="43.38769" lon="6.64714">
        <ele>125.59999847412</ele>
        <time>2013-10-10T10:04:06Z</time>
      </trkpt>
      <trkpt lat="43.38762" lon="6.647">
        <ele>122</ele>
        <time>2013-10-10T10:04:10Z</time>
      </trkpt>
      <trkpt lat="43.38752" lon="6.64686">
        <ele>118.80000305176</ele>
        <time>2013-10-10T10:04:14Z</time>
      </trkpt>
      <trkpt lat="43.38738" lon="6.64681">
        <ele>115</ele>
        <time>2013-10-10T10:04:17Z</time>
      </trkpt>
      <trkpt lat="43.38734" lon="6.64678">
        <ele>113.59999847412</ele>
        <time>2013-10-10T10:04:18Z</time>
      </trkpt>
      <trkpt lat="43.3873" lon="6.64674">
        <ele>112.19999694824</ele>
        <time>2013-10-10T10:04:19Z</time>
      </trkpt>
      <trkpt lat="43.3872" lon="6.64661">
        <ele>108</ele>
        <time>2013-10-10T10:04:22Z</time>
      </trkpt>
      <trkpt lat="43.38707" lon="6.64658">
        <ele>104.80000305176</ele>
        <time>2013-10-10T10:04:26Z</time>
      </trkpt>
      <trkpt lat="43.38695" lon="6.64655">
        <ele>101.80000305176</ele>
        <time>2013-10-10T10:04:29Z</time>
      </trkpt>
      <trkpt lat="43.3869" lon="6.64655">
        <ele>100.59999847412</ele>
        <time>2013-10-10T10:04:30Z</time>
      </trkpt>
      <trkpt lat="43.38676" lon="6.64649">
        <ele>97.199996948242</ele>
        <time>2013-10-10T10:04:35Z</time>
      </trkpt>
      <trkpt lat="43.38675" lon="6.64647">
        <ele>96.800003051758</ele>
        <time>2013-10-10T10:04:36Z</time>
      </trkpt>
      <trkpt lat="43.38663" lon="6.64639">
        <ele>93.800003051758</ele>
        <time>2013-10-10T10:04:41Z</time>
      </trkpt>
      <trkpt lat="43.38648" lon="6.64643">
        <ele>90.599998474121</ele>
        <time>2013-10-10T10:04:47Z</time>
      </trkpt>
      <trkpt lat="43.38639" lon="6.64633">
        <ele>88.199996948242</ele>
        <time>2013-10-10T10:04:51Z</time>
      </trkpt>
      <trkpt lat="43.38626" lon="6.64625">
        <ele>85.199996948242</ele>
        <time>2013-10-10T10:04:56Z</time>
      </trkpt>
      <trkpt lat="43.38621" lon="6.64613">
        <ele>83.800003051758</ele>
        <time>2013-10-10T10:05:00Z</time>
      </trkpt>
      <trkpt lat="43.38607" lon="6.64611">
        <ele>81.400001525879</ele>
        <time>2013-10-10T10:05:04Z</time>
      </trkpt>
      <trkpt lat="43.38601" lon="6.64611">
        <ele>80.199996948242</ele>
        <time>2013-10-10T10:05:06Z</time>
      </trkpt>
      <trkpt lat="43.38602" lon="6.64597">
        <ele>80.599998474121</ele>
        <time>2013-10-10T10:05:13Z</time>
      </trkpt>
      <trkpt lat="43.3861" lon="6.64578">
        <ele>81.599998474121</ele>
        <time>2013-10-10T10:05:20Z</time>
      </trkpt>
      <trkpt lat="43.38616" lon="6.64572">
        <ele>82</ele>
        <time>2013-10-10T10:05:22Z</time>
      </trkpt>
      <trkpt lat="43.3862" lon="6.64572">
        <ele>82.599998474121</ele>
        <time>2013-10-10T10:05:25Z</time>
      </trkpt>
      <trkpt lat="43.38623" lon="6.64567">
        <ele>82.599998474121</ele>
        <time>2013-10-10T10:05:31Z</time>
      </trkpt>
      <trkpt lat="43.38627" lon="6.64549">
        <ele>81.800003051758</ele>
        <time>2013-10-10T10:05:43Z</time>
      </trkpt>
      <trkpt lat="43.38627" lon="6.64541">
        <ele>81.199996948242</ele>
        <time>2013-10-10T10:05:46Z</time>
      </trkpt>
      <trkpt lat="43.3861" lon="6.64542">
        <ele>80</ele>
        <time>2013-10-10T10:05:54Z</time>
      </trkpt>
      <trkpt lat="43.38597" lon="6.64545">
        <ele>79</ele>
        <time>2013-10-10T10:05:57Z</time>
      </trkpt>
      <trkpt lat="43.38573" lon="6.64533">
        <ele>77.400001525879</ele>
        <time>2013-10-10T10:06:03Z</time>
      </trkpt>
      <trkpt lat="43.38567" lon="6.64532">
        <ele>77.199996948242</ele>
        <time>2013-10-10T10:06:05Z</time>
      </trkpt>
      <trkpt lat="43.38543" lon="6.64528">
        <ele>76.199996948242</ele>
        <time>2013-10-10T10:06:12Z</time>
      </trkpt>
      <trkpt lat="43.38518" lon="6.64544">
        <ele>74.800003051758</ele>
        <time>2013-10-10T10:06:18Z</time>
      </trkpt>
      <trkpt lat="43.38499" lon="6.64556">
        <ele>73.800003051758</ele>
        <time>2013-10-10T10:06:29Z</time>
      </trkpt>
      <trkpt lat="43.38485" lon="6.64561">
        <ele>76.800003051758</ele>
        <time>2013-10-10T10:06:38Z</time>
      </trkpt>
      <trkpt lat="43.38471" lon="6.64561">
        <ele>79.800003051758</ele>
        <time>2013-10-10T10:06:49Z</time>
      </trkpt>
      <trkpt lat="43.38457" lon="6.64561">
        <ele>82.800003051758</ele>
        <time>2013-10-10T10:07:02Z</time>
      </trkpt>
      <trkpt lat="43.38447" lon="6.6456">
        <ele>85</ele>
        <time>2013-10-10T10:07:13Z</time>
      </trkpt>
      <trkpt lat="43.38441" lon="6.64559">
        <ele>86.400001525879</ele>
        <time>2013-10-10T10:07:19Z</time>
      </trkpt>
      <trkpt lat="43.38427" lon="6.6456">
        <ele>89.400001525879</ele>
        <time>2013-10-10T10:07:38Z</time>
      </trkpt>
      <trkpt lat="43.38414" lon="6.6456">
        <ele>92</ele>
        <time>2013-10-10T10:07:57Z</time>
      </trkpt>
      <trkpt lat="43.38403" lon="6.64561">
        <ele>93</ele>
        <time>2013-10-10T10:08:13Z</time>
      </trkpt>
      <trkpt lat="43.38389" lon="6.6456">
        <ele>94.199996948242</ele>
        <time>2013-10-10T10:08:32Z</time>
      </trkpt>
      <trkpt lat="43.38378" lon="6.64563">
        <ele>95.199996948242</ele>
        <time>2013-10-10T10:08:46Z</time>
      </trkpt>
      <trkpt lat="43.38363" lon="6.64571">
        <ele>96</ele>
        <time>2013-10-10T10:09:01Z</time>
      </trkpt>
      <trkpt lat="43.38346" lon="6.64581">
        <ele>97</ele>
        <time>2013-10-10T10:09:17Z</time>
      </trkpt>
      <trkpt lat="43.38311" lon="6.64574">
        <ele>97.400001525879</ele>
        <time>2013-10-10T10:09:30Z</time>
      </trkpt>
      <trkpt lat="43.38262" lon="6.64556">
        <ele>96.400001525879</ele>
        <time>2013-10-10T10:09:45Z</time>
      </trkpt>
      <trkpt lat="43.38229" lon="6.64551">
        <ele>93.400001525879</ele>
        <time>2013-10-10T10:09:55Z</time>
      </trkpt>
      <trkpt lat="43.38212" lon="6.64538">
        <ele>91.800003051758</ele>
        <time>2013-10-10T10:10:02Z</time>
      </trkpt>
      <trkpt lat="43.38208" lon="6.64524">
        <ele>92</ele>
        <time>2013-10-10T10:10:06Z</time>
      </trkpt>
      <trkpt lat="43.38206" lon="6.64468">
        <ele>94.199996948242</ele>
        <time>2013-10-10T10:10:19Z</time>
      </trkpt>
      <trkpt lat="43.38202" lon="6.6442">
        <ele>95.199996948242</ele>
        <time>2013-10-10T10:10:30Z</time>
      </trkpt>
      <trkpt lat="43.382" lon="6.6441">
        <ele>95.199996948242</ele>
        <time>2013-10-10T10:10:32Z</time>
      </trkpt>
      <trkpt lat="43.38208" lon="6.64376">
        <ele>97.400001525879</ele>
        <time>2013-10-10T10:10:38Z</time>
      </trkpt>
      <trkpt lat="43.38227" lon="6.64341">
        <ele>100.40000152588</ele>
        <time>2013-10-10T10:10:46Z</time>
      </trkpt>
      <trkpt lat="43.38237" lon="6.64304">
        <ele>102.19999694824</ele>
        <time>2013-10-10T10:10:56Z</time>
      </trkpt>
      <trkpt lat="43.38234" lon="6.64294">
        <ele>102.19999694824</ele>
        <time>2013-10-10T10:10:59Z</time>
      </trkpt>
      <trkpt lat="43.38225" lon="6.64301">
        <ele>101.59999847412</ele>
        <time>2013-10-10T10:11:03Z</time>
      </trkpt>
      <trkpt lat="43.38217" lon="6.64319">
        <ele>100.19999694824</ele>
        <time>2013-10-10T10:11:07Z</time>
      </trkpt>
      <trkpt lat="43.38209" lon="6.64328">
        <ele>98.800003051758</ele>
        <time>2013-10-10T10:11:09Z</time>
      </trkpt>
      <trkpt lat="43.38187" lon="6.64342">
        <ele>95.800003051758</ele>
        <time>2013-10-10T10:11:13Z</time>
      </trkpt>
      <trkpt lat="43.38168" lon="6.6436">
        <ele>92.599998474121</ele>
        <time>2013-10-10T10:11:18Z</time>
      </trkpt>
      <trkpt lat="43.38156" lon="6.64374">
        <ele>91.800003051758</ele>
        <time>2013-10-10T10:11:21Z</time>
      </trkpt>
      <trkpt lat="43.38137" lon="6.6441">
        <ele>88.400001525879</ele>
        <time>2013-10-10T10:11:27Z</time>
      </trkpt>
      <trkpt lat="43.38099" lon="6.64437">
        <ele>85.400001525879</ele>
        <time>2013-10-10T10:11:35Z</time>
      </trkpt>
      <trkpt lat="43.38093" lon="6.64432">
        <ele>85.400001525879</ele>
        <time>2013-10-10T10:11:36Z</time>
      </trkpt>
      <trkpt lat="43.38088" lon="6.64428">
        <ele>85.400001525879</ele>
        <time>2013-10-10T10:11:37Z</time>
      </trkpt>
      <trkpt lat="43.38041" lon="6.64435">
        <ele>86</ele>
        <time>2013-10-10T10:11:45Z</time>
      </trkpt>
      <trkpt lat="43.38026" lon="6.64451">
        <ele>85.800003051758</ele>
        <time>2013-10-10T10:11:48Z</time>
      </trkpt>
      <trkpt lat="43.38006" lon="6.64454">
        <ele>86.400001525879</ele>
        <time>2013-10-10T10:11:52Z</time>
      </trkpt>
      <trkpt lat="43.38" lon="6.64452">
        <ele>86.599998474121</ele>
        <time>2013-10-10T10:11:53Z</time>
      </trkpt>
      <trkpt lat="43.37951" lon="6.64444">
        <ele>86.400001525879</ele>
        <time>2013-10-10T10:12:02Z</time>
      </trkpt>
      <trkpt lat="43.3793" lon="6.64443">
        <ele>86.400001525879</ele>
        <time>2013-10-10T10:12:06Z</time>
      </trkpt>
      <trkpt lat="43.37916" lon="6.64447">
        <ele>86.400001525879</ele>
        <time>2013-10-10T10:12:09Z</time>
      </trkpt>
      <trkpt lat="43.3789" lon="6.64451">
        <ele>87.800003051758</ele>
        <time>2013-10-10T10:12:14Z</time>
      </trkpt>
      <trkpt lat="43.3785" lon="6.64469">
        <ele>89.400001525879</ele>
        <time>2013-10-10T10:12:24Z</time>
      </trkpt>
      <trkpt lat="43.37808" lon="6.64502">
        <ele>90.199996948242</ele>
        <time>2013-10-10T10:12:37Z</time>
      </trkpt>
      <trkpt lat="43.37769" lon="6.64519">
        <ele>92.199996948242</ele>
        <time>2013-10-10T10:12:50Z</time>
      </trkpt>
      <trkpt lat="43.37752" lon="6.64547">
        <ele>91.800003051758</ele>
        <time>2013-10-10T10:13:01Z</time>
      </trkpt>
      <trkpt lat="43.37748" lon="6.64558">
        <ele>91.599998474121</ele>
        <time>2013-10-10T10:13:05Z</time>
      </trkpt>
      <trkpt lat="43.3774" lon="6.64573">
        <ele>91.599998474121</ele>
        <time>2013-10-10T10:13:14Z</time>
      </trkpt>
      <trkpt lat="43.3771" lon="6.64594">
        <ele>93</ele>
        <time>2013-10-10T10:13:30Z</time>
      </trkpt>
      <trkpt lat="43.37679" lon="6.64597">
        <ele>94</ele>
        <time>2013-10-10T10:13:43Z</time>
      </trkpt>
      <trkpt lat="43.37647" lon="6.6458">
        <ele>95</ele>
        <time>2013-10-10T10:13:58Z</time>
      </trkpt>
      <trkpt lat="43.37644" lon="6.64578">
        <ele>95.599998474121</ele>
        <time>2013-10-10T10:13:59Z</time>
      </trkpt>
      <trkpt lat="43.37624" lon="6.64577">
        <ele>96.400001525879</ele>
        <time>2013-10-10T10:14:04Z</time>
      </trkpt>
      <trkpt lat="43.37612" lon="6.64578">
        <ele>96.800003051758</ele>
        <time>2013-10-10T10:14:07Z</time>
      </trkpt>
      <trkpt lat="43.37561" lon="6.64602">
        <ele>99</ele>
        <time>2013-10-10T10:14:20Z</time>
      </trkpt>
      <trkpt lat="43.37521" lon="6.64636">
        <ele>100</ele>
        <time>2013-10-10T10:14:32Z</time>
      </trkpt>
      <trkpt lat="43.37483" lon="6.64667">
        <ele>99.599998474121</ele>
        <time>2013-10-10T10:14:45Z</time>
      </trkpt>
      <trkpt lat="43.37464" lon="6.6468">
        <ele>102.59999847412</ele>
        <time>2013-10-10T10:14:52Z</time>
      </trkpt>
      <trkpt lat="43.3743" lon="6.64709">
        <ele>105</ele>
        <time>2013-10-10T10:15:05Z</time>
      </trkpt>
      <trkpt lat="43.37392" lon="6.6474">
        <ele>103.19999694824</ele>
        <time>2013-10-10T10:15:19Z</time>
      </trkpt>
      <trkpt lat="43.37349" lon="6.64766">
        <ele>104.40000152588</ele>
        <time>2013-10-10T10:15:33Z</time>
      </trkpt>
      <trkpt lat="43.37308" lon="6.64769">
        <ele>106</ele>
        <time>2013-10-10T10:15:44Z</time>
      </trkpt>
      <trkpt lat="43.37297" lon="6.6477">
        <ele>106.59999847412</ele>
        <time>2013-10-10T10:15:47Z</time>
      </trkpt>
      <trkpt lat="43.37265" lon="6.64753">
        <ele>105.80000305176</ele>
        <time>2013-10-10T10:15:57Z</time>
      </trkpt>
      <trkpt lat="43.37244" lon="6.6472">
        <ele>106</ele>
        <time>2013-10-10T10:16:08Z</time>
      </trkpt>
      <trkpt lat="43.37223" lon="6.64693">
        <ele>107.19999694824</ele>
        <time>2013-10-10T10:16:18Z</time>
      </trkpt>
      <trkpt lat="43.37209" lon="6.64695">
        <ele>107.59999847412</ele>
        <time>2013-10-10T10:16:23Z</time>
      </trkpt>
      <trkpt lat="43.37171" lon="6.6471">
        <ele>108.59999847412</ele>
        <time>2013-10-10T10:16:37Z</time>
      </trkpt>
      <trkpt lat="43.37135" lon="6.64727">
        <ele>108.80000305176</ele>
        <time>2013-10-10T10:16:49Z</time>
      </trkpt>
      <trkpt lat="43.37111" lon="6.64737">
        <ele>108</ele>
        <time>2013-10-10T10:16:56Z</time>
      </trkpt>
      <trkpt lat="43.37098" lon="6.64744">
        <ele>107</ele>
        <time>2013-10-10T10:17:00Z</time>
      </trkpt>
      <trkpt lat="43.37058" lon="6.64767">
        <ele>108.40000152588</ele>
        <time>2013-10-10T10:17:12Z</time>
      </trkpt>
      <trkpt lat="43.37014" lon="6.6477">
        <ele>110</ele>
        <time>2013-10-10T10:17:24Z</time>
      </trkpt>
      <trkpt lat="43.36973" lon="6.64756">
        <ele>110</ele>
        <time>2013-10-10T10:17:36Z</time>
      </trkpt>
      <trkpt lat="43.3693" lon="6.64762">
        <ele>111.19999694824</ele>
        <time>2013-10-10T10:17:49Z</time>
      </trkpt>
      <trkpt lat="43.36897" lon="6.6478">
        <ele>114.40000152588</ele>
        <time>2013-10-10T10:18:00Z</time>
      </trkpt>
      <trkpt lat="43.36874" lon="6.64811">
        <ele>116.19999694824</ele>
        <time>2013-10-10T10:18:12Z</time>
      </trkpt>
      <trkpt lat="43.36869" lon="6.64847">
        <ele>117.80000305176</ele>
        <time>2013-10-10T10:18:22Z</time>
      </trkpt>
      <trkpt lat="43.36865" lon="6.64857">
        <ele>119.40000152588</ele>
        <time>2013-10-10T10:18:26Z</time>
      </trkpt>
      <trkpt lat="43.36856" lon="6.64861">
        <ele>120.19999694824</ele>
        <time>2013-10-10T10:18:30Z</time>
      </trkpt>
      <trkpt lat="43.36812" lon="6.64872">
        <ele>123.19999694824</ele>
        <time>2013-10-10T10:18:43Z</time>
      </trkpt>
      <trkpt lat="43.36771" lon="6.64878">
        <ele>125</ele>
        <time>2013-10-10T10:18:57Z</time>
      </trkpt>
      <trkpt lat="43.36719" lon="6.64885">
        <ele>125.19999694824</ele>
        <time>2013-10-10T10:19:13Z</time>
      </trkpt>
      <trkpt lat="43.36685" lon="6.64898">
        <ele>124.19999694824</ele>
        <time>2013-10-10T10:19:26Z</time>
      </trkpt>
      <trkpt lat="43.3665" lon="6.64914">
        <ele>123</ele>
        <time>2013-10-10T10:19:40Z</time>
      </trkpt>
      <trkpt lat="43.36618" lon="6.64933">
        <ele>124.40000152588</ele>
        <time>2013-10-10T10:19:51Z</time>
      </trkpt>
      <trkpt lat="43.36581" lon="6.6496">
        <ele>125</ele>
        <time>2013-10-10T10:20:05Z</time>
      </trkpt>
      <trkpt lat="43.36567" lon="6.64986">
        <ele>127</ele>
        <time>2013-10-10T10:20:15Z</time>
      </trkpt>
      <trkpt lat="43.36566" lon="6.65037">
        <ele>129.80000305176</ele>
        <time>2013-10-10T10:20:27Z</time>
      </trkpt>
      <trkpt lat="43.36573" lon="6.65096">
        <ele>131.80000305176</ele>
        <time>2013-10-10T10:20:40Z</time>
      </trkpt>
      <trkpt lat="43.36586" lon="6.65153">
        <ele>132.60000610352</ele>
        <time>2013-10-10T10:20:54Z</time>
      </trkpt>
      <trkpt lat="43.36589" lon="6.65204">
        <ele>134.19999694824</ele>
        <time>2013-10-10T10:21:07Z</time>
      </trkpt>
      <trkpt lat="43.36585" lon="6.65261">
        <ele>134</ele>
        <time>2013-10-10T10:21:20Z</time>
      </trkpt>
      <trkpt lat="43.36589" lon="6.65308">
        <ele>137</ele>
        <time>2013-10-10T10:21:33Z</time>
      </trkpt>
      <trkpt lat="43.36597" lon="6.65331">
        <ele>140.19999694824</ele>
        <time>2013-10-10T10:21:40Z</time>
      </trkpt>
      <trkpt lat="43.36596" lon="6.6538">
        <ele>141.39999389648</ele>
        <time>2013-10-10T10:21:51Z</time>
      </trkpt>
      <trkpt lat="43.36597" lon="6.65396">
        <ele>142</ele>
        <time>2013-10-10T10:21:55Z</time>
      </trkpt>
      <trkpt lat="43.36597" lon="6.65411">
        <ele>142.39999389648</ele>
        <time>2013-10-10T10:21:59Z</time>
      </trkpt>
      <trkpt lat="43.36599" lon="6.65458">
        <ele>145.39999389648</ele>
        <time>2013-10-10T10:22:09Z</time>
      </trkpt>
      <trkpt lat="43.36606" lon="6.65485">
        <ele>147.39999389648</ele>
        <time>2013-10-10T10:22:17Z</time>
      </trkpt>
      <trkpt lat="43.36615" lon="6.65517">
        <ele>148.39999389648</ele>
        <time>2013-10-10T10:22:30Z</time>
      </trkpt>
      <trkpt lat="43.36613" lon="6.65553">
        <ele>148.60000610352</ele>
        <time>2013-10-10T10:22:43Z</time>
      </trkpt>
      <trkpt lat="43.36617" lon="6.65594">
        <ele>148.80000305176</ele>
        <time>2013-10-10T10:22:54Z</time>
      </trkpt>
      <trkpt lat="43.36627" lon="6.65617">
        <ele>148.80000305176</ele>
        <time>2013-10-10T10:23:05Z</time>
      </trkpt>
      <trkpt lat="43.36637" lon="6.65646">
        <ele>149.19999694824</ele>
        <time>2013-10-10T10:23:18Z</time>
      </trkpt>
      <trkpt lat="43.36647" lon="6.6568">
        <ele>150.19999694824</ele>
        <time>2013-10-10T10:23:31Z</time>
      </trkpt>
      <trkpt lat="43.36665" lon="6.65719">
        <ele>150.60000610352</ele>
        <time>2013-10-10T10:23:46Z</time>
      </trkpt>
      <trkpt lat="43.36675" lon="6.65738">
        <ele>152.80000305176</ele>
        <time>2013-10-10T10:23:55Z</time>
      </trkpt>
      <trkpt lat="43.36682" lon="6.65768">
        <ele>154.60000610352</ele>
        <time>2013-10-10T10:24:09Z</time>
      </trkpt>
      <trkpt lat="43.36665" lon="6.65806">
        <ele>153.19999694824</ele>
        <time>2013-10-10T10:24:26Z</time>
      </trkpt>
      <trkpt lat="43.36655" lon="6.6583">
        <ele>156.19999694824</ele>
        <time>2013-10-10T10:24:38Z</time>
      </trkpt>
      <trkpt lat="43.3665" lon="6.65857">
        <ele>159.19999694824</ele>
        <time>2013-10-10T10:24:47Z</time>
      </trkpt>
      <trkpt lat="43.36667" lon="6.65869">
        <ele>156.80000305176</ele>
        <time>2013-10-10T10:24:57Z</time>
      </trkpt>
      <trkpt lat="43.36694" lon="6.65858">
        <ele>158.19999694824</ele>
        <time>2013-10-10T10:25:13Z</time>
      </trkpt>
      <trkpt lat="43.36715" lon="6.65869">
        <ele>160.60000610352</ele>
        <time>2013-10-10T10:25:29Z</time>
      </trkpt>
      <trkpt lat="43.36726" lon="6.65901">
        <ele>163</ele>
        <time>2013-10-10T10:25:47Z</time>
      </trkpt>
      <trkpt lat="43.36736" lon="6.65934">
        <ele>166</ele>
        <time>2013-10-10T10:26:04Z</time>
      </trkpt>
      <trkpt lat="43.36742" lon="6.65961">
        <ele>168.80000305176</ele>
        <time>2013-10-10T10:26:20Z</time>
      </trkpt>
      <trkpt lat="43.36749" lon="6.65988">
        <ele>171.80000305176</ele>
        <time>2013-10-10T10:26:33Z</time>
      </trkpt>
      <trkpt lat="43.36757" lon="6.66023">
        <ele>174</ele>
        <time>2013-10-10T10:26:50Z</time>
      </trkpt>
      <trkpt lat="43.3676" lon="6.66056">
        <ele>175.39999389648</ele>
        <time>2013-10-10T10:27:05Z</time>
      </trkpt>
      <trkpt lat="43.36758" lon="6.66095">
        <ele>177.39999389648</ele>
        <time>2013-10-10T10:27:22Z</time>
      </trkpt>
      <trkpt lat="43.36765" lon="6.6614">
        <ele>175.19999694824</ele>
        <time>2013-10-10T10:27:42Z</time>
      </trkpt>
      <trkpt lat="43.36756" lon="6.66182">
        <ele>178.19999694824</ele>
        <time>2013-10-10T10:27:58Z</time>
      </trkpt>
      <trkpt lat="43.36747" lon="6.66207">
        <ele>181.19999694824</ele>
        <time>2013-10-10T10:28:07Z</time>
      </trkpt>
      <trkpt lat="43.36724" lon="6.66235">
        <ele>184.39999389648</ele>
        <time>2013-10-10T10:28:21Z</time>
      </trkpt>
      <trkpt lat="43.367" lon="6.66246">
        <ele>187.19999694824</ele>
        <time>2013-10-10T10:32:07Z</time>
      </trkpt>
      <trkpt lat="43.36699" lon="6.66249">
        <ele>187.39999389648</ele>
        <time>2013-10-10T10:32:15Z</time>
      </trkpt>
      <trkpt lat="43.36697" lon="6.66267">
        <ele>187.39999389648</ele>
        <time>2013-10-10T10:32:22Z</time>
      </trkpt>
      <trkpt lat="43.36693" lon="6.66283">
        <ele>187.39999389648</ele>
        <time>2013-10-10T10:32:27Z</time>
      </trkpt>
      <trkpt lat="43.36686" lon="6.66287">
        <ele>187.80000305176</ele>
        <time>2013-10-10T10:32:31Z</time>
      </trkpt>
      <trkpt lat="43.36678" lon="6.6629">
        <ele>188.19999694824</ele>
        <time>2013-10-10T10:32:35Z</time>
      </trkpt>
      <trkpt lat="43.3667" lon="6.66309">
        <ele>187.80000305176</ele>
        <time>2013-10-10T10:32:39Z</time>
      </trkpt>
      <trkpt lat="43.36669" lon="6.66315">
        <ele>187.60000610352</ele>
        <time>2013-10-10T10:32:40Z</time>
      </trkpt>
      <trkpt lat="43.36666" lon="6.66347">
        <ele>186.80000305176</ele>
        <time>2013-10-10T10:32:45Z</time>
      </trkpt>
      <trkpt lat="43.36665" lon="6.66379">
        <ele>185.80000305176</ele>
        <time>2013-10-10T10:32:49Z</time>
      </trkpt>
      <trkpt lat="43.36674" lon="6.66427">
        <ele>182.60000610352</ele>
        <time>2013-10-10T10:32:59Z</time>
      </trkpt>
      <trkpt lat="43.3668" lon="6.6645">
        <ele>179.39999389648</ele>
        <time>2013-10-10T10:33:07Z</time>
      </trkpt>
      <trkpt lat="43.36683" lon="6.66473">
        <ele>176.19999694824</ele>
        <time>2013-10-10T10:33:16Z</time>
      </trkpt>
      <trkpt lat="43.36685" lon="6.66494">
        <ele>173.19999694824</ele>
        <time>2013-10-10T10:33:30Z</time>
      </trkpt>
      <trkpt lat="43.36688" lon="6.66504">
        <ele>171.80000305176</ele>
        <time>2013-10-10T10:33:37Z</time>
      </trkpt>
      <trkpt lat="43.36695" lon="6.66528">
        <ele>168.80000305176</ele>
        <time>2013-10-10T10:33:46Z</time>
      </trkpt>
      <trkpt lat="43.36695" lon="6.66548">
        <ele>167</ele>
        <time>2013-10-10T10:33:51Z</time>
      </trkpt>
      <trkpt lat="43.36698" lon="6.66562">
        <ele>165.19999694824</ele>
        <time>2013-10-10T10:33:53Z</time>
      </trkpt>
      <trkpt lat="43.36704" lon="6.6658">
        <ele>162.19999694824</ele>
        <time>2013-10-10T10:33:56Z</time>
      </trkpt>
      <trkpt lat="43.3671" lon="6.66594">
        <ele>159.19999694824</ele>
        <time>2013-10-10T10:33:59Z</time>
      </trkpt>
      <trkpt lat="43.36717" lon="6.66608">
        <ele>155.80000305176</ele>
        <time>2013-10-10T10:34:03Z</time>
      </trkpt>
      <trkpt lat="43.36723" lon="6.66624">
        <ele>152.39999389648</ele>
        <time>2013-10-10T10:34:08Z</time>
      </trkpt>
      <trkpt lat="43.36724" lon="6.66626">
        <ele>152.19999694824</ele>
        <time>2013-10-10T10:34:09Z</time>
      </trkpt>
      <trkpt lat="43.36724" lon="6.66628">
        <ele>151.80000305176</ele>
        <time>2013-10-10T10:34:10Z</time>
      </trkpt>
      <trkpt lat="43.36723" lon="6.66631">
        <ele>151.60000610352</ele>
        <time>2013-10-10T10:34:12Z</time>
      </trkpt>
      <trkpt lat="43.36726" lon="6.66643">
        <ele>149.60000610352</ele>
        <time>2013-10-10T10:34:18Z</time>
      </trkpt>
      <trkpt lat="43.3673" lon="6.6666">
        <ele>146.60000610352</ele>
        <time>2013-10-10T10:34:27Z</time>
      </trkpt>
      <trkpt lat="43.36732" lon="6.66678">
        <ele>143.60000610352</ele>
        <time>2013-10-10T10:34:33Z</time>
      </trkpt>
      <trkpt lat="43.36732" lon="6.66692">
        <ele>141.19999694824</ele>
        <time>2013-10-10T10:34:35Z</time>
      </trkpt>
      <trkpt lat="43.36732" lon="6.66712">
        <ele>138</ele>
        <time>2013-10-10T10:34:39Z</time>
      </trkpt>
      <trkpt lat="43.3673" lon="6.66731">
        <ele>135</ele>
        <time>2013-10-10T10:34:43Z</time>
      </trkpt>
      <trkpt lat="43.3673" lon="6.66751">
        <ele>132</ele>
        <time>2013-10-10T10:34:47Z</time>
      </trkpt>
      <trkpt lat="43.36731" lon="6.66769">
        <ele>130</ele>
        <time>2013-10-10T10:34:50Z</time>
      </trkpt>
      <trkpt lat="43.36729" lon="6.6679">
        <ele>128</ele>
        <time>2013-10-10T10:34:54Z</time>
      </trkpt>
      <trkpt lat="43.36732" lon="6.66818">
        <ele>124.80000305176</ele>
        <time>2013-10-10T10:34:59Z</time>
      </trkpt>
      <trkpt lat="43.36732" lon="6.66824">
        <ele>124.19999694824</ele>
        <time>2013-10-10T10:35:00Z</time>
      </trkpt>
      <trkpt lat="43.36733" lon="6.66841">
        <ele>122.59999847412</ele>
        <time>2013-10-10T10:35:03Z</time>
      </trkpt>
      <trkpt lat="43.36713" lon="6.66868">
        <ele>123.80000305176</ele>
        <time>2013-10-10T10:35:10Z</time>
      </trkpt>
      <trkpt lat="43.36699" lon="6.66878">
        <ele>126</ele>
        <time>2013-10-10T10:35:18Z</time>
      </trkpt>
      <trkpt lat="43.36709" lon="6.66896">
        <ele>124.19999694824</ele>
        <time>2013-10-10T10:35:30Z</time>
      </trkpt>
      <trkpt lat="43.3671" lon="6.66904">
        <ele>123.59999847412</ele>
        <time>2013-10-10T10:35:35Z</time>
      </trkpt>
      <trkpt lat="43.36711" lon="6.66912">
        <ele>123.40000152588</ele>
        <time>2013-10-10T10:35:39Z</time>
      </trkpt>
      <trkpt lat="43.36714" lon="6.66949">
        <ele>122</ele>
        <time>2013-10-10T10:35:50Z</time>
      </trkpt>
      <trkpt lat="43.36709" lon="6.66999">
        <ele>122.40000152588</ele>
        <time>2013-10-10T10:36:07Z</time>
      </trkpt>
      <trkpt lat="43.36696" lon="6.67054">
        <ele>120.40000152588</ele>
        <time>2013-10-10T10:36:21Z</time>
      </trkpt>
      <trkpt lat="43.36694" lon="6.6706">
        <ele>120.40000152588</ele>
        <time>2013-10-10T10:36:22Z</time>
      </trkpt>
      <trkpt lat="43.36687" lon="6.67088">
        <ele>119</ele>
        <time>2013-10-10T10:36:28Z</time>
      </trkpt>
      <trkpt lat="43.36684" lon="6.67097">
        <ele>119</ele>
        <time>2013-10-10T10:36:30Z</time>
      </trkpt>
      <trkpt lat="43.36684" lon="6.67115">
        <ele>117.19999694824</ele>
        <time>2013-10-10T10:36:33Z</time>
      </trkpt>
      <trkpt lat="43.36689" lon="6.67143">
        <ele>114</ele>
        <time>2013-10-10T10:36:37Z</time>
      </trkpt>
      <trkpt lat="43.3669" lon="6.67187">
        <ele>110.80000305176</ele>
        <time>2013-10-10T10:36:42Z</time>
      </trkpt>
      <trkpt lat="43.3669" lon="6.67203">
        <ele>110</ele>
        <time>2013-10-10T10:36:44Z</time>
      </trkpt>
      <trkpt lat="43.36675" lon="6.6722">
        <ele>110.80000305176</ele>
        <time>2013-10-10T10:36:49Z</time>
      </trkpt>
      <trkpt lat="43.36669" lon="6.67222">
        <ele>111.40000152588</ele>
        <time>2013-10-10T10:36:51Z</time>
      </trkpt>
      <trkpt lat="43.36659" lon="6.67247">
        <ele>111.80000305176</ele>
        <time>2013-10-10T10:36:55Z</time>
      </trkpt>
      <trkpt lat="43.3666" lon="6.67267">
        <ele>111.80000305176</ele>
        <time>2013-10-10T10:36:58Z</time>
      </trkpt>
      <trkpt lat="43.36654" lon="6.6729">
        <ele>113.19999694824</ele>
        <time>2013-10-10T10:37:02Z</time>
      </trkpt>
      <trkpt lat="43.36651" lon="6.67294">
        <ele>113.80000305176</ele>
        <time>2013-10-10T10:37:03Z</time>
      </trkpt>
      <trkpt lat="43.36664" lon="6.67314">
        <ele>112</ele>
        <time>2013-10-10T10:37:09Z</time>
      </trkpt>
      <trkpt lat="43.36696" lon="6.67339">
        <ele>110</ele>
        <time>2013-10-10T10:37:24Z</time>
      </trkpt>
      <trkpt lat="43.36707" lon="6.67371">
        <ele>113</ele>
        <time>2013-10-10T10:37:36Z</time>
      </trkpt>
      <trkpt lat="43.36709" lon="6.67395">
        <ele>116</ele>
        <time>2013-10-10T10:37:43Z</time>
      </trkpt>
      <trkpt lat="43.3671" lon="6.67421">
        <ele>118.80000305176</ele>
        <time>2013-10-10T10:37:49Z</time>
      </trkpt>
      <trkpt lat="43.36727" lon="6.67479">
        <ele>118.80000305176</ele>
        <time>2013-10-10T10:38:02Z</time>
      </trkpt>
      <trkpt lat="43.36748" lon="6.67528">
        <ele>115.80000305176</ele>
        <time>2013-10-10T10:38:14Z</time>
      </trkpt>
      <trkpt lat="43.36759" lon="6.67561">
        <ele>119</ele>
        <time>2013-10-10T10:38:24Z</time>
      </trkpt>
      <trkpt lat="43.36767" lon="6.67584">
        <ele>122.19999694824</ele>
        <time>2013-10-10T10:38:31Z</time>
      </trkpt>
      <trkpt lat="43.36762" lon="6.67616">
        <ele>124</ele>
        <time>2013-10-10T10:38:44Z</time>
      </trkpt>
      <trkpt lat="43.36754" lon="6.67649">
        <ele>125.19999694824</ele>
        <time>2013-10-10T10:38:59Z</time>
      </trkpt>
      <trkpt lat="43.36753" lon="6.67677">
        <ele>128.39999389648</ele>
        <time>2013-10-10T10:39:12Z</time>
      </trkpt>
      <trkpt lat="43.36749" lon="6.67702">
        <ele>131.39999389648</ele>
        <time>2013-10-10T10:39:25Z</time>
      </trkpt>
      <trkpt lat="43.36753" lon="6.67717">
        <ele>134.39999389648</ele>
        <time>2013-10-10T10:39:33Z</time>
      </trkpt>
      <trkpt lat="43.36757" lon="6.67732">
        <ele>137.60000610352</ele>
        <time>2013-10-10T10:39:40Z</time>
      </trkpt>
      <trkpt lat="43.3676" lon="6.67747">
        <ele>140.80000305176</ele>
        <time>2013-10-10T10:39:49Z</time>
      </trkpt>
      <trkpt lat="43.36763" lon="6.67764">
        <ele>144</ele>
        <time>2013-10-10T10:39:58Z</time>
      </trkpt>
      <trkpt lat="43.36766" lon="6.6778">
        <ele>147</ele>
        <time>2013-10-10T10:40:08Z</time>
      </trkpt>
      <trkpt lat="43.36767" lon="6.67782">
        <ele>147.19999694824</ele>
        <time>2013-10-10T10:40:09Z</time>
      </trkpt>
      <trkpt lat="43.36771" lon="6.67796">
        <ele>150.19999694824</ele>
        <time>2013-10-10T10:40:18Z</time>
      </trkpt>
      <trkpt lat="43.36771" lon="6.67797">
        <ele>150.39999389648</ele>
        <time>2013-10-10T10:40:19Z</time>
      </trkpt>
      <trkpt lat="43.36771" lon="6.67802">
        <ele>151.19999694824</ele>
        <time>2013-10-10T10:40:22Z</time>
      </trkpt>
      <trkpt lat="43.36772" lon="6.6781">
        <ele>152.39999389648</ele>
        <time>2013-10-10T10:40:27Z</time>
      </trkpt>
      <trkpt lat="43.36773" lon="6.67812">
        <ele>152.60000610352</ele>
        <time>2013-10-10T10:40:28Z</time>
      </trkpt>
      <trkpt lat="43.36773" lon="6.6782">
        <ele>153.80000305176</ele>
        <time>2013-10-10T10:40:33Z</time>
      </trkpt>
      <trkpt lat="43.36773" lon="6.67832">
        <ele>155.60000610352</ele>
        <time>2013-10-10T10:40:42Z</time>
      </trkpt>
      <trkpt lat="43.36772" lon="6.67839">
        <ele>155.80000305176</ele>
        <time>2013-10-10T10:40:46Z</time>
      </trkpt>
      <trkpt lat="43.3677" lon="6.67847">
        <ele>155.80000305176</ele>
        <time>2013-10-10T10:40:51Z</time>
      </trkpt>
      <trkpt lat="43.36771" lon="6.6786">
        <ele>156.80000305176</ele>
        <time>2013-10-10T10:41:00Z</time>
      </trkpt>
      <trkpt lat="43.36769" lon="6.67867">
        <ele>156.80000305176</ele>
        <time>2013-10-10T10:41:05Z</time>
      </trkpt>
      <trkpt lat="43.36773" lon="6.6789">
        <ele>158.60000610352</ele>
        <time>2013-10-10T10:41:22Z</time>
      </trkpt>
      <trkpt lat="43.36772" lon="6.67894">
        <ele>158.60000610352</ele>
        <time>2013-10-10T10:41:25Z</time>
      </trkpt>
      <trkpt lat="43.36772" lon="6.679">
        <ele>159</ele>
        <time>2013-10-10T10:41:29Z</time>
      </trkpt>
      <trkpt lat="43.36773" lon="6.67906">
        <ele>159.39999389648</ele>
        <time>2013-10-10T10:41:34Z</time>
      </trkpt>
      <trkpt lat="43.36775" lon="6.6791">
        <ele>159.80000305176</ele>
        <time>2013-10-10T10:41:38Z</time>
      </trkpt>
      <trkpt lat="43.36775" lon="6.67929">
        <ele>159.39999389648</ele>
        <time>2013-10-10T10:41:51Z</time>
      </trkpt>
      <trkpt lat="43.36768" lon="6.67957">
        <ele>156.80000305176</ele>
        <time>2013-10-10T10:42:06Z</time>
      </trkpt>
      <trkpt lat="43.36754" lon="6.67988">
        <ele>153.80000305176</ele>
        <time>2013-10-10T10:42:17Z</time>
      </trkpt>
      <trkpt lat="43.36734" lon="6.68001">
        <ele>157.19999694824</ele>
        <time>2013-10-10T10:42:26Z</time>
      </trkpt>
      <trkpt lat="43.36722" lon="6.68002">
        <ele>160.19999694824</ele>
        <time>2013-10-10T10:42:30Z</time>
      </trkpt>
      <trkpt lat="43.36709" lon="6.68008">
        <ele>163.19999694824</ele>
        <time>2013-10-10T10:42:35Z</time>
      </trkpt>
      <trkpt lat="43.36699" lon="6.68049">
        <ele>163.19999694824</ele>
        <time>2013-10-10T10:42:47Z</time>
      </trkpt>
      <trkpt lat="43.36706" lon="6.68071">
        <ele>159.80000305176</ele>
        <time>2013-10-10T10:42:54Z</time>
      </trkpt>
      <trkpt lat="43.36713" lon="6.68088">
        <ele>156.80000305176</ele>
        <time>2013-10-10T10:43:00Z</time>
      </trkpt>
      <trkpt lat="43.3672" lon="6.68103">
        <ele>153.80000305176</ele>
        <time>2013-10-10T10:43:05Z</time>
      </trkpt>
      <trkpt lat="43.36725" lon="6.68129">
        <ele>150.80000305176</ele>
        <time>2013-10-10T10:43:12Z</time>
      </trkpt>
      <trkpt lat="43.36708" lon="6.68187">
        <ele>150.19999694824</ele>
        <time>2013-10-10T10:43:26Z</time>
      </trkpt>
      <trkpt lat="43.36665" lon="6.68234">
        <ele>151.60000610352</ele>
        <time>2013-10-10T10:43:40Z</time>
      </trkpt>
      <trkpt lat="43.36662" lon="6.68237">
        <ele>151</ele>
        <time>2013-10-10T10:43:41Z</time>
      </trkpt>
      <trkpt lat="43.36646" lon="6.68242">
        <ele>149.19999694824</ele>
        <time>2013-10-10T10:43:45Z</time>
      </trkpt>
      <trkpt lat="43.36626" lon="6.68236">
        <ele>149.39999389648</ele>
        <time>2013-10-10T10:43:50Z</time>
      </trkpt>
      <trkpt lat="43.36597" lon="6.68216">
        <ele>152.60000610352</ele>
        <time>2013-10-10T10:43:58Z</time>
      </trkpt>
      <trkpt lat="43.36556" lon="6.68186">
        <ele>155.39999389648</ele>
        <time>2013-10-10T10:44:09Z</time>
      </trkpt>
      <trkpt lat="43.36542" lon="6.68159">
        <ele>158.60000610352</ele>
        <time>2013-10-10T10:44:15Z</time>
      </trkpt>
      <trkpt lat="43.36536" lon="6.68146">
        <ele>160.80000305176</ele>
        <time>2013-10-10T10:44:18Z</time>
      </trkpt>
      <trkpt lat="43.36529" lon="6.68138">
        <ele>161.60000610352</ele>
        <time>2013-10-10T10:44:20Z</time>
      </trkpt>
      <trkpt lat="43.36521" lon="6.68136">
        <ele>161</ele>
        <time>2013-10-10T10:44:22Z</time>
      </trkpt>
      <trkpt lat="43.36485" lon="6.68127">
        <ele>163</ele>
        <time>2013-10-10T10:44:31Z</time>
      </trkpt>
      <trkpt lat="43.36472" lon="6.68121">
        <ele>166.19999694824</ele>
        <time>2013-10-10T10:44:34Z</time>
      </trkpt>
      <trkpt lat="43.36465" lon="6.68117">
        <ele>168</ele>
        <time>2013-10-10T10:44:36Z</time>
      </trkpt>
      <trkpt lat="43.36452" lon="6.68118">
        <ele>169.80000305176</ele>
        <time>2013-10-10T10:44:39Z</time>
      </trkpt>
      <trkpt lat="43.36446" lon="6.68125">
        <ele>169.60000610352</ele>
        <time>2013-10-10T10:44:41Z</time>
      </trkpt>
      <trkpt lat="43.36431" lon="6.68155">
        <ele>168.60000610352</ele>
        <time>2013-10-10T10:44:48Z</time>
      </trkpt>
      <trkpt lat="43.36436" lon="6.68175">
        <ele>165.60000610352</ele>
        <time>2013-10-10T10:44:51Z</time>
      </trkpt>
      <trkpt lat="43.36438" lon="6.68198">
        <ele>163.80000305176</ele>
        <time>2013-10-10T10:44:55Z</time>
      </trkpt>
      <trkpt lat="43.36443" lon="6.68221">
        <ele>160.80000305176</ele>
        <time>2013-10-10T10:44:59Z</time>
      </trkpt>
      <trkpt lat="43.36448" lon="6.68244">
        <ele>157.80000305176</ele>
        <time>2013-10-10T10:45:03Z</time>
      </trkpt>
      <trkpt lat="43.36449" lon="6.68262">
        <ele>155.39999389648</ele>
        <time>2013-10-10T10:45:06Z</time>
      </trkpt>
      <trkpt lat="43.36449" lon="6.68275">
        <ele>153.60000610352</ele>
        <time>2013-10-10T10:45:08Z</time>
      </trkpt>
      <trkpt lat="43.36448" lon="6.68288">
        <ele>152.19999694824</ele>
        <time>2013-10-10T10:45:10Z</time>
      </trkpt>
      <trkpt lat="43.36438" lon="6.68322">
        <ele>150.19999694824</ele>
        <time>2013-10-10T10:45:16Z</time>
      </trkpt>
      <trkpt lat="43.36419" lon="6.68341">
        <ele>152</ele>
        <time>2013-10-10T10:45:21Z</time>
      </trkpt>
      <trkpt lat="43.36379" lon="6.68358">
        <ele>154.60000610352</ele>
        <time>2013-10-10T10:45:30Z</time>
      </trkpt>
      <trkpt lat="43.36355" lon="6.68384">
        <ele>153.39999389648</ele>
        <time>2013-10-10T10:45:37Z</time>
      </trkpt>
      <trkpt lat="43.36347" lon="6.68404">
        <ele>151.19999694824</ele>
        <time>2013-10-10T10:45:41Z</time>
      </trkpt>
      <trkpt lat="43.36338" lon="6.68437">
        <ele>151.80000305176</ele>
        <time>2013-10-10T10:45:49Z</time>
      </trkpt>
      <trkpt lat="43.36347" lon="6.68453">
        <ele>152</ele>
        <time>2013-10-10T10:46:02Z</time>
      </trkpt>
      <trkpt lat="43.36359" lon="6.68466">
        <ele>152.19999694824</ele>
        <time>2013-10-10T10:46:13Z</time>
      </trkpt>
      <trkpt lat="43.36378" lon="6.6849">
        <ele>153</ele>
        <time>2013-10-10T10:46:25Z</time>
      </trkpt>
      <trkpt lat="43.36392" lon="6.68513">
        <ele>156</ele>
        <time>2013-10-10T10:46:35Z</time>
      </trkpt>
      <trkpt lat="43.36403" lon="6.68529">
        <ele>159</ele>
        <time>2013-10-10T10:46:42Z</time>
      </trkpt>
      <trkpt lat="43.36434" lon="6.68548">
        <ele>158.39999389648</ele>
        <time>2013-10-10T10:46:57Z</time>
      </trkpt>
      <trkpt lat="43.3646" lon="6.68579">
        <ele>157.39999389648</ele>
        <time>2013-10-10T10:47:11Z</time>
      </trkpt>
      <trkpt lat="43.36476" lon="6.68612">
        <ele>157.19999694824</ele>
        <time>2013-10-10T10:47:18Z</time>
      </trkpt>
      <trkpt lat="43.36493" lon="6.68652">
        <ele>157.80000305176</ele>
        <time>2013-10-10T10:47:24Z</time>
      </trkpt>
      <trkpt lat="43.3651" lon="6.68688">
        <ele>154.60000610352</ele>
        <time>2013-10-10T10:47:29Z</time>
      </trkpt>
      <trkpt lat="43.36519" lon="6.68711">
        <ele>152.19999694824</ele>
        <time>2013-10-10T10:47:32Z</time>
      </trkpt>
      <trkpt lat="43.36521" lon="6.68719">
        <ele>152</ele>
        <time>2013-10-10T10:47:33Z</time>
      </trkpt>
      <trkpt lat="43.36522" lon="6.68744">
        <ele>152.39999389648</ele>
        <time>2013-10-10T10:47:36Z</time>
      </trkpt>
      <trkpt lat="43.36522" lon="6.68751">
        <ele>152.60000610352</ele>
        <time>2013-10-10T10:47:37Z</time>
      </trkpt>
      <trkpt lat="43.36518" lon="6.68773">
        <ele>149.80000305176</ele>
        <time>2013-10-10T10:47:40Z</time>
      </trkpt>
      <trkpt lat="43.36509" lon="6.68797">
        <ele>148</ele>
        <time>2013-10-10T10:47:44Z</time>
      </trkpt>
      <trkpt lat="43.36507" lon="6.68802">
        <ele>147.80000305176</ele>
        <time>2013-10-10T10:47:45Z</time>
      </trkpt>
      <trkpt lat="43.36484" lon="6.68807">
        <ele>150.80000305176</ele>
        <time>2013-10-10T10:47:52Z</time>
      </trkpt>
      <trkpt lat="43.36467" lon="6.68807">
        <ele>153</ele>
        <time>2013-10-10T10:47:57Z</time>
      </trkpt>
      <trkpt lat="43.36452" lon="6.68825">
        <ele>150.39999389648</ele>
        <time>2013-10-10T10:48:01Z</time>
      </trkpt>
      <trkpt lat="43.36424" lon="6.68834">
        <ele>150.80000305176</ele>
        <time>2013-10-10T10:48:09Z</time>
      </trkpt>
      <trkpt lat="43.36406" lon="6.68833">
        <ele>154.19999694824</ele>
        <time>2013-10-10T10:48:14Z</time>
      </trkpt>
      <trkpt lat="43.364" lon="6.68835">
        <ele>155</ele>
        <time>2013-10-10T10:48:16Z</time>
      </trkpt>
      <trkpt lat="43.36395" lon="6.6884">
        <ele>155</ele>
        <time>2013-10-10T10:48:19Z</time>
      </trkpt>
      <trkpt lat="43.36375" lon="6.68852">
        <ele>156.80000305176</ele>
        <time>2013-10-10T10:48:32Z</time>
      </trkpt>
      <trkpt lat="43.36364" lon="6.68879">
        <ele>153.60000610352</ele>
        <time>2013-10-10T10:48:40Z</time>
      </trkpt>
      <trkpt lat="43.36346" lon="6.68919">
        <ele>151</ele>
        <time>2013-10-10T10:48:53Z</time>
      </trkpt>
      <trkpt lat="43.36329" lon="6.68942">
        <ele>151.80000305176</ele>
        <time>2013-10-10T10:49:01Z</time>
      </trkpt>
      <trkpt lat="43.36308" lon="6.68957">
        <ele>152.80000305176</ele>
        <time>2013-10-10T10:49:05Z</time>
      </trkpt>
      <trkpt lat="43.363" lon="6.6897">
        <ele>153.19999694824</ele>
        <time>2013-10-10T10:49:07Z</time>
      </trkpt>
      <trkpt lat="43.36294" lon="6.6899">
        <ele>153.39999389648</ele>
        <time>2013-10-10T10:49:15Z</time>
      </trkpt>
      <trkpt lat="43.36284" lon="6.69031">
        <ele>157.39999389648</ele>
        <time>2013-10-10T10:50:00Z</time>
      </trkpt>
      <trkpt lat="43.36276" lon="6.69041">
        <ele>161</ele>
        <time>2013-10-10T10:50:29Z</time>
      </trkpt>
      <trkpt lat="43.36276" lon="6.6904">
        <ele>161</ele>
        <time>2013-10-10T10:50:30Z</time>
      </trkpt>
      <trkpt lat="43.36265" lon="6.6903">
        <ele>164</ele>
        <time>2013-10-10T10:50:50Z</time>
      </trkpt>
      <trkpt lat="43.36261" lon="6.6904">
        <ele>166.39999389648</ele>
        <time>2013-10-10T10:51:02Z</time>
      </trkpt>
      <trkpt lat="43.36261" lon="6.69044">
        <ele>166.80000305176</ele>
        <time>2013-10-10T10:51:05Z</time>
      </trkpt>
      <trkpt lat="43.36262" lon="6.69046">
        <ele>166.80000305176</ele>
        <time>2013-10-10T10:51:07Z</time>
      </trkpt>
      <trkpt lat="43.36258" lon="6.69062">
        <ele>169.39999389648</ele>
        <time>2013-10-10T10:51:20Z</time>
      </trkpt>
      <trkpt lat="43.36253" lon="6.69076">
        <ele>172.80000305176</ele>
        <time>2013-10-10T10:51:34Z</time>
      </trkpt>
      <trkpt lat="43.36253" lon="6.69077">
        <ele>173</ele>
        <time>2013-10-10T10:51:35Z</time>
      </trkpt>
      <trkpt lat="43.36248" lon="6.6909">
        <ele>175.80000305176</ele>
        <time>2013-10-10T10:51:51Z</time>
      </trkpt>
      <trkpt lat="43.36248" lon="6.69092">
        <ele>175.80000305176</ele>
        <time>2013-10-10T10:51:52Z</time>
      </trkpt>
      <trkpt lat="43.36241" lon="6.6911">
        <ele>178.80000305176</ele>
        <time>2013-10-10T10:52:01Z</time>
      </trkpt>
      <trkpt lat="43.36237" lon="6.69133">
        <ele>181.80000305176</ele>
        <time>2013-10-10T10:52:12Z</time>
      </trkpt>
      <trkpt lat="43.36244" lon="6.69166">
        <ele>181.19999694824</ele>
        <time>2013-10-10T10:52:25Z</time>
      </trkpt>
      <trkpt lat="43.36251" lon="6.69205">
        <ele>183.80000305176</ele>
        <time>2013-10-10T10:52:39Z</time>
      </trkpt>
      <trkpt lat="43.36251" lon="6.6923">
        <ele>186.80000305176</ele>
        <time>2013-10-10T10:52:48Z</time>
      </trkpt>
      <trkpt lat="43.36252" lon="6.69254">
        <ele>190</ele>
        <time>2013-10-10T10:52:58Z</time>
      </trkpt>
      <trkpt lat="43.36253" lon="6.69258">
        <ele>190.39999389648</ele>
        <time>2013-10-10T10:53:00Z</time>
      </trkpt>
      <trkpt lat="43.36255" lon="6.69268">
        <ele>191.39999389648</ele>
        <time>2013-10-10T10:53:04Z</time>
      </trkpt>
      <trkpt lat="43.36275" lon="6.6929">
        <ele>189.19999694824</ele>
        <time>2013-10-10T10:53:17Z</time>
      </trkpt>
      <trkpt lat="43.36293" lon="6.69311">
        <ele>187.80000305176</ele>
        <time>2013-10-10T10:53:30Z</time>
      </trkpt>
      <trkpt lat="43.36297" lon="6.6932">
        <ele>188.60000610352</ele>
        <time>2013-10-10T10:53:35Z</time>
      </trkpt>
      <trkpt lat="43.3631" lon="6.6935">
        <ele>190.19999694824</ele>
        <time>2013-10-10T10:53:49Z</time>
      </trkpt>
      <trkpt lat="43.36323" lon="6.69377">
        <ele>190.39999389648</ele>
        <time>2013-10-10T10:54:03Z</time>
      </trkpt>
      <trkpt lat="43.36329" lon="6.69391">
        <ele>191</ele>
        <time>2013-10-10T10:54:09Z</time>
      </trkpt>
      <trkpt lat="43.36334" lon="6.69414">
        <ele>193</ele>
        <time>2013-10-10T10:54:19Z</time>
      </trkpt>
      <trkpt lat="43.36334" lon="6.69427">
        <ele>193.39999389648</ele>
        <time>2013-10-10T10:54:25Z</time>
      </trkpt>
      <trkpt lat="43.36328" lon="6.69463">
        <ele>194</ele>
        <time>2013-10-10T10:54:42Z</time>
      </trkpt>
      <trkpt lat="43.36323" lon="6.69477">
        <ele>194</ele>
        <time>2013-10-10T10:54:51Z</time>
      </trkpt>
      <trkpt lat="43.36313" lon="6.69468">
        <ele>195.19999694824</ele>
        <time>2013-10-10T10:55:01Z</time>
      </trkpt>
      <trkpt lat="43.36301" lon="6.69446">
        <ele>198</ele>
        <time>2013-10-10T10:55:16Z</time>
      </trkpt>
      <trkpt lat="43.36291" lon="6.69432">
        <ele>201</ele>
        <time>2013-10-10T10:55:27Z</time>
      </trkpt>
      <trkpt lat="43.3628" lon="6.69422">
        <ele>204</ele>
        <time>2013-10-10T10:55:36Z</time>
      </trkpt>
      <trkpt lat="43.36266" lon="6.69399">
        <ele>206.19999694824</ele>
        <time>2013-10-10T10:55:52Z</time>
      </trkpt>
      <trkpt lat="43.36265" lon="6.69396">
        <ele>206.19999694824</ele>
        <time>2013-10-10T10:55:54Z</time>
      </trkpt>
      <trkpt lat="43.36247" lon="6.6938">
        <ele>209</ele>
        <time>2013-10-10T10:56:06Z</time>
      </trkpt>
      <trkpt lat="43.3623" lon="6.69372">
        <ele>209.80000305176</ele>
        <time>2013-10-10T10:56:20Z</time>
      </trkpt>
      <trkpt lat="43.36213" lon="6.69357">
        <ele>211.39999389648</ele>
        <time>2013-10-10T10:56:34Z</time>
      </trkpt>
      <trkpt lat="43.36199" lon="6.69337">
        <ele>214.19999694824</ele>
        <time>2013-10-10T10:56:48Z</time>
      </trkpt>
      <trkpt lat="43.36183" lon="6.69317">
        <ele>217</ele>
        <time>2013-10-10T10:57:02Z</time>
      </trkpt>
      <trkpt lat="43.3617" lon="6.69309">
        <ele>220</ele>
        <time>2013-10-10T10:57:11Z</time>
      </trkpt>
      <trkpt lat="43.36153" lon="6.69298">
        <ele>222.60000610352</ele>
        <time>2013-10-10T10:57:37Z</time>
      </trkpt>
      <trkpt lat="43.36104" lon="6.69247">
        <ele>231.39999389648</ele>
        <time>2013-10-10T10:59:29Z</time>
      </trkpt>
      <trkpt lat="43.36103" lon="6.69247">
        <ele>231.60000610352</ele>
        <time>2013-10-10T10:59:31Z</time>
      </trkpt>
      <trkpt lat="43.36086" lon="6.6925">
        <ele>234.60000610352</ele>
        <time>2013-10-10T10:59:42Z</time>
      </trkpt>
      <trkpt lat="43.36074" lon="6.69255">
        <ele>233.39999389648</ele>
        <time>2013-10-10T10:59:45Z</time>
      </trkpt>
      <trkpt lat="43.36059" lon="6.69276">
        <ele>230.39999389648</ele>
        <time>2013-10-10T10:59:49Z</time>
      </trkpt>
      <trkpt lat="43.36047" lon="6.69283">
        <ele>229.19999694824</ele>
        <time>2013-10-10T10:59:52Z</time>
      </trkpt>
      <trkpt lat="43.36043" lon="6.69285">
        <ele>228.80000305176</ele>
        <time>2013-10-10T10:59:53Z</time>
      </trkpt>
      <trkpt lat="43.36031" lon="6.69292">
        <ele>227.80000305176</ele>
        <time>2013-10-10T10:59:56Z</time>
      </trkpt>
      <trkpt lat="43.35986" lon="6.693">
        <ele>224.60000610352</ele>
        <time>2013-10-10T11:00:03Z</time>
      </trkpt>
      <trkpt lat="43.35968" lon="6.693">
        <ele>222.80000305176</ele>
        <time>2013-10-10T11:00:06Z</time>
      </trkpt>
      <trkpt lat="43.35947" lon="6.69305">
        <ele>220.80000305176</ele>
        <time>2013-10-10T11:00:09Z</time>
      </trkpt>
      <trkpt lat="43.35913" lon="6.69319">
        <ele>217.60000610352</ele>
        <time>2013-10-10T11:00:14Z</time>
      </trkpt>
      <trkpt lat="43.35901" lon="6.69322">
        <ele>216.60000610352</ele>
        <time>2013-10-10T11:00:16Z</time>
      </trkpt>
      <trkpt lat="43.35874" lon="6.69343">
        <ele>213.19999694824</ele>
        <time>2013-10-10T11:00:21Z</time>
      </trkpt>
      <trkpt lat="43.35858" lon="6.69355">
        <ele>210.60000610352</ele>
        <time>2013-10-10T11:00:24Z</time>
      </trkpt>
      <trkpt lat="43.35838" lon="6.69382">
        <ele>207.60000610352</ele>
        <time>2013-10-10T11:00:28Z</time>
      </trkpt>
      <trkpt lat="43.35826" lon="6.6942">
        <ele>203.19999694824</ele>
        <time>2013-10-10T11:00:32Z</time>
      </trkpt>
      <trkpt lat="43.3582" lon="6.6944">
        <ele>200</ele>
        <time>2013-10-10T11:00:34Z</time>
      </trkpt>
      <trkpt lat="43.35808" lon="6.69468">
        <ele>196.80000305176</ele>
        <time>2013-10-10T11:00:38Z</time>
      </trkpt>
      <trkpt lat="43.35804" lon="6.69481">
        <ele>196</ele>
        <time>2013-10-10T11:00:40Z</time>
      </trkpt>
      <trkpt lat="43.35803" lon="6.69487">
        <ele>195.60000610352</ele>
        <time>2013-10-10T11:00:41Z</time>
      </trkpt>
      <trkpt lat="43.35798" lon="6.69501">
        <ele>195.19999694824</ele>
        <time>2013-10-10T11:00:44Z</time>
      </trkpt>
      <trkpt lat="43.35801" lon="6.69512">
        <ele>193.80000305176</ele>
        <time>2013-10-10T11:00:48Z</time>
      </trkpt>
      <trkpt lat="43.35801" lon="6.69534">
        <ele>191.80000305176</ele>
        <time>2013-10-10T11:00:54Z</time>
      </trkpt>
      <trkpt lat="43.35801" lon="6.6956">
        <ele>189.19999694824</ele>
        <time>2013-10-10T11:00:58Z</time>
      </trkpt>
      <trkpt lat="43.35797" lon="6.69572">
        <ele>189.19999694824</ele>
        <time>2013-10-10T11:01:00Z</time>
      </trkpt>
      <trkpt lat="43.35781" lon="6.69625">
        <ele>188.19999694824</ele>
        <time>2013-10-10T11:01:08Z</time>
      </trkpt>
      <trkpt lat="43.35765" lon="6.69685">
        <ele>186.39999389648</ele>
        <time>2013-10-10T11:01:17Z</time>
      </trkpt>
      <trkpt lat="43.35764" lon="6.69703">
        <ele>184</ele>
        <time>2013-10-10T11:01:20Z</time>
      </trkpt>
      <trkpt lat="43.35741" lon="6.69726">
        <ele>186.39999389648</ele>
        <time>2013-10-10T11:01:27Z</time>
      </trkpt>
      <trkpt lat="43.35732" lon="6.6972">
        <ele>189</ele>
        <time>2013-10-10T11:01:29Z</time>
      </trkpt>
      <trkpt lat="43.35717" lon="6.69721">
        <ele>192</ele>
        <time>2013-10-10T11:01:32Z</time>
      </trkpt>
      <trkpt lat="43.35697" lon="6.69739">
        <ele>192.60000610352</ele>
        <time>2013-10-10T11:01:37Z</time>
      </trkpt>
      <trkpt lat="43.3567" lon="6.69779">
        <ele>191</ele>
        <time>2013-10-10T11:01:47Z</time>
      </trkpt>
      <trkpt lat="43.35659" lon="6.69805">
        <ele>187.19999694824</ele>
        <time>2013-10-10T11:01:52Z</time>
      </trkpt>
      <trkpt lat="43.35649" lon="6.69829">
        <ele>183.60000610352</ele>
        <time>2013-10-10T11:01:56Z</time>
      </trkpt>
      <trkpt lat="43.35636" lon="6.69859">
        <ele>180.39999389648</ele>
        <time>2013-10-10T11:02:00Z</time>
      </trkpt>
      <trkpt lat="43.35625" lon="6.69879">
        <ele>179</ele>
        <time>2013-10-10T11:02:03Z</time>
      </trkpt>
      <trkpt lat="43.35608" lon="6.69913">
        <ele>177</ele>
        <time>2013-10-10T11:02:08Z</time>
      </trkpt>
      <trkpt lat="43.35593" lon="6.69968">
        <ele>175.19999694824</ele>
        <time>2013-10-10T11:02:16Z</time>
      </trkpt>
      <trkpt lat="43.35573" lon="6.70048">
        <ele>174.80000305176</ele>
        <time>2013-10-10T11:02:26Z</time>
      </trkpt>
      <trkpt lat="43.35571" lon="6.70061">
        <ele>175.19999694824</ele>
        <time>2013-10-10T11:02:28Z</time>
      </trkpt>
      <trkpt lat="43.3558" lon="6.70096">
        <ele>177.80000305176</ele>
        <time>2013-10-10T11:02:34Z</time>
      </trkpt>
      <trkpt lat="43.35588" lon="6.70112">
        <ele>177.60000610352</ele>
        <time>2013-10-10T11:02:37Z</time>
      </trkpt>
      <trkpt lat="43.35603" lon="6.70145">
        <ele>176</ele>
        <time>2013-10-10T11:02:43Z</time>
      </trkpt>
      <trkpt lat="43.35624" lon="6.70213">
        <ele>174.19999694824</ele>
        <time>2013-10-10T11:02:53Z</time>
      </trkpt>
      <trkpt lat="43.35636" lon="6.70242">
        <ele>172.60000610352</ele>
        <time>2013-10-10T11:02:57Z</time>
      </trkpt>
      <trkpt lat="43.35642" lon="6.70259">
        <ele>171.80000305176</ele>
        <time>2013-10-10T11:02:59Z</time>
      </trkpt>
      <trkpt lat="43.3565" lon="6.70284">
        <ele>171.19999694824</ele>
        <time>2013-10-10T11:03:02Z</time>
      </trkpt>
      <trkpt lat="43.35674" lon="6.70326">
        <ele>168</ele>
        <time>2013-10-10T11:03:08Z</time>
      </trkpt>
      <trkpt lat="43.35686" lon="6.70348">
        <ele>165</ele>
        <time>2013-10-10T11:03:11Z</time>
      </trkpt>
      <trkpt lat="43.35692" lon="6.70402">
        <ele>165.19999694824</ele>
        <time>2013-10-10T11:03:17Z</time>
      </trkpt>
      <trkpt lat="43.35693" lon="6.70427">
        <ele>165.60000610352</ele>
        <time>2013-10-10T11:03:20Z</time>
      </trkpt>
      <trkpt lat="43.35704" lon="6.70449">
        <ele>164</ele>
        <time>2013-10-10T11:03:24Z</time>
      </trkpt>
      <trkpt lat="43.35721" lon="6.70472">
        <ele>161.60000610352</ele>
        <time>2013-10-10T11:03:29Z</time>
      </trkpt>
      <trkpt lat="43.35739" lon="6.70476">
        <ele>157.80000305176</ele>
        <time>2013-10-10T11:03:33Z</time>
      </trkpt>
      <trkpt lat="43.35749" lon="6.70476">
        <ele>155.60000610352</ele>
        <time>2013-10-10T11:03:35Z</time>
      </trkpt>
      <trkpt lat="43.35759" lon="6.70476">
        <ele>153</ele>
        <time>2013-10-10T11:03:37Z</time>
      </trkpt>
      <trkpt lat="43.35783" lon="6.70496">
        <ele>149.60000610352</ele>
        <time>2013-10-10T11:03:42Z</time>
      </trkpt>
      <trkpt lat="43.35795" lon="6.7051">
        <ele>147.39999389648</ele>
        <time>2013-10-10T11:03:45Z</time>
      </trkpt>
      <trkpt lat="43.35806" lon="6.7052">
        <ele>145</ele>
        <time>2013-10-10T11:03:48Z</time>
      </trkpt>
      <trkpt lat="43.35816" lon="6.70529">
        <ele>142.80000305176</ele>
        <time>2013-10-10T11:03:51Z</time>
      </trkpt>
      <trkpt lat="43.35832" lon="6.70547">
        <ele>139.60000610352</ele>
        <time>2013-10-10T11:03:57Z</time>
      </trkpt>
      <trkpt lat="43.3584" lon="6.70555">
        <ele>138</ele>
        <time>2013-10-10T11:04:00Z</time>
      </trkpt>
      <trkpt lat="43.35851" lon="6.70557">
        <ele>136</ele>
        <time>2013-10-10T11:04:03Z</time>
      </trkpt>
      <trkpt lat="43.35866" lon="6.70555">
        <ele>132.60000610352</ele>
        <time>2013-10-10T11:04:07Z</time>
      </trkpt>
      <trkpt lat="43.35869" lon="6.70556">
        <ele>132</ele>
        <time>2013-10-10T11:04:08Z</time>
      </trkpt>
      <trkpt lat="43.35892" lon="6.70582">
        <ele>129</ele>
        <time>2013-10-10T11:04:15Z</time>
      </trkpt>
      <trkpt lat="43.35908" lon="6.70585">
        <ele>125.59999847412</ele>
        <time>2013-10-10T11:04:19Z</time>
      </trkpt>
      <trkpt lat="43.35918" lon="6.70575">
        <ele>123</ele>
        <time>2013-10-10T11:04:23Z</time>
      </trkpt>
      <trkpt lat="43.35926" lon="6.70568">
        <ele>121.19999694824</ele>
        <time>2013-10-10T11:04:27Z</time>
      </trkpt>
      <trkpt lat="43.35936" lon="6.70575">
        <ele>120</ele>
        <time>2013-10-10T11:04:31Z</time>
      </trkpt>
      <trkpt lat="43.35938" lon="6.70577">
        <ele>119.80000305176</ele>
        <time>2013-10-10T11:04:32Z</time>
      </trkpt>
      <trkpt lat="43.35952" lon="6.70607">
        <ele>117</ele>
        <time>2013-10-10T11:04:38Z</time>
      </trkpt>
      <trkpt lat="43.35964" lon="6.70613">
        <ele>115.19999694824</ele>
        <time>2013-10-10T11:04:41Z</time>
      </trkpt>
      <trkpt lat="43.35991" lon="6.70623">
        <ele>111.59999847412</ele>
        <time>2013-10-10T11:04:46Z</time>
      </trkpt>
      <trkpt lat="43.35997" lon="6.70623">
        <ele>110.80000305176</ele>
        <time>2013-10-10T11:04:47Z</time>
      </trkpt>
      <trkpt lat="43.36017" lon="6.70616">
        <ele>107</ele>
        <time>2013-10-10T11:04:51Z</time>
      </trkpt>
      <trkpt lat="43.36036" lon="6.70624">
        <ele>104</ele>
        <time>2013-10-10T11:04:55Z</time>
      </trkpt>
      <trkpt lat="43.36041" lon="6.70627">
        <ele>103.40000152588</ele>
        <time>2013-10-10T11:04:56Z</time>
      </trkpt>
      <trkpt lat="43.36055" lon="6.70634">
        <ele>101.59999847412</ele>
        <time>2013-10-10T11:04:59Z</time>
      </trkpt>
      <trkpt lat="43.36072" lon="6.70647">
        <ele>100.19999694824</ele>
        <time>2013-10-10T11:05:03Z</time>
      </trkpt>
      <trkpt lat="43.36095" lon="6.70656">
        <ele>96.400001525879</ele>
        <time>2013-10-10T11:05:08Z</time>
      </trkpt>
      <trkpt lat="43.36107" lon="6.70667">
        <ele>94.800003051758</ele>
        <time>2013-10-10T11:05:11Z</time>
      </trkpt>
      <trkpt lat="43.3612" lon="6.70674">
        <ele>91.400001525879</ele>
        <time>2013-10-10T11:05:14Z</time>
      </trkpt>
      <trkpt lat="43.36124" lon="6.70676">
        <ele>90.199996948242</ele>
        <time>2013-10-10T11:05:15Z</time>
      </trkpt>
      <trkpt lat="43.36134" lon="6.70685">
        <ele>87.599998474121</ele>
        <time>2013-10-10T11:05:18Z</time>
      </trkpt>
      <trkpt lat="43.36146" lon="6.70702">
        <ele>85</ele>
        <time>2013-10-10T11:05:22Z</time>
      </trkpt>
      <trkpt lat="43.36167" lon="6.70749">
        <ele>82.800003051758</ele>
        <time>2013-10-10T11:05:30Z</time>
      </trkpt>
      <trkpt lat="43.36177" lon="6.70763">
        <ele>79</ele>
        <time>2013-10-10T11:05:33Z</time>
      </trkpt>
      <trkpt lat="43.36183" lon="6.70777">
        <ele>76</ele>
        <time>2013-10-10T11:05:36Z</time>
      </trkpt>
      <trkpt lat="43.36193" lon="6.70791">
        <ele>73</ele>
        <time>2013-10-10T11:05:39Z</time>
      </trkpt>
      <trkpt lat="43.362" lon="6.70802">
        <ele>71</ele>
        <time>2013-10-10T11:05:41Z</time>
      </trkpt>
      <trkpt lat="43.3622" lon="6.70823">
        <ele>67.800003051758</ele>
        <time>2013-10-10T11:05:45Z</time>
      </trkpt>
      <trkpt lat="43.36235" lon="6.7084">
        <ele>66.199996948242</ele>
        <time>2013-10-10T11:05:48Z</time>
      </trkpt>
      <trkpt lat="43.36252" lon="6.70868">
        <ele>63.200000762939</ele>
        <time>2013-10-10T11:05:52Z</time>
      </trkpt>
      <trkpt lat="43.36261" lon="6.70905">
        <ele>60</ele>
        <time>2013-10-10T11:05:56Z</time>
      </trkpt>
      <trkpt lat="43.36264" lon="6.70949">
        <ele>56.599998474121</ele>
        <time>2013-10-10T11:06:00Z</time>
      </trkpt>
      <trkpt lat="43.36267" lon="6.70967">
        <ele>55.400001525879</ele>
        <time>2013-10-10T11:06:02Z</time>
      </trkpt>
      <trkpt lat="43.36299" lon="6.70981">
        <ele>53.799999237061</ele>
        <time>2013-10-10T11:06:08Z</time>
      </trkpt>
      <trkpt lat="43.36308" lon="6.70968">
        <ele>54.200000762939</ele>
        <time>2013-10-10T11:06:10Z</time>
      </trkpt>
      <trkpt lat="43.36312" lon="6.70961">
        <ele>54.400001525879</ele>
        <time>2013-10-10T11:06:11Z</time>
      </trkpt>
      <trkpt lat="43.36329" lon="6.70897">
        <ele>55</ele>
        <time>2013-10-10T11:06:20Z</time>
      </trkpt>
      <trkpt lat="43.36331" lon="6.70879">
        <ele>54.599998474121</ele>
        <time>2013-10-10T11:06:23Z</time>
      </trkpt>
      <trkpt lat="43.36333" lon="6.70855">
        <ele>54.200000762939</ele>
        <time>2013-10-10T11:06:27Z</time>
      </trkpt>
      <trkpt lat="43.3633" lon="6.70823">
        <ele>53.400001525879</ele>
        <time>2013-10-10T11:06:34Z</time>
      </trkpt>
      <trkpt lat="43.36331" lon="6.70814">
        <ele>52.200000762939</ele>
        <time>2013-10-10T11:06:38Z</time>
      </trkpt>
      <trkpt lat="43.36343" lon="6.70827">
        <ele>51.400001525879</ele>
        <time>2013-10-10T11:06:42Z</time>
      </trkpt>
      <trkpt lat="43.36362" lon="6.70844">
        <ele>48.599998474121</ele>
        <time>2013-10-10T11:06:46Z</time>
      </trkpt>
      <trkpt lat="43.36384" lon="6.70857">
        <ele>45</ele>
        <time>2013-10-10T11:06:50Z</time>
      </trkpt>
      <trkpt lat="43.36389" lon="6.7086">
        <ele>44.200000762939</ele>
        <time>2013-10-10T11:06:51Z</time>
      </trkpt>
      <trkpt lat="43.36409" lon="6.7087">
        <ele>41</ele>
        <time>2013-10-10T11:06:56Z</time>
      </trkpt>
      <trkpt lat="43.36429" lon="6.7087">
        <ele>37.799999237061</ele>
        <time>2013-10-10T11:07:03Z</time>
      </trkpt>
      <trkpt lat="43.36436" lon="6.70856">
        <ele>36.200000762939</ele>
        <time>2013-10-10T11:07:06Z</time>
      </trkpt>
      <trkpt lat="43.36438" lon="6.7081">
        <ele>33</ele>
        <time>2013-10-10T11:07:12Z</time>
      </trkpt>
      <trkpt lat="43.36438" lon="6.7078">
        <ele>30.799999237061</ele>
        <time>2013-10-10T11:07:15Z</time>
      </trkpt>
      <trkpt lat="43.3644" lon="6.7076">
        <ele>29</ele>
        <time>2013-10-10T11:07:17Z</time>
      </trkpt>
      <trkpt lat="43.36449" lon="6.70732">
        <ele>26</ele>
        <time>2013-10-10T11:07:21Z</time>
      </trkpt>
      <trkpt lat="43.36463" lon="6.70725">
        <ele>24.200000762939</ele>
        <time>2013-10-10T11:07:24Z</time>
      </trkpt>
      <trkpt lat="43.36467" lon="6.70725">
        <ele>23.799999237061</ele>
        <time>2013-10-10T11:07:25Z</time>
      </trkpt>
      <trkpt lat="43.36483" lon="6.70746">
        <ele>22.799999237061</ele>
        <time>2013-10-10T11:07:29Z</time>
      </trkpt>
      <trkpt lat="43.36486" lon="6.70752">
        <ele>22.799999237061</ele>
        <time>2013-10-10T11:07:30Z</time>
      </trkpt>
      <trkpt lat="43.36491" lon="6.70777">
        <ele>23.60000038147</ele>
        <time>2013-10-10T11:07:33Z</time>
      </trkpt>
      <trkpt lat="43.36515" lon="6.70783">
        <ele>21.60000038147</ele>
        <time>2013-10-10T11:07:39Z</time>
      </trkpt>
      <trkpt lat="43.3652" lon="6.70777">
        <ele>20.799999237061</ele>
        <time>2013-10-10T11:07:40Z</time>
      </trkpt>
      <trkpt lat="43.36539" lon="6.70765">
        <ele>18.799999237061</ele>
        <time>2013-10-10T11:07:44Z</time>
      </trkpt>
      <trkpt lat="43.36546" lon="6.70761">
        <ele>18.200000762939</ele>
        <time>2013-10-10T11:07:46Z</time>
      </trkpt>
      <trkpt lat="43.36553" lon="6.70742">
        <ele>18</ele>
        <time>2013-10-10T11:07:50Z</time>
      </trkpt>
      <trkpt lat="43.3658" lon="6.70729">
        <ele>17.200000762939</ele>
        <time>2013-10-10T11:07:58Z</time>
      </trkpt>
      <trkpt lat="43.36597" lon="6.70751">
        <ele>16.60000038147</ele>
        <time>2013-10-10T11:08:04Z</time>
      </trkpt>
      <trkpt lat="43.36629" lon="6.70792">
        <ele>15.199999809265</ele>
        <time>2013-10-10T11:08:16Z</time>
      </trkpt>
      <trkpt lat="43.36667" lon="6.708">
        <ele>14.60000038147</ele>
        <time>2013-10-10T11:08:27Z</time>
      </trkpt>
      <trkpt lat="43.3669" lon="6.70781">
        <ele>15.39999961853</ele>
        <time>2013-10-10T11:08:37Z</time>
      </trkpt>
      <trkpt lat="43.36715" lon="6.70746">
        <ele>17</ele>
        <time>2013-10-10T11:08:48Z</time>
      </trkpt>
      <trkpt lat="43.36722" lon="6.70692">
        <ele>17.799999237061</ele>
        <time>2013-10-10T11:09:02Z</time>
      </trkpt>
      <trkpt lat="43.36723" lon="6.70691">
        <ele>17.799999237061</ele>
        <time>2013-10-10T11:10:03Z</time>
      </trkpt>
      <trkpt lat="43.36723" lon="6.7069">
        <ele>17.60000038147</ele>
        <time>2013-10-10T11:10:04Z</time>
      </trkpt>
      <trkpt lat="43.36728" lon="6.70676">
        <ele>17.60000038147</ele>
        <time>2013-10-10T11:10:08Z</time>
      </trkpt>
      <trkpt lat="43.36732" lon="6.7065">
        <ele>17.200000762939</ele>
        <time>2013-10-10T11:10:13Z</time>
      </trkpt>
      <trkpt lat="43.36757" lon="6.70633">
        <ele>15.199999809265</ele>
        <time>2013-10-10T11:10:20Z</time>
      </trkpt>
      <trkpt lat="43.36783" lon="6.70645">
        <ele>14.39999961853</ele>
        <time>2013-10-10T11:10:27Z</time>
      </trkpt>
      <trkpt lat="43.36786" lon="6.7064">
        <ele>14.199999809265</ele>
        <time>2013-10-10T11:10:28Z</time>
      </trkpt>
      <trkpt lat="43.36792" lon="6.70631">
        <ele>14.199999809265</ele>
        <time>2013-10-10T11:10:30Z</time>
      </trkpt>
      <trkpt lat="43.36798" lon="6.7062">
        <ele>14</ele>
        <time>2013-10-10T11:10:32Z</time>
      </trkpt>
      <trkpt lat="43.36804" lon="6.70603">
        <ele>14</ele>
        <time>2013-10-10T11:10:35Z</time>
      </trkpt>
      <trkpt lat="43.36797" lon="6.70571">
        <ele>14.60000038147</ele>
        <time>2013-10-10T11:10:42Z</time>
      </trkpt>
      <trkpt lat="43.36802" lon="6.70532">
        <ele>15.199999809265</ele>
        <time>2013-10-10T11:10:50Z</time>
      </trkpt>
      <trkpt lat="43.36801" lon="6.70512">
        <ele>15.60000038147</ele>
        <time>2013-10-10T11:10:53Z</time>
      </trkpt>
      <trkpt lat="43.368" lon="6.70479">
        <ele>16.39999961853</ele>
        <time>2013-10-10T11:10:58Z</time>
      </trkpt>
      <trkpt lat="43.36807" lon="6.70433">
        <ele>16.799999237061</ele>
        <time>2013-10-10T11:11:07Z</time>
      </trkpt>
      <trkpt lat="43.36818" lon="6.70432">
        <ele>15.60000038147</ele>
        <time>2013-10-10T11:11:11Z</time>
      </trkpt>
      <trkpt lat="43.36841" lon="6.70443">
        <ele>15.39999961853</ele>
        <time>2013-10-10T11:11:22Z</time>
      </trkpt>
      <trkpt lat="43.36859" lon="6.70462">
        <ele>18.39999961853</ele>
        <time>2013-10-10T11:11:33Z</time>
      </trkpt>
      <trkpt lat="43.36876" lon="6.70498">
        <ele>21</ele>
        <time>2013-10-10T11:11:49Z</time>
      </trkpt>
      <trkpt lat="43.36883" lon="6.70527">
        <ele>22.60000038147</ele>
        <time>2013-10-10T11:12:02Z</time>
      </trkpt>
      <trkpt lat="43.36887" lon="6.70553">
        <ele>23.799999237061</ele>
        <time>2013-10-10T11:12:16Z</time>
      </trkpt>
      <trkpt lat="43.36888" lon="6.70555">
        <ele>24</ele>
        <time>2013-10-10T11:12:18Z</time>
      </trkpt>
      <trkpt lat="43.36904" lon="6.70549">
        <ele>26.799999237061</ele>
        <time>2013-10-10T11:12:29Z</time>
      </trkpt>
      <trkpt lat="43.36917" lon="6.7054">
        <ele>29</ele>
        <time>2013-10-10T11:12:44Z</time>
      </trkpt>
      <trkpt lat="43.36919" lon="6.70541">
        <ele>29.60000038147</ele>
        <time>2013-10-10T11:12:46Z</time>
      </trkpt>
      <trkpt lat="43.36929" lon="6.70534">
        <ele>31.799999237061</ele>
        <time>2013-10-10T11:12:58Z</time>
      </trkpt>
      <trkpt lat="43.36935" lon="6.70529">
        <ele>33.400001525879</ele>
        <time>2013-10-10T11:13:06Z</time>
      </trkpt>
      <trkpt lat="43.36949" lon="6.70523">
        <ele>36.400001525879</ele>
        <time>2013-10-10T11:13:19Z</time>
      </trkpt>
      <trkpt lat="43.36963" lon="6.70516">
        <ele>39.400001525879</ele>
        <time>2013-10-10T11:13:32Z</time>
      </trkpt>
      <trkpt lat="43.36976" lon="6.70511">
        <ele>42.400001525879</ele>
        <time>2013-10-10T11:13:42Z</time>
      </trkpt>
      <trkpt lat="43.36993" lon="6.70497">
        <ele>45.200000762939</ele>
        <time>2013-10-10T11:13:58Z</time>
      </trkpt>
      <trkpt lat="43.37007" lon="6.70477">
        <ele>48.200000762939</ele>
        <time>2013-10-10T11:14:12Z</time>
      </trkpt>
      <trkpt lat="43.37021" lon="6.70459">
        <ele>51.200000762939</ele>
        <time>2013-10-10T11:14:25Z</time>
      </trkpt>
      <trkpt lat="43.37039" lon="6.70433">
        <ele>54.200000762939</ele>
        <time>2013-10-10T11:14:41Z</time>
      </trkpt>
      <trkpt lat="43.37054" lon="6.70409">
        <ele>56</ele>
        <time>2013-10-10T11:14:56Z</time>
      </trkpt>
      <trkpt lat="43.37073" lon="6.70378">
        <ele>57.200000762939</ele>
        <time>2013-10-10T11:15:13Z</time>
      </trkpt>
      <trkpt lat="43.37094" lon="6.70346">
        <ele>58.599998474121</ele>
        <time>2013-10-10T11:15:28Z</time>
      </trkpt>
      <trkpt lat="43.37112" lon="6.70293">
        <ele>57.799999237061</ele>
        <time>2013-10-10T11:15:43Z</time>
      </trkpt>
      <trkpt lat="43.37126" lon="6.70249">
        <ele>57.400001525879</ele>
        <time>2013-10-10T11:15:58Z</time>
      </trkpt>
      <trkpt lat="43.37135" lon="6.70217">
        <ele>56.400001525879</ele>
        <time>2013-10-10T11:16:13Z</time>
      </trkpt>
      <trkpt lat="43.37156" lon="6.70188">
        <ele>57.599998474121</ele>
        <time>2013-10-10T11:16:30Z</time>
      </trkpt>
      <trkpt lat="43.37175" lon="6.70182">
        <ele>60.599998474121</ele>
        <time>2013-10-10T11:16:40Z</time>
      </trkpt>
      <trkpt lat="43.37197" lon="6.70173">
        <ele>63.599998474121</ele>
        <time>2013-10-10T11:16:53Z</time>
      </trkpt>
      <trkpt lat="43.37218" lon="6.70165">
        <ele>66.599998474121</ele>
        <time>2013-10-10T11:17:07Z</time>
      </trkpt>
      <trkpt lat="43.37237" lon="6.7016">
        <ele>69.599998474121</ele>
        <time>2013-10-10T11:17:21Z</time>
      </trkpt>
      <trkpt lat="43.37255" lon="6.70158">
        <ele>72.599998474121</ele>
        <time>2013-10-10T11:17:34Z</time>
      </trkpt>
      <trkpt lat="43.37273" lon="6.70157">
        <ele>75.800003051758</ele>
        <time>2013-10-10T11:17:47Z</time>
      </trkpt>
      <trkpt lat="43.37291" lon="6.7015">
        <ele>78.800003051758</ele>
        <time>2013-10-10T11:18:00Z</time>
      </trkpt>
      <trkpt lat="43.37306" lon="6.70138">
        <ele>81</ele>
        <time>2013-10-10T11:18:13Z</time>
      </trkpt>
      <trkpt lat="43.37313" lon="6.70121">
        <ele>81.400001525879</ele>
        <time>2013-10-10T11:18:24Z</time>
      </trkpt>
      <trkpt lat="43.37324" lon="6.70096">
        <ele>82.800003051758</ele>
        <time>2013-10-10T11:18:42Z</time>
      </trkpt>
      <trkpt lat="43.37336" lon="6.70078">
        <ele>85.400001525879</ele>
        <time>2013-10-10T11:19:05Z</time>
      </trkpt>
      <trkpt lat="43.3734" lon="6.7007">
        <ele>86.400001525879</ele>
        <time>2013-10-10T11:19:14Z</time>
      </trkpt>
      <trkpt lat="43.37351" lon="6.7005">
        <ele>89</ele>
        <time>2013-10-10T11:19:36Z</time>
      </trkpt>
      <trkpt lat="43.37352" lon="6.70048">
        <ele>89.199996948242</ele>
        <time>2013-10-10T11:19:38Z</time>
      </trkpt>
      <trkpt lat="43.37362" lon="6.70034">
        <ele>91.800003051758</ele>
        <time>2013-10-10T11:19:59Z</time>
      </trkpt>
      <trkpt lat="43.37368" lon="6.70012">
        <ele>94.199996948242</ele>
        <time>2013-10-10T11:20:26Z</time>
      </trkpt>
      <trkpt lat="43.37379" lon="6.70005">
        <ele>97.199996948242</ele>
        <time>2013-10-10T11:20:44Z</time>
      </trkpt>
      <trkpt lat="43.3739" lon="6.70019">
        <ele>99.400001525879</ele>
        <time>2013-10-10T11:21:08Z</time>
      </trkpt>
      <trkpt lat="43.374" lon="6.70034">
        <ele>101</ele>
        <time>2013-10-10T11:21:32Z</time>
      </trkpt>
      <trkpt lat="43.37401" lon="6.70035">
        <ele>101.40000152588</ele>
        <time>2013-10-10T11:21:34Z</time>
      </trkpt>
      <trkpt lat="43.37415" lon="6.70036">
        <ele>104.40000152588</ele>
        <time>2013-10-10T11:21:48Z</time>
      </trkpt>
      <trkpt lat="43.37429" lon="6.70023">
        <ele>106.59999847412</ele>
        <time>2013-10-10T11:22:05Z</time>
      </trkpt>
      <trkpt lat="43.37447" lon="6.7">
        <ele>109.80000305176</ele>
        <time>2013-10-10T11:22:17Z</time>
      </trkpt>
      <trkpt lat="43.37472" lon="6.69967">
        <ele>111.80000305176</ele>
        <time>2013-10-10T11:22:36Z</time>
      </trkpt>
      <trkpt lat="43.37499" lon="6.69943">
        <ele>113.59999847412</ele>
        <time>2013-10-10T11:22:55Z</time>
      </trkpt>
      <trkpt lat="43.37521" lon="6.69955">
        <ele>116</ele>
        <time>2013-10-10T11:23:09Z</time>
      </trkpt>
      <trkpt lat="43.37535" lon="6.6999">
        <ele>116</ele>
        <time>2013-10-10T11:23:25Z</time>
      </trkpt>
      <trkpt lat="43.37559" lon="6.70004">
        <ele>116.59999847412</ele>
        <time>2013-10-10T11:23:42Z</time>
      </trkpt>
      <trkpt lat="43.37579" lon="6.69998">
        <ele>118.80000305176</ele>
        <time>2013-10-10T11:23:57Z</time>
      </trkpt>
      <trkpt lat="43.37612" lon="6.69989">
        <ele>118.40000152588</ele>
        <time>2013-10-10T11:24:12Z</time>
      </trkpt>
      <trkpt lat="43.37619" lon="6.69984">
        <ele>119</ele>
        <time>2013-10-10T11:24:14Z</time>
      </trkpt>
      <trkpt lat="43.37638" lon="6.69979">
        <ele>119.19999694824</ele>
        <time>2013-10-10T11:24:18Z</time>
      </trkpt>
      <trkpt lat="43.37651" lon="6.69976">
        <ele>119.19999694824</ele>
        <time>2013-10-10T11:24:21Z</time>
      </trkpt>
      <trkpt lat="43.37674" lon="6.69964">
        <ele>121.80000305176</ele>
        <time>2013-10-10T11:24:25Z</time>
      </trkpt>
      <trkpt lat="43.37692" lon="6.69948">
        <ele>126.19999694824</ele>
        <time>2013-10-10T11:24:28Z</time>
      </trkpt>
      <trkpt lat="43.37705" lon="6.69936">
        <ele>129.39999389648</ele>
        <time>2013-10-10T11:24:30Z</time>
      </trkpt>
      <trkpt lat="43.37715" lon="6.69932">
        <ele>130.60000610352</ele>
        <time>2013-10-10T11:24:32Z</time>
      </trkpt>
      <trkpt lat="43.37727" lon="6.69947">
        <ele>127.40000152588</ele>
        <time>2013-10-10T11:24:38Z</time>
      </trkpt>
      <trkpt lat="43.37729" lon="6.69957">
        <ele>125.40000152588</ele>
        <time>2013-10-10T11:24:42Z</time>
      </trkpt>
      <trkpt lat="43.3774" lon="6.69973">
        <ele>122.40000152588</ele>
        <time>2013-10-10T11:24:51Z</time>
      </trkpt>
      <trkpt lat="43.37752" lon="6.69988">
        <ele>120</ele>
        <time>2013-10-10T11:25:06Z</time>
      </trkpt>
      <trkpt lat="43.37769" lon="6.69998">
        <ele>121.40000152588</ele>
        <time>2013-10-10T11:25:22Z</time>
      </trkpt>
      <trkpt lat="43.37789" lon="6.70015">
        <ele>121.80000305176</ele>
        <time>2013-10-10T11:25:37Z</time>
      </trkpt>
      <trkpt lat="43.37792" lon="6.70018">
        <ele>121.80000305176</ele>
        <time>2013-10-10T11:25:40Z</time>
      </trkpt>
      <trkpt lat="43.37798" lon="6.70021">
        <ele>122.40000152588</ele>
        <time>2013-10-10T11:25:44Z</time>
      </trkpt>
      <trkpt lat="43.37807" lon="6.70026">
        <ele>123.19999694824</ele>
        <time>2013-10-10T11:25:51Z</time>
      </trkpt>
      <trkpt lat="43.37824" lon="6.70029">
        <ele>126.19999694824</ele>
        <time>2013-10-10T11:26:03Z</time>
      </trkpt>
      <trkpt lat="43.37843" lon="6.70032">
        <ele>127</ele>
        <time>2013-10-10T11:26:17Z</time>
      </trkpt>
      <trkpt lat="43.37868" lon="6.70048">
        <ele>124</ele>
        <time>2013-10-10T11:26:31Z</time>
      </trkpt>
      <trkpt lat="43.37888" lon="6.70067">
        <ele>122.40000152588</ele>
        <time>2013-10-10T11:26:40Z</time>
      </trkpt>
      <trkpt lat="43.379" lon="6.70105">
        <ele>122</ele>
        <time>2013-10-10T11:26:47Z</time>
      </trkpt>
      <trkpt lat="43.37901" lon="6.70112">
        <ele>122</ele>
        <time>2013-10-10T11:26:48Z</time>
      </trkpt>
      <trkpt lat="43.37918" lon="6.7014">
        <ele>124</ele>
        <time>2013-10-10T11:26:52Z</time>
      </trkpt>
      <trkpt lat="43.37923" lon="6.70147">
        <ele>124</ele>
        <time>2013-10-10T11:26:53Z</time>
      </trkpt>
      <trkpt lat="43.37965" lon="6.70151">
        <ele>125.40000152588</ele>
        <time>2013-10-10T11:26:59Z</time>
      </trkpt>
      <trkpt lat="43.37972" lon="6.70146">
        <ele>125</ele>
        <time>2013-10-10T11:27:00Z</time>
      </trkpt>
      <trkpt lat="43.38" lon="6.70121">
        <ele>121.19999694824</ele>
        <time>2013-10-10T11:27:05Z</time>
      </trkpt>
      <trkpt lat="43.38021" lon="6.70106">
        <ele>118.19999694824</ele>
        <time>2013-10-10T11:27:08Z</time>
      </trkpt>
      <trkpt lat="43.38044" lon="6.7009">
        <ele>114.59999847412</ele>
        <time>2013-10-10T11:27:11Z</time>
      </trkpt>
      <trkpt lat="43.38064" lon="6.70077">
        <ele>112.59999847412</ele>
        <time>2013-10-10T11:27:14Z</time>
      </trkpt>
      <trkpt lat="43.38091" lon="6.70067">
        <ele>110.40000152588</ele>
        <time>2013-10-10T11:27:18Z</time>
      </trkpt>
      <trkpt lat="43.38115" lon="6.70069">
        <ele>107.19999694824</ele>
        <time>2013-10-10T11:27:21Z</time>
      </trkpt>
      <trkpt lat="43.38141" lon="6.7007">
        <ele>103.59999847412</ele>
        <time>2013-10-10T11:27:24Z</time>
      </trkpt>
      <trkpt lat="43.38169" lon="6.70073">
        <ele>99.800003051758</ele>
        <time>2013-10-10T11:27:27Z</time>
      </trkpt>
      <trkpt lat="43.38192" lon="6.70071">
        <ele>97.800003051758</ele>
        <time>2013-10-10T11:27:30Z</time>
      </trkpt>
      <trkpt lat="43.38199" lon="6.70086">
        <ele>96.800003051758</ele>
        <time>2013-10-10T11:27:35Z</time>
      </trkpt>
      <trkpt lat="43.38209" lon="6.70105">
        <ele>98.199996948242</ele>
        <time>2013-10-10T11:27:41Z</time>
      </trkpt>
      <trkpt lat="43.38247" lon="6.70139">
        <ele>96</ele>
        <time>2013-10-10T11:27:58Z</time>
      </trkpt>
      <trkpt lat="43.38289" lon="6.70181">
        <ele>93.599998474121</ele>
        <time>2013-10-10T11:28:13Z</time>
      </trkpt>
      <trkpt lat="43.38305" lon="6.7023">
        <ele>96</ele>
        <time>2013-10-10T11:28:24Z</time>
      </trkpt>
      <trkpt lat="43.38312" lon="6.70269">
        <ele>99.400001525879</ele>
        <time>2013-10-10T11:28:34Z</time>
      </trkpt>
      <trkpt lat="43.38311" lon="6.70287">
        <ele>102.40000152588</ele>
        <time>2013-10-10T11:28:38Z</time>
      </trkpt>
      <trkpt lat="43.38314" lon="6.70296">
        <ele>103.19999694824</ele>
        <time>2013-10-10T11:28:40Z</time>
      </trkpt>
      <trkpt lat="43.38317" lon="6.70301">
        <ele>103.40000152588</ele>
        <time>2013-10-10T11:28:42Z</time>
      </trkpt>
      <trkpt lat="43.38347" lon="6.70319">
        <ele>101</ele>
        <time>2013-10-10T11:28:54Z</time>
      </trkpt>
      <trkpt lat="43.38353" lon="6.70339">
        <ele>104</ele>
        <time>2013-10-10T11:29:03Z</time>
      </trkpt>
      <trkpt lat="43.38371" lon="6.70356">
        <ele>105.40000152588</ele>
        <time>2013-10-10T11:29:14Z</time>
      </trkpt>
      <trkpt lat="43.3838" lon="6.70362">
        <ele>105.59999847412</ele>
        <time>2013-10-10T11:29:21Z</time>
      </trkpt>
      <trkpt lat="43.38385" lon="6.70362">
        <ele>105</ele>
        <time>2013-10-10T11:29:27Z</time>
      </trkpt>
      <trkpt lat="43.384" lon="6.70357">
        <ele>102.59999847412</ele>
        <time>2013-10-10T11:29:42Z</time>
      </trkpt>
      <trkpt lat="43.38415" lon="6.70365">
        <ele>102.40000152588</ele>
        <time>2013-10-10T11:30:02Z</time>
      </trkpt>
      <trkpt lat="43.38421" lon="6.70376">
        <ele>103.40000152588</ele>
        <time>2013-10-10T11:30:18Z</time>
      </trkpt>
      <trkpt lat="43.38433" lon="6.70392">
        <ele>104.19999694824</ele>
        <time>2013-10-10T11:30:34Z</time>
      </trkpt>
      <trkpt lat="43.38439" lon="6.70403">
        <ele>105</ele>
        <time>2013-10-10T11:30:41Z</time>
      </trkpt>
      <trkpt lat="43.3843" lon="6.70413">
        <ele>108</ele>
        <time>2013-10-10T11:30:49Z</time>
      </trkpt>
      <trkpt lat="43.38424" lon="6.70428">
        <ele>110</ele>
        <time>2013-10-10T11:30:59Z</time>
      </trkpt>
      <trkpt lat="43.3841" lon="6.7045">
        <ele>113</ele>
        <time>2013-10-10T11:31:15Z</time>
      </trkpt>
      <trkpt lat="43.38404" lon="6.70464">
        <ele>114.40000152588</ele>
        <time>2013-10-10T11:31:24Z</time>
      </trkpt>
      <trkpt lat="43.38397" lon="6.70469">
        <ele>115.59999847412</ele>
        <time>2013-10-10T11:31:30Z</time>
      </trkpt>
      <trkpt lat="43.38383" lon="6.70487">
        <ele>118.59999847412</ele>
        <time>2013-10-10T11:31:46Z</time>
      </trkpt>
      <trkpt lat="43.38367" lon="6.70503">
        <ele>121.40000152588</ele>
        <time>2013-10-10T11:32:01Z</time>
      </trkpt>
      <trkpt lat="43.3836" lon="6.70524">
        <ele>122</ele>
        <time>2013-10-10T11:32:14Z</time>
      </trkpt>
      <trkpt lat="43.38362" lon="6.70528">
        <ele>121.40000152588</ele>
        <time>2013-10-10T11:33:59Z</time>
      </trkpt>
      <trkpt lat="43.38362" lon="6.70522">
        <ele>121.59999847412</ele>
        <time>2013-10-10T11:35:59Z</time>
      </trkpt>
      <trkpt lat="43.38374" lon="6.70513">
        <ele>120</ele>
        <time>2013-10-10T11:36:07Z</time>
      </trkpt>
      <trkpt lat="43.38388" lon="6.70507">
        <ele>118</ele>
        <time>2013-10-10T11:36:11Z</time>
      </trkpt>
      <trkpt lat="43.38407" lon="6.70521">
        <ele>114.59999847412</ele>
        <time>2013-10-10T11:36:17Z</time>
      </trkpt>
      <trkpt lat="43.3842" lon="6.70546">
        <ele>111.59999847412</ele>
        <time>2013-10-10T11:36:23Z</time>
      </trkpt>
      <trkpt lat="43.38422" lon="6.70552">
        <ele>111</ele>
        <time>2013-10-10T11:36:24Z</time>
      </trkpt>
      <trkpt lat="43.38432" lon="6.70567">
        <ele>109</ele>
        <time>2013-10-10T11:36:27Z</time>
      </trkpt>
      <trkpt lat="43.38451" lon="6.70579">
        <ele>106</ele>
        <time>2013-10-10T11:36:31Z</time>
      </trkpt>
      <trkpt lat="43.38465" lon="6.7058">
        <ele>103.80000305176</ele>
        <time>2013-10-10T11:36:33Z</time>
      </trkpt>
      <trkpt lat="43.38479" lon="6.70579">
        <ele>101.80000305176</ele>
        <time>2013-10-10T11:36:35Z</time>
      </trkpt>
      <trkpt lat="43.385" lon="6.70604">
        <ele>100</ele>
        <time>2013-10-10T11:36:41Z</time>
      </trkpt>
      <trkpt lat="43.38504" lon="6.7061">
        <ele>99.800003051758</ele>
        <time>2013-10-10T11:36:42Z</time>
      </trkpt>
      <trkpt lat="43.38513" lon="6.70622">
        <ele>99.599998474121</ele>
        <time>2013-10-10T11:36:44Z</time>
      </trkpt>
      <trkpt lat="43.38545" lon="6.70678">
        <ele>101.80000305176</ele>
        <time>2013-10-10T11:36:52Z</time>
      </trkpt>
      <trkpt lat="43.38556" lon="6.70694">
        <ele>102.59999847412</ele>
        <time>2013-10-10T11:36:58Z</time>
      </trkpt>
      <trkpt lat="43.38561" lon="6.70703">
        <ele>103.19999694824</ele>
        <time>2013-10-10T11:37:10Z</time>
      </trkpt>
      <trkpt lat="43.38569" lon="6.70715">
        <ele>104.19999694824</ele>
        <time>2013-10-10T11:37:25Z</time>
      </trkpt>
      <trkpt lat="43.38578" lon="6.70722">
        <ele>105</ele>
        <time>2013-10-10T11:37:38Z</time>
      </trkpt>
      <trkpt lat="43.38588" lon="6.70727">
        <ele>105.40000152588</ele>
        <time>2013-10-10T11:37:50Z</time>
      </trkpt>
      <trkpt lat="43.38604" lon="6.70732">
        <ele>105.19999694824</ele>
        <time>2013-10-10T11:38:04Z</time>
      </trkpt>
      <trkpt lat="43.38641" lon="6.70738">
        <ele>104.40000152588</ele>
        <time>2013-10-10T11:38:16Z</time>
      </trkpt>
      <trkpt lat="43.3865" lon="6.70736">
        <ele>104</ele>
        <time>2013-10-10T11:38:19Z</time>
      </trkpt>
      <trkpt lat="43.38668" lon="6.70726">
        <ele>102</ele>
        <time>2013-10-10T11:38:27Z</time>
      </trkpt>
      <trkpt lat="43.38684" lon="6.70727">
        <ele>102</ele>
        <time>2013-10-10T11:38:30Z</time>
      </trkpt>
      <trkpt lat="43.38701" lon="6.70718">
        <ele>100.59999847412</ele>
        <time>2013-10-10T11:38:44Z</time>
      </trkpt>
      <trkpt lat="43.38711" lon="6.70717">
        <ele>100.59999847412</ele>
        <time>2013-10-10T11:39:00Z</time>
      </trkpt>
      <trkpt lat="43.38718" lon="6.70721">
        <ele>101</ele>
        <time>2013-10-10T11:39:11Z</time>
      </trkpt>
      <trkpt lat="43.38723" lon="6.70722">
        <ele>101</ele>
        <time>2013-10-10T11:39:16Z</time>
      </trkpt>
      <trkpt lat="43.38746" lon="6.70713">
        <ele>99.599998474121</ele>
        <time>2013-10-10T11:39:28Z</time>
      </trkpt>
      <trkpt lat="43.38773" lon="6.70692">
        <ele>96.400001525879</ele>
        <time>2013-10-10T11:39:35Z</time>
      </trkpt>
      <trkpt lat="43.38777" lon="6.7069">
        <ele>96.199996948242</ele>
        <time>2013-10-10T11:39:36Z</time>
      </trkpt>
      <trkpt lat="43.388" lon="6.70679">
        <ele>95.199996948242</ele>
        <time>2013-10-10T11:39:41Z</time>
      </trkpt>
      <trkpt lat="43.38815" lon="6.70671">
        <ele>94.800003051758</ele>
        <time>2013-10-10T11:39:44Z</time>
      </trkpt>
      <trkpt lat="43.38841" lon="6.70665">
        <ele>94.599998474121</ele>
        <time>2013-10-10T11:39:50Z</time>
      </trkpt>
      <trkpt lat="43.38843" lon="6.70662">
        <ele>94.400001525879</ele>
        <time>2013-10-10T11:39:51Z</time>
      </trkpt>
      <trkpt lat="43.38853" lon="6.70655">
        <ele>93.800003051758</ele>
        <time>2013-10-10T11:39:54Z</time>
      </trkpt>
      <trkpt lat="43.38876" lon="6.70633">
        <ele>93.199996948242</ele>
        <time>2013-10-10T11:39:59Z</time>
      </trkpt>
      <trkpt lat="43.38881" lon="6.70623">
        <ele>93.199996948242</ele>
        <time>2013-10-10T11:40:08Z</time>
      </trkpt>
      <trkpt lat="43.38887" lon="6.70613">
        <ele>93.199996948242</ele>
        <time>2013-10-10T11:40:17Z</time>
      </trkpt>
      <trkpt lat="43.38892" lon="6.70602">
        <ele>93.400001525879</ele>
        <time>2013-10-10T11:40:29Z</time>
      </trkpt>
      <trkpt lat="43.38894" lon="6.70601">
        <ele>93.599998474121</ele>
        <time>2013-10-10T11:40:32Z</time>
      </trkpt>
      <trkpt lat="43.38909" lon="6.706">
        <ele>94.800003051758</ele>
        <time>2013-10-10T11:40:46Z</time>
      </trkpt>
      <trkpt lat="43.38923" lon="6.70588">
        <ele>94.599998474121</ele>
        <time>2013-10-10T11:40:56Z</time>
      </trkpt>
      <trkpt lat="43.38929" lon="6.70581">
        <ele>93.400001525879</ele>
        <time>2013-10-10T11:40:58Z</time>
      </trkpt>
      <trkpt lat="43.38942" lon="6.70568">
        <ele>90</ele>
        <time>2013-10-10T11:41:02Z</time>
      </trkpt>
      <trkpt lat="43.38957" lon="6.70564">
        <ele>87</ele>
        <time>2013-10-10T11:41:07Z</time>
      </trkpt>
      <trkpt lat="43.38962" lon="6.70572">
        <ele>86.599998474121</ele>
        <time>2013-10-10T11:41:09Z</time>
      </trkpt>
      <trkpt lat="43.38965" lon="6.70577">
        <ele>86.599998474121</ele>
        <time>2013-10-10T11:41:10Z</time>
      </trkpt>
      <trkpt lat="43.38982" lon="6.70574">
        <ele>83.400001525879</ele>
        <time>2013-10-10T11:41:16Z</time>
      </trkpt>
      <trkpt lat="43.38989" lon="6.70545">
        <ele>80</ele>
        <time>2013-10-10T11:41:22Z</time>
      </trkpt>
      <trkpt lat="43.39002" lon="6.70527">
        <ele>76.400001525879</ele>
        <time>2013-10-10T11:41:27Z</time>
      </trkpt>
      <trkpt lat="43.39005" lon="6.70525">
        <ele>75.599998474121</ele>
        <time>2013-10-10T11:41:28Z</time>
      </trkpt>
      <trkpt lat="43.39018" lon="6.70531">
        <ele>72.599998474121</ele>
        <time>2013-10-10T11:41:33Z</time>
      </trkpt>
      <trkpt lat="43.39029" lon="6.70527">
        <ele>69.599998474121</ele>
        <time>2013-10-10T11:41:38Z</time>
      </trkpt>
      <trkpt lat="43.39027" lon="6.70522">
        <ele>69.599998474121</ele>
        <time>2013-10-10T11:41:40Z</time>
      </trkpt>
      <trkpt lat="43.39026" lon="6.70517">
        <ele>69.800003051758</ele>
        <time>2013-10-10T11:41:42Z</time>
      </trkpt>
      <trkpt lat="43.39029" lon="6.7051">
        <ele>68.599998474121</ele>
        <time>2013-10-10T11:41:46Z</time>
      </trkpt>
      <trkpt lat="43.39045" lon="6.7052">
        <ele>65.199996948242</ele>
        <time>2013-10-10T11:41:54Z</time>
      </trkpt>
      <trkpt lat="43.39048" lon="6.70521">
        <ele>64.400001525879</ele>
        <time>2013-10-10T11:41:55Z</time>
      </trkpt>
      <trkpt lat="43.39053" lon="6.70528">
        <ele>63.599998474121</ele>
        <time>2013-10-10T11:41:57Z</time>
      </trkpt>
      <trkpt lat="43.39063" lon="6.70579">
        <ele>63.400001525879</ele>
        <time>2013-10-10T11:42:05Z</time>
      </trkpt>
      <trkpt lat="43.39073" lon="6.70589">
        <ele>61</ele>
        <time>2013-10-10T11:42:07Z</time>
      </trkpt>
      <trkpt lat="43.39089" lon="6.70603">
        <ele>58.200000762939</ele>
        <time>2013-10-10T11:42:10Z</time>
      </trkpt>
      <trkpt lat="43.391" lon="6.70614">
        <ele>57.599998474121</ele>
        <time>2013-10-10T11:42:12Z</time>
      </trkpt>
      <trkpt lat="43.39108" lon="6.7066">
        <ele>58.400001525879</ele>
        <time>2013-10-10T11:42:17Z</time>
      </trkpt>
      <trkpt lat="43.39125" lon="6.70672">
        <ele>56.799999237061</ele>
        <time>2013-10-10T11:42:22Z</time>
      </trkpt>
      <trkpt lat="43.39131" lon="6.70671">
        <ele>56</ele>
        <time>2013-10-10T11:42:24Z</time>
      </trkpt>
      <trkpt lat="43.39157" lon="6.70671">
        <ele>52.599998474121</ele>
        <time>2013-10-10T11:42:31Z</time>
      </trkpt>
      <trkpt lat="43.3917" lon="6.70674">
        <ele>51.599998474121</ele>
        <time>2013-10-10T11:42:34Z</time>
      </trkpt>
      <trkpt lat="43.39178" lon="6.70673">
        <ele>50.799999237061</ele>
        <time>2013-10-10T11:42:36Z</time>
      </trkpt>
      <trkpt lat="43.39197" lon="6.70679">
        <ele>49.799999237061</ele>
        <time>2013-10-10T11:42:40Z</time>
      </trkpt>
      <trkpt lat="43.39223" lon="6.70687">
        <ele>48.400001525879</ele>
        <time>2013-10-10T11:42:45Z</time>
      </trkpt>
      <trkpt lat="43.39238" lon="6.70697">
        <ele>48.200000762939</ele>
        <time>2013-10-10T11:42:51Z</time>
      </trkpt>
      <trkpt lat="43.3925" lon="6.70699">
        <ele>47.400001525879</ele>
        <time>2013-10-10T11:42:58Z</time>
      </trkpt>
      <trkpt lat="43.3926" lon="6.70699">
        <ele>46.799999237061</ele>
        <time>2013-10-10T11:43:05Z</time>
      </trkpt>
      <trkpt lat="43.39271" lon="6.70695">
        <ele>46</ele>
        <time>2013-10-10T11:43:13Z</time>
      </trkpt>
      <trkpt lat="43.39261" lon="6.70675">
        <ele>44.599998474121</ele>
        <time>2013-10-10T11:43:20Z</time>
      </trkpt>
      <trkpt lat="43.39265" lon="6.7066">
        <ele>44.200000762939</ele>
        <time>2013-10-10T11:43:27Z</time>
      </trkpt>
      <trkpt lat="43.39285" lon="6.7066">
        <ele>44</ele>
        <time>2013-10-10T11:43:37Z</time>
      </trkpt>
      <trkpt lat="43.39287" lon="6.70659">
        <ele>44</ele>
        <time>2013-10-10T11:43:44Z</time>
      </trkpt>
      <trkpt lat="43.3929" lon="6.70659">
        <ele>44</ele>
        <time>2013-10-10T11:43:47Z</time>
      </trkpt>
      <trkpt lat="43.39293" lon="6.70657">
        <ele>44.200000762939</ele>
        <time>2013-10-10T11:43:50Z</time>
      </trkpt>
      <trkpt lat="43.39304" lon="6.70654">
        <ele>44.400001525879</ele>
        <time>2013-10-10T11:44:02Z</time>
      </trkpt>
      <trkpt lat="43.39316" lon="6.70657">
        <ele>44</ele>
        <time>2013-10-10T11:44:17Z</time>
      </trkpt>
      <trkpt lat="43.39324" lon="6.70656">
        <ele>44.200000762939</ele>
        <time>2013-10-10T11:44:26Z</time>
      </trkpt>
      <trkpt lat="43.39338" lon="6.70656">
        <ele>44.599998474121</ele>
        <time>2013-10-10T11:44:39Z</time>
      </trkpt>
      <trkpt lat="43.39341" lon="6.70657">
        <ele>44.799999237061</ele>
        <time>2013-10-10T11:44:43Z</time>
      </trkpt>
      <trkpt lat="43.39362" lon="6.70657">
        <ele>47.400001525879</ele>
        <time>2013-10-10T11:44:53Z</time>
      </trkpt>
      <trkpt lat="43.39367" lon="6.7066">
        <ele>47.400001525879</ele>
        <time>2013-10-10T11:44:55Z</time>
      </trkpt>
      <trkpt lat="43.39379" lon="6.70666">
        <ele>48</ele>
        <time>2013-10-10T11:44:59Z</time>
      </trkpt>
      <trkpt lat="43.39387" lon="6.70672">
        <ele>48</ele>
        <time>2013-10-10T11:45:05Z</time>
      </trkpt>
      <trkpt lat="43.39401" lon="6.70677">
        <ele>48.599998474121</ele>
        <time>2013-10-10T11:45:12Z</time>
      </trkpt>
      <trkpt lat="43.39422" lon="6.7068">
        <ele>49.799999237061</ele>
        <time>2013-10-10T11:45:24Z</time>
      </trkpt>
      <trkpt lat="43.39436" lon="6.70679">
        <ele>50.400001525879</ele>
        <time>2013-10-10T11:45:31Z</time>
      </trkpt>
      <trkpt lat="43.39456" lon="6.70686">
        <ele>49.599998474121</ele>
        <time>2013-10-10T11:45:40Z</time>
      </trkpt>
      <trkpt lat="43.39459" lon="6.70685">
        <ele>50</ele>
        <time>2013-10-10T11:45:42Z</time>
      </trkpt>
      <trkpt lat="43.39463" lon="6.7068">
        <ele>51.200000762939</ele>
        <time>2013-10-10T11:45:45Z</time>
      </trkpt>
      <trkpt lat="43.39465" lon="6.70671">
        <ele>52.799999237061</ele>
        <time>2013-10-10T11:45:52Z</time>
      </trkpt>
      <trkpt lat="43.39469" lon="6.7067">
        <ele>53</ele>
        <time>2013-10-10T11:45:54Z</time>
      </trkpt>
      <trkpt lat="43.39494" lon="6.70664">
        <ele>55</ele>
        <time>2013-10-10T11:46:08Z</time>
      </trkpt>
      <trkpt lat="43.39496" lon="6.70663">
        <ele>55.200000762939</ele>
        <time>2013-10-10T11:46:09Z</time>
      </trkpt>
      <trkpt lat="43.39496" lon="6.70655">
        <ele>56.400001525879</ele>
        <time>2013-10-10T11:46:13Z</time>
      </trkpt>
      <trkpt lat="43.39495" lon="6.70653">
        <ele>56.599998474121</ele>
        <time>2013-10-10T11:46:14Z</time>
      </trkpt>
      <trkpt lat="43.39496" lon="6.70644">
        <ele>58</ele>
        <time>2013-10-10T11:46:18Z</time>
      </trkpt>
      <trkpt lat="43.39509" lon="6.70619">
        <ele>61</ele>
        <time>2013-10-10T11:46:30Z</time>
      </trkpt>
      <trkpt lat="43.39527" lon="6.70599">
        <ele>61.799999237061</ele>
        <time>2013-10-10T11:46:40Z</time>
      </trkpt>
      <trkpt lat="43.39537" lon="6.706">
        <ele>60.799999237061</ele>
        <time>2013-10-10T11:46:43Z</time>
      </trkpt>
      <trkpt lat="43.39546" lon="6.70624">
        <ele>57.400001525879</ele>
        <time>2013-10-10T11:46:49Z</time>
      </trkpt>
      <trkpt lat="43.39558" lon="6.70634">
        <ele>55.599998474121</ele>
        <time>2013-10-10T11:46:54Z</time>
      </trkpt>
      <trkpt lat="43.39565" lon="6.7063">
        <ele>55.400001525879</ele>
        <time>2013-10-10T11:46:56Z</time>
      </trkpt>
      <trkpt lat="43.39578" lon="6.70602">
        <ele>56.200000762939</ele>
        <time>2013-10-10T11:47:02Z</time>
      </trkpt>
      <trkpt lat="43.39579" lon="6.70601">
        <ele>56.200000762939</ele>
        <time>2013-10-10T11:47:05Z</time>
      </trkpt>
      <trkpt lat="43.39589" lon="6.70604">
        <ele>56.200000762939</ele>
        <time>2013-10-10T11:47:17Z</time>
      </trkpt>
      <trkpt lat="43.3959" lon="6.70605">
        <ele>56.200000762939</ele>
        <time>2013-10-10T11:47:18Z</time>
      </trkpt>
      <trkpt lat="43.39596" lon="6.70616">
        <ele>56.200000762939</ele>
        <time>2013-10-10T11:47:27Z</time>
      </trkpt>
      <trkpt lat="43.39599" lon="6.70623">
        <ele>56</ele>
        <time>2013-10-10T11:47:31Z</time>
      </trkpt>
      <trkpt lat="43.39604" lon="6.70653">
        <ele>55.200000762939</ele>
        <time>2013-10-10T11:47:41Z</time>
      </trkpt>
      <trkpt lat="43.39603" lon="6.7066">
        <ele>54.599998474121</ele>
        <time>2013-10-10T11:47:44Z</time>
      </trkpt>
      <trkpt lat="43.39604" lon="6.70667">
        <ele>54.400001525879</ele>
        <time>2013-10-10T11:47:47Z</time>
      </trkpt>
      <trkpt lat="43.39607" lon="6.70677">
        <ele>53.799999237061</ele>
        <time>2013-10-10T11:47:52Z</time>
      </trkpt>
      <trkpt lat="43.39609" lon="6.70682">
        <ele>53.799999237061</ele>
        <time>2013-10-10T11:47:54Z</time>
      </trkpt>
      <trkpt lat="43.3962" lon="6.70681">
        <ele>55</ele>
        <time>2013-10-10T11:48:00Z</time>
      </trkpt>
      <trkpt lat="43.39623" lon="6.70678">
        <ele>55.599998474121</ele>
        <time>2013-10-10T11:48:02Z</time>
      </trkpt>
      <trkpt lat="43.39633" lon="6.70678">
        <ele>56.799999237061</ele>
        <time>2013-10-10T11:48:12Z</time>
      </trkpt>
      <trkpt lat="43.39645" lon="6.70673">
        <ele>58.799999237061</ele>
        <time>2013-10-10T11:48:25Z</time>
      </trkpt>
      <trkpt lat="43.39651" lon="6.70673">
        <ele>59.400001525879</ele>
        <time>2013-10-10T11:48:30Z</time>
      </trkpt>
      <trkpt lat="43.3966" lon="6.70667">
        <ele>61</ele>
        <time>2013-10-10T11:48:38Z</time>
      </trkpt>
      <trkpt lat="43.39668" lon="6.70661">
        <ele>62</ele>
        <time>2013-10-10T11:48:46Z</time>
      </trkpt>
      <trkpt lat="43.39673" lon="6.70656">
        <ele>62.200000762939</ele>
        <time>2013-10-10T11:48:51Z</time>
      </trkpt>
      <trkpt lat="43.39698" lon="6.70644">
        <ele>62.599998474121</ele>
        <time>2013-10-10T11:49:00Z</time>
      </trkpt>
      <trkpt lat="43.39717" lon="6.70644">
        <ele>62.799999237061</ele>
        <time>2013-10-10T11:49:05Z</time>
      </trkpt>
      <trkpt lat="43.39742" lon="6.70654">
        <ele>62.400001525879</ele>
        <time>2013-10-10T11:49:12Z</time>
      </trkpt>
      <trkpt lat="43.39749" lon="6.70638">
        <ele>63.200000762939</ele>
        <time>2013-10-10T11:49:15Z</time>
      </trkpt>
      <trkpt lat="43.3975" lon="6.70632">
        <ele>63.599998474121</ele>
        <time>2013-10-10T11:49:16Z</time>
      </trkpt>
      <trkpt lat="43.39772" lon="6.70589">
        <ele>64</ele>
        <time>2013-10-10T11:49:26Z</time>
      </trkpt>
      <trkpt lat="43.39783" lon="6.70565">
        <ele>65</ele>
        <time>2013-10-10T11:49:32Z</time>
      </trkpt>
      <trkpt lat="43.39785" lon="6.70563">
        <ele>65</ele>
        <time>2013-10-10T11:49:33Z</time>
      </trkpt>
      <trkpt lat="43.39805" lon="6.70531">
        <ele>66.199996948242</ele>
        <time>2013-10-10T11:49:43Z</time>
      </trkpt>
      <trkpt lat="43.39814" lon="6.7051">
        <ele>67.199996948242</ele>
        <time>2013-10-10T11:49:50Z</time>
      </trkpt>
      <trkpt lat="43.39822" lon="6.70491">
        <ele>68.400001525879</ele>
        <time>2013-10-10T11:49:54Z</time>
      </trkpt>
      <trkpt lat="43.39826" lon="6.70479">
        <ele>69.199996948242</ele>
        <time>2013-10-10T11:49:56Z</time>
      </trkpt>
      <trkpt lat="43.39835" lon="6.70482">
        <ele>68.800003051758</ele>
        <time>2013-10-10T11:50:00Z</time>
      </trkpt>
      <trkpt lat="43.39845" lon="6.70502">
        <ele>67.599998474121</ele>
        <time>2013-10-10T11:50:09Z</time>
      </trkpt>
      <trkpt lat="43.39856" lon="6.70515">
        <ele>67.199996948242</ele>
        <time>2013-10-10T11:50:16Z</time>
      </trkpt>
      <trkpt lat="43.39866" lon="6.70548">
        <ele>64.800003051758</ele>
        <time>2013-10-10T11:50:23Z</time>
      </trkpt>
      <trkpt lat="43.39879" lon="6.70566">
        <ele>63.799999237061</ele>
        <time>2013-10-10T11:50:27Z</time>
      </trkpt>
      <trkpt lat="43.39891" lon="6.70582">
        <ele>62.799999237061</ele>
        <time>2013-10-10T11:50:31Z</time>
      </trkpt>
      <trkpt lat="43.39921" lon="6.7059">
        <ele>62.799999237061</ele>
        <time>2013-10-10T11:50:39Z</time>
      </trkpt>
      <trkpt lat="43.3994" lon="6.7057">
        <ele>63.799999237061</ele>
        <time>2013-10-10T11:50:48Z</time>
      </trkpt>
      <trkpt lat="43.39959" lon="6.70557">
        <ele>64</ele>
        <time>2013-10-10T11:50:59Z</time>
      </trkpt>
      <trkpt lat="43.39966" lon="6.70553">
        <ele>64</ele>
        <time>2013-10-10T11:51:03Z</time>
      </trkpt>
      <trkpt lat="43.39986" lon="6.70536">
        <ele>64.400001525879</ele>
        <time>2013-10-10T11:51:12Z</time>
      </trkpt>
      <trkpt lat="43.39987" lon="6.70521">
        <ele>65.800003051758</ele>
        <time>2013-10-10T11:51:16Z</time>
      </trkpt>
      <trkpt lat="43.39986" lon="6.70497">
        <ele>68.199996948242</ele>
        <time>2013-10-10T11:51:21Z</time>
      </trkpt>
      <trkpt lat="43.39997" lon="6.70465">
        <ele>70.800003051758</ele>
        <time>2013-10-10T11:51:29Z</time>
      </trkpt>
      <trkpt lat="43.4" lon="6.70455">
        <ele>71.800003051758</ele>
        <time>2013-10-10T11:51:31Z</time>
      </trkpt>
      <trkpt lat="43.40005" lon="6.70443">
        <ele>72.400001525879</ele>
        <time>2013-10-10T11:51:33Z</time>
      </trkpt>
      <trkpt lat="43.40005" lon="6.7043">
        <ele>74</ele>
        <time>2013-10-10T11:51:35Z</time>
      </trkpt>
      <trkpt lat="43.40007" lon="6.70424">
        <ele>74.199996948242</ele>
        <time>2013-10-10T11:51:36Z</time>
      </trkpt>
      <trkpt lat="43.40021" lon="6.70419">
        <ele>72.800003051758</ele>
        <time>2013-10-10T11:51:40Z</time>
      </trkpt>
      <trkpt lat="43.4004" lon="6.70423">
        <ele>70</ele>
        <time>2013-10-10T11:51:45Z</time>
      </trkpt>
      <trkpt lat="43.40044" lon="6.70421">
        <ele>69.800003051758</ele>
        <time>2013-10-10T11:51:46Z</time>
      </trkpt>
      <trkpt lat="43.40055" lon="6.70417">
        <ele>68.599998474121</ele>
        <time>2013-10-10T11:51:53Z</time>
      </trkpt>
      <trkpt lat="43.4007" lon="6.70418">
        <ele>66.599998474121</ele>
        <time>2013-10-10T11:51:58Z</time>
      </trkpt>
      <trkpt lat="43.40076" lon="6.70433">
        <ele>65</ele>
        <time>2013-10-10T11:52:02Z</time>
      </trkpt>
      <trkpt lat="43.40077" lon="6.70438">
        <ele>64.599998474121</ele>
        <time>2013-10-10T11:52:03Z</time>
      </trkpt>
      <trkpt lat="43.40085" lon="6.70451">
        <ele>63.200000762939</ele>
        <time>2013-10-10T11:52:06Z</time>
      </trkpt>
      <trkpt lat="43.40094" lon="6.70471">
        <ele>62</ele>
        <time>2013-10-10T11:52:12Z</time>
      </trkpt>
      <trkpt lat="43.40107" lon="6.70491">
        <ele>61.599998474121</ele>
        <time>2013-10-10T11:52:20Z</time>
      </trkpt>
      <trkpt lat="43.40112" lon="6.70512">
        <ele>60.599998474121</ele>
        <time>2013-10-10T11:52:26Z</time>
      </trkpt>
      <trkpt lat="43.40114" lon="6.70515">
        <ele>60.599998474121</ele>
        <time>2013-10-10T11:52:27Z</time>
      </trkpt>
      <trkpt lat="43.40114" lon="6.70538">
        <ele>58.799999237061</ele>
        <time>2013-10-10T11:52:32Z</time>
      </trkpt>
      <trkpt lat="43.40125" lon="6.70545">
        <ele>59</ele>
        <time>2013-10-10T11:52:38Z</time>
      </trkpt>
      <trkpt lat="43.40138" lon="6.70566">
        <ele>58.400001525879</ele>
        <time>2013-10-10T11:52:47Z</time>
      </trkpt>
      <trkpt lat="43.40151" lon="6.70585">
        <ele>58.400001525879</ele>
        <time>2013-10-10T11:52:53Z</time>
      </trkpt>
      <trkpt lat="43.40167" lon="6.70632">
        <ele>55.200000762939</ele>
        <time>2013-10-10T11:53:00Z</time>
      </trkpt>
      <trkpt lat="43.40183" lon="6.70653">
        <ele>52.799999237061</ele>
        <time>2013-10-10T11:53:05Z</time>
      </trkpt>
      <trkpt lat="43.40186" lon="6.70671">
        <ele>51.400001525879</ele>
        <time>2013-10-10T11:53:09Z</time>
      </trkpt>
      <trkpt lat="43.40188" lon="6.70676">
        <ele>51.200000762939</ele>
        <time>2013-10-10T11:53:10Z</time>
      </trkpt>
      <trkpt lat="43.40198" lon="6.70698">
        <ele>50.400001525879</ele>
        <time>2013-10-10T11:53:14Z</time>
      </trkpt>
      <trkpt lat="43.40209" lon="6.70712">
        <ele>50</ele>
        <time>2013-10-10T11:53:19Z</time>
      </trkpt>
      <trkpt lat="43.40206" lon="6.70737">
        <ele>49.200000762939</ele>
        <time>2013-10-10T11:53:24Z</time>
      </trkpt>
      <trkpt lat="43.40203" lon="6.70775">
        <ele>47.400001525879</ele>
        <time>2013-10-10T11:53:29Z</time>
      </trkpt>
      <trkpt lat="43.40198" lon="6.70799">
        <ele>46.200000762939</ele>
        <time>2013-10-10T11:53:32Z</time>
      </trkpt>
      <trkpt lat="43.40172" lon="6.70845">
        <ele>43</ele>
        <time>2013-10-10T11:53:39Z</time>
      </trkpt>
      <trkpt lat="43.40169" lon="6.7085">
        <ele>42.400001525879</ele>
        <time>2013-10-10T11:53:40Z</time>
      </trkpt>
      <trkpt lat="43.40158" lon="6.70868">
        <ele>39.400001525879</ele>
        <time>2013-10-10T11:53:43Z</time>
      </trkpt>
      <trkpt lat="43.40153" lon="6.70879">
        <ele>37.799999237061</ele>
        <time>2013-10-10T11:53:45Z</time>
      </trkpt>
      <trkpt lat="43.40149" lon="6.70885">
        <ele>36.799999237061</ele>
        <time>2013-10-10T11:53:46Z</time>
      </trkpt>
      <trkpt lat="43.40145" lon="6.70913">
        <ele>33.799999237061</ele>
        <time>2013-10-10T11:53:50Z</time>
      </trkpt>
      <trkpt lat="43.40139" lon="6.70934">
        <ele>30.799999237061</ele>
        <time>2013-10-10T11:53:54Z</time>
      </trkpt>
      <trkpt lat="43.40138" lon="6.70938">
        <ele>30.200000762939</ele>
        <time>2013-10-10T11:53:55Z</time>
      </trkpt>
      <trkpt lat="43.40133" lon="6.70962">
        <ele>26.799999237061</ele>
        <time>2013-10-10T11:54:00Z</time>
      </trkpt>
      <trkpt lat="43.40133" lon="6.7099">
        <ele>23.39999961853</ele>
        <time>2013-10-10T11:54:04Z</time>
      </trkpt>
      <trkpt lat="43.40134" lon="6.71007">
        <ele>21.60000038147</ele>
        <time>2013-10-10T11:54:07Z</time>
      </trkpt>
      <trkpt lat="43.40134" lon="6.71028">
        <ele>19.39999961853</ele>
        <time>2013-10-10T11:54:10Z</time>
      </trkpt>
      <trkpt lat="43.40139" lon="6.71057">
        <ele>16.60000038147</ele>
        <time>2013-10-10T11:54:15Z</time>
      </trkpt>
      <trkpt lat="43.4014" lon="6.71086">
        <ele>13.60000038147</ele>
        <time>2013-10-10T11:54:19Z</time>
      </trkpt>
      <trkpt lat="43.4014" lon="6.71101">
        <ele>12.199999809265</ele>
        <time>2013-10-10T11:54:21Z</time>
      </trkpt>
      <trkpt lat="43.40136" lon="6.7114">
        <ele>8.6000003814697</ele>
        <time>2013-10-10T11:54:26Z</time>
      </trkpt>
      <trkpt lat="43.40135" lon="6.71149">
        <ele>7.8000001907349</ele>
        <time>2013-10-10T11:54:27Z</time>
      </trkpt>
      <trkpt lat="43.40141" lon="6.71178">
        <ele>6</ele>
        <time>2013-10-10T11:54:30Z</time>
      </trkpt>
      <trkpt lat="43.40145" lon="6.71221">
        <ele>4.5999999046326</ele>
        <time>2013-10-10T11:54:34Z</time>
      </trkpt>
      <trkpt lat="43.40145" lon="6.7125">
        <ele>3.5999999046326</ele>
        <time>2013-10-10T11:54:37Z</time>
      </trkpt>
      <trkpt lat="43.40136" lon="6.71271">
        <ele>3</ele>
        <time>2013-10-10T11:54:42Z</time>
      </trkpt>
      <trkpt lat="43.40132" lon="6.71273">
        <ele>2.7999999523163</ele>
        <time>2013-10-10T11:54:43Z</time>
      </trkpt>
      <trkpt lat="43.40086" lon="6.71309">
        <ele>0.80000001192093</ele>
        <time>2013-10-10T11:54:55Z</time>
      </trkpt>
      <trkpt lat="43.40082" lon="6.71312">
        <ele>0.60000002384186</ele>
        <time>2013-10-10T11:54:56Z</time>
      </trkpt>
      <trkpt lat="43.40044" lon="6.71351">
        <ele>1.2000000476837</ele>
        <time>2013-10-10T11:55:08Z</time>
      </trkpt>
      <trkpt lat="43.40024" lon="6.71396">
        <ele>1</ele>
        <time>2013-10-10T11:55:17Z</time>
      </trkpt>
      <trkpt lat="43.4" lon="6.71439">
        <ele>1.2000000476837</ele>
        <time>2013-10-10T11:55:26Z</time>
      </trkpt>
      <trkpt lat="43.39984" lon="6.71465">
        <ele>2.5999999046326</ele>
        <time>2013-10-10T11:55:32Z</time>
      </trkpt>
      <trkpt lat="43.39979" lon="6.71474">
        <ele>3</ele>
        <time>2013-10-10T11:55:34Z</time>
      </trkpt>
      <trkpt lat="43.39977" lon="6.71517">
        <ele>4</ele>
        <time>2013-10-10T11:55:42Z</time>
      </trkpt>
      <trkpt lat="43.39988" lon="6.71581">
        <ele>4.4000000953674</ele>
        <time>2013-10-10T11:55:52Z</time>
      </trkpt>
      <trkpt lat="43.39987" lon="6.71605">
        <ele>4.8000001907349</ele>
        <time>2013-10-10T11:55:56Z</time>
      </trkpt>
      <trkpt lat="43.39976" lon="6.71643">
        <ele>6.8000001907349</ele>
        <time>2013-10-10T11:56:05Z</time>
      </trkpt>
      <trkpt lat="43.39981" lon="6.71654">
        <ele>6.1999998092651</ele>
        <time>2013-10-10T11:56:11Z</time>
      </trkpt>
      <trkpt lat="43.39994" lon="6.71669">
        <ele>4.5999999046326</ele>
        <time>2013-10-10T11:56:33Z</time>
      </trkpt>
      <trkpt lat="43.39994" lon="6.71671">
        <ele>4.5999999046326</ele>
        <time>2013-10-10T11:56:34Z</time>
      </trkpt>
      <trkpt lat="43.39987" lon="6.71683">
        <ele>5.4000000953674</ele>
        <time>2013-10-10T11:56:39Z</time>
      </trkpt>
      <trkpt lat="43.39976" lon="6.7171">
        <ele>6.1999998092651</ele>
        <time>2013-10-10T11:56:45Z</time>
      </trkpt>
      <trkpt lat="43.39968" lon="6.71729">
        <ele>6.8000001907349</ele>
        <time>2013-10-10T11:56:49Z</time>
      </trkpt>
      <trkpt lat="43.39958" lon="6.71752">
        <ele>7.4000000953674</ele>
        <time>2013-10-10T11:56:59Z</time>
      </trkpt>
      <trkpt lat="43.39952" lon="6.71762">
        <ele>7.8000001907349</ele>
        <time>2013-10-10T11:57:03Z</time>
      </trkpt>
      <trkpt lat="43.39949" lon="6.71769">
        <ele>8</ele>
        <time>2013-10-10T11:57:05Z</time>
      </trkpt>
      <trkpt lat="43.39939" lon="6.71786">
        <ele>8.6000003814697</ele>
        <time>2013-10-10T11:57:09Z</time>
      </trkpt>
      <trkpt lat="43.39928" lon="6.71805">
        <ele>9</ele>
        <time>2013-10-10T11:57:13Z</time>
      </trkpt>
      <trkpt lat="43.39887" lon="6.71841">
        <ele>9.8000001907349</ele>
        <time>2013-10-10T11:57:23Z</time>
      </trkpt>
      <trkpt lat="43.39829" lon="6.71862">
        <ele>11.199999809265</ele>
        <time>2013-10-10T11:57:34Z</time>
      </trkpt>
      <trkpt lat="43.39806" lon="6.71869">
        <ele>11.199999809265</ele>
        <time>2013-10-10T11:57:38Z</time>
      </trkpt>
      <trkpt lat="43.39788" lon="6.71875">
        <ele>11.199999809265</ele>
        <time>2013-10-10T11:57:41Z</time>
      </trkpt>
      <trkpt lat="43.39723" lon="6.71891">
        <ele>10.39999961853</ele>
        <time>2013-10-10T11:57:53Z</time>
      </trkpt>
      <trkpt lat="43.39708" lon="6.71893">
        <ele>10.39999961853</ele>
        <time>2013-10-10T11:57:56Z</time>
      </trkpt>
      <trkpt lat="43.39695" lon="6.71927">
        <ele>9</ele>
        <time>2013-10-10T11:58:01Z</time>
      </trkpt>
      <trkpt lat="43.39681" lon="6.72028">
        <ele>9</ele>
        <time>2013-10-10T11:58:12Z</time>
      </trkpt>
      <trkpt lat="43.39679" lon="6.72037">
        <ele>9</ele>
        <time>2013-10-10T11:58:13Z</time>
      </trkpt>
      <trkpt lat="43.39664" lon="6.7214">
        <ele>7.8000001907349</ele>
        <time>2013-10-10T11:58:25Z</time>
      </trkpt>
      <trkpt lat="43.39661" lon="6.72157">
        <ele>7</ele>
        <time>2013-10-10T11:58:27Z</time>
      </trkpt>
      <trkpt lat="43.39649" lon="6.72233">
        <ele>4</ele>
        <time>2013-10-10T11:58:36Z</time>
      </trkpt>
      <trkpt lat="43.39646" lon="6.72249">
        <ele>3.4000000953674</ele>
        <time>2013-10-10T11:58:38Z</time>
      </trkpt>
      <trkpt lat="43.39641" lon="6.72273">
        <ele>3</ele>
        <time>2013-10-10T11:58:41Z</time>
      </trkpt>
      <trkpt lat="43.39628" lon="6.72362">
        <ele>2.7999999523163</ele>
        <time>2013-10-10T11:58:51Z</time>
      </trkpt>
      <trkpt lat="43.39616" lon="6.72434">
        <ele>4</ele>
        <time>2013-10-10T11:58:59Z</time>
      </trkpt>
      <trkpt lat="43.39603" lon="6.7252">
        <ele>5.8000001907349</ele>
        <time>2013-10-10T11:59:09Z</time>
      </trkpt>
      <trkpt lat="43.39598" lon="6.72554">
        <ele>5.4000000953674</ele>
        <time>2013-10-10T11:59:13Z</time>
      </trkpt>
      <trkpt lat="43.39592" lon="6.72569">
        <ele>5</ele>
        <time>2013-10-10T11:59:15Z</time>
      </trkpt>
      <trkpt lat="43.39586" lon="6.72601">
        <ele>4.1999998092651</ele>
        <time>2013-10-10T11:59:19Z</time>
      </trkpt>
      <trkpt lat="43.39565" lon="6.72619">
        <ele>3.2000000476837</ele>
        <time>2013-10-10T11:59:24Z</time>
      </trkpt>
      <trkpt lat="43.39492" lon="6.72593">
        <ele>3.5999999046326</ele>
        <time>2013-10-10T11:59:38Z</time>
      </trkpt>
      <trkpt lat="43.39479" lon="6.726">
        <ele>3.2000000476837</ele>
        <time>2013-10-10T11:59:41Z</time>
      </trkpt>
      <trkpt lat="43.39459" lon="6.72608">
        <ele>3</ele>
        <time>2013-10-10T11:59:45Z</time>
      </trkpt>
      <trkpt lat="43.39402" lon="6.72624">
        <ele>2.5999999046326</ele>
        <time>2013-10-10T11:59:56Z</time>
      </trkpt>
      <trkpt lat="43.39361" lon="6.72638">
        <ele>2.2000000476837</ele>
        <time>2013-10-10T12:00:06Z</time>
      </trkpt>
      <trkpt lat="43.39317" lon="6.72662">
        <ele>2.7999999523163</ele>
        <time>2013-10-10T12:00:18Z</time>
      </trkpt>
      <trkpt lat="43.3929" lon="6.72671">
        <ele>4</ele>
        <time>2013-10-10T12:00:28Z</time>
      </trkpt>
      <trkpt lat="43.39271" lon="6.7267">
        <ele>5</ele>
        <time>2013-10-10T12:00:32Z</time>
      </trkpt>
      <trkpt lat="43.39261" lon="6.72668">
        <ele>5.4000000953674</ele>
        <time>2013-10-10T12:00:34Z</time>
      </trkpt>
      <trkpt lat="43.39245" lon="6.72691">
        <ele>7.1999998092651</ele>
        <time>2013-10-10T12:00:41Z</time>
      </trkpt>
      <trkpt lat="43.3925" lon="6.727">
        <ele>7.1999998092651</ele>
        <time>2013-10-10T12:00:43Z</time>
      </trkpt>
      <trkpt lat="43.39253" lon="6.72705">
        <ele>7</ele>
        <time>2013-10-10T12:00:44Z</time>
      </trkpt>
      <trkpt lat="43.39261" lon="6.72712">
        <ele>6.8000001907349</ele>
        <time>2013-10-10T12:00:46Z</time>
      </trkpt>
      <trkpt lat="43.39283" lon="6.72752">
        <ele>6</ele>
        <time>2013-10-10T12:00:55Z</time>
      </trkpt>
      <trkpt lat="43.3928" lon="6.72765">
        <ele>6.1999998092651</ele>
        <time>2013-10-10T12:00:57Z</time>
      </trkpt>
      <trkpt lat="43.39277" lon="6.72777">
        <ele>6.1999998092651</ele>
        <time>2013-10-10T12:00:59Z</time>
      </trkpt>
      <trkpt lat="43.39268" lon="6.72821">
        <ele>5.8000001907349</ele>
        <time>2013-10-10T12:01:09Z</time>
      </trkpt>
      <trkpt lat="43.39265" lon="6.72828">
        <ele>5.5999999046326</ele>
        <time>2013-10-10T12:01:11Z</time>
      </trkpt>
      <trkpt lat="43.39257" lon="6.72849">
        <ele>5</ele>
        <time>2013-10-10T12:01:20Z</time>
      </trkpt>
      <trkpt lat="43.39252" lon="6.72849">
        <ele>5.1999998092651</ele>
        <time>2013-10-10T12:01:26Z</time>
      </trkpt>
      <trkpt lat="43.39247" lon="6.7285">
        <ele>5.1999998092651</ele>
        <time>2013-10-10T12:01:31Z</time>
      </trkpt>
      <trkpt lat="43.39233" lon="6.7285">
        <ele>6.4000000953674</ele>
        <time>2013-10-10T12:01:45Z</time>
      </trkpt>
      <trkpt lat="43.39231" lon="6.72849">
        <ele>6.4000000953674</ele>
        <time>2013-10-10T12:01:46Z</time>
      </trkpt>
      <trkpt lat="43.39224" lon="6.72834">
        <ele>7.8000001907349</ele>
        <time>2013-10-10T12:01:59Z</time>
      </trkpt>
      <trkpt lat="43.39222" lon="6.72822">
        <ele>8.3999996185303</ele>
        <time>2013-10-10T12:02:11Z</time>
      </trkpt>
      <trkpt lat="43.39218" lon="6.72819">
        <ele>8.6000003814697</ele>
        <time>2013-10-10T12:02:15Z</time>
      </trkpt>
      <trkpt lat="43.39184" lon="6.72809">
        <ele>11.60000038147</ele>
        <time>2013-10-10T12:02:29Z</time>
      </trkpt>
      <trkpt lat="43.39156" lon="6.7281">
        <ele>13.39999961853</ele>
        <time>2013-10-10T12:02:37Z</time>
      </trkpt>
      <trkpt lat="43.39143" lon="6.72818">
        <ele>14</ele>
        <time>2013-10-10T12:02:41Z</time>
      </trkpt>
      <trkpt lat="43.3908" lon="6.72875">
        <ele>15.60000038147</ele>
        <time>2013-10-10T12:03:01Z</time>
      </trkpt>
      <trkpt lat="43.39045" lon="6.72877">
        <ele>17</ele>
        <time>2013-10-10T12:03:11Z</time>
      </trkpt>
      <trkpt lat="43.39004" lon="6.72847">
        <ele>20</ele>
        <time>2013-10-10T12:03:23Z</time>
      </trkpt>
      <trkpt lat="43.38951" lon="6.72811">
        <ele>21.60000038147</ele>
        <time>2013-10-10T12:03:38Z</time>
      </trkpt>
      <trkpt lat="43.38902" lon="6.72779">
        <ele>22.799999237061</ele>
        <time>2013-10-10T12:03:53Z</time>
      </trkpt>
      <trkpt lat="43.38895" lon="6.72778">
        <ele>22.60000038147</ele>
        <time>2013-10-10T12:03:55Z</time>
      </trkpt>
      <trkpt lat="43.38883" lon="6.72795">
        <ele>21.39999961853</ele>
        <time>2013-10-10T12:03:59Z</time>
      </trkpt>
      <trkpt lat="43.38864" lon="6.72848">
        <ele>18.200000762939</ele>
        <time>2013-10-10T12:04:08Z</time>
      </trkpt>
      <trkpt lat="43.38845" lon="6.72905">
        <ele>14.800000190735</ele>
        <time>2013-10-10T12:04:14Z</time>
      </trkpt>
      <trkpt lat="43.38824" lon="6.72962">
        <ele>11.800000190735</ele>
        <time>2013-10-10T12:04:20Z</time>
      </trkpt>
      <trkpt lat="43.38807" lon="6.73009">
        <ele>9.1999998092651</ele>
        <time>2013-10-10T12:04:26Z</time>
      </trkpt>
      <trkpt lat="43.38799" lon="6.7302">
        <ele>8.1999998092651</ele>
        <time>2013-10-10T12:04:31Z</time>
      </trkpt>
      <trkpt lat="43.38801" lon="6.73024">
        <ele>8</ele>
        <time>2013-10-10T12:04:37Z</time>
      </trkpt>
      <trkpt lat="43.3881" lon="6.73042">
        <ele>7</ele>
        <time>2013-10-10T12:04:44Z</time>
      </trkpt>
      <trkpt lat="43.38825" lon="6.73059">
        <ele>6</ele>
        <time>2013-10-10T12:04:49Z</time>
      </trkpt>
      <trkpt lat="43.38835" lon="6.73044">
        <ele>7.1999998092651</ele>
        <time>2013-10-10T12:04:55Z</time>
      </trkpt>
      <trkpt lat="43.38839" lon="6.73022">
        <ele>9.1999998092651</ele>
        <time>2013-10-10T12:05:01Z</time>
      </trkpt>
      <trkpt lat="43.3885" lon="6.73029">
        <ele>8.8000001907349</ele>
        <time>2013-10-10T12:05:11Z</time>
      </trkpt>
      <trkpt lat="43.38859" lon="6.73042">
        <ele>8</ele>
        <time>2013-10-10T12:05:24Z</time>
      </trkpt>
      <trkpt lat="43.38883" lon="6.73056">
        <ele>7.4000000953674</ele>
        <time>2013-10-10T12:05:37Z</time>
      </trkpt>
      <trkpt lat="43.38926" lon="6.73059">
        <ele>8.1999998092651</ele>
        <time>2013-10-10T12:05:51Z</time>
      </trkpt>
      <trkpt lat="43.38934" lon="6.73073">
        <ele>7.5999999046326</ele>
        <time>2013-10-10T12:05:56Z</time>
      </trkpt>
      <trkpt lat="43.38932" lon="6.73089">
        <ele>6.4000000953674</ele>
        <time>2013-10-10T12:06:05Z</time>
      </trkpt>
      <trkpt lat="43.38929" lon="6.73091">
        <ele>6.4000000953674</ele>
        <time>2013-10-10T12:06:08Z</time>
      </trkpt>
      <trkpt lat="43.38928" lon="6.73097">
        <ele>6.1999998092651</ele>
        <time>2013-10-10T12:06:15Z</time>
      </trkpt>
      <trkpt lat="43.38937" lon="6.73115">
        <ele>6</ele>
        <time>2013-10-10T12:06:25Z</time>
      </trkpt>
      <trkpt lat="43.38939" lon="6.73115">
        <ele>6.1999998092651</ele>
        <time>2013-10-10T12:06:27Z</time>
      </trkpt>
      <trkpt lat="43.38955" lon="6.73133">
        <ele>6.1999998092651</ele>
        <time>2013-10-10T12:06:38Z</time>
      </trkpt>
      <trkpt lat="43.38964" lon="6.73152">
        <ele>6</ele>
        <time>2013-10-10T12:06:42Z</time>
      </trkpt>
      <trkpt lat="43.38971" lon="6.73171">
        <ele>5.5999999046326</ele>
        <time>2013-10-10T12:06:47Z</time>
      </trkpt>
      <trkpt lat="43.38971" lon="6.73174">
        <ele>5.4000000953674</ele>
        <time>2013-10-10T12:06:48Z</time>
      </trkpt>
      <trkpt lat="43.38974" lon="6.73179">
        <ele>5</ele>
        <time>2013-10-10T12:06:52Z</time>
      </trkpt>
      <trkpt lat="43.38979" lon="6.73174">
        <ele>5.5999999046326</ele>
        <time>2013-10-10T12:06:56Z</time>
      </trkpt>
      <trkpt lat="43.38983" lon="6.73169">
        <ele>6.1999998092651</ele>
        <time>2013-10-10T12:06:59Z</time>
      </trkpt>
      <trkpt lat="43.38991" lon="6.73178">
        <ele>5.5999999046326</ele>
        <time>2013-10-10T12:07:03Z</time>
      </trkpt>
      <trkpt lat="43.39009" lon="6.73205">
        <ele>3.5999999046326</ele>
        <time>2013-10-10T12:07:11Z</time>
      </trkpt>
      <trkpt lat="43.39035" lon="6.73197">
        <ele>3.5999999046326</ele>
        <time>2013-10-10T12:07:21Z</time>
      </trkpt>
      <trkpt lat="43.39062" lon="6.73184">
        <ele>3.5999999046326</ele>
        <time>2013-10-10T12:07:31Z</time>
      </trkpt>
      <trkpt lat="43.3907" lon="6.73192">
        <ele>3</ele>
        <time>2013-10-10T12:07:34Z</time>
      </trkpt>
      <trkpt lat="43.39095" lon="6.73188">
        <ele>2.4000000953674</ele>
        <time>2013-10-10T12:07:42Z</time>
      </trkpt>
      <trkpt lat="43.39119" lon="6.73145">
        <ele>3.4000000953674</ele>
        <time>2013-10-10T12:07:52Z</time>
      </trkpt>
      <trkpt lat="43.39117" lon="6.73099">
        <ele>5.8000001907349</ele>
        <time>2013-10-10T12:08:01Z</time>
      </trkpt>
      <trkpt lat="43.39121" lon="6.73082">
        <ele>6.1999998092651</ele>
        <time>2013-10-10T12:08:04Z</time>
      </trkpt>
      <trkpt lat="43.39125" lon="6.73059">
        <ele>6.4000000953674</ele>
        <time>2013-10-10T12:08:08Z</time>
      </trkpt>
      <trkpt lat="43.39153" lon="6.72996">
        <ele>4.5999999046326</ele>
        <time>2013-10-10T12:08:17Z</time>
      </trkpt>
      <trkpt lat="43.39156" lon="6.72989">
        <ele>4.5999999046326</ele>
        <time>2013-10-10T12:08:18Z</time>
      </trkpt>
      <trkpt lat="43.39195" lon="6.72933">
        <ele>5</ele>
        <time>2013-10-10T12:08:29Z</time>
      </trkpt>
      <trkpt lat="43.39203" lon="6.72921">
        <ele>5</ele>
        <time>2013-10-10T12:08:32Z</time>
      </trkpt>
      <trkpt lat="43.39218" lon="6.72916">
        <ele>4.1999998092651</ele>
        <time>2013-10-10T12:08:38Z</time>
      </trkpt>
      <trkpt lat="43.39218" lon="6.72912">
        <ele>4.4000000953674</ele>
        <time>2013-10-10T12:08:39Z</time>
      </trkpt>
      <trkpt lat="43.39219" lon="6.72904">
        <ele>4.8000001907349</ele>
        <time>2013-10-10T12:08:47Z</time>
      </trkpt>
      <trkpt lat="43.39222" lon="6.72904">
        <ele>4.5999999046326</ele>
        <time>2013-10-10T12:08:50Z</time>
      </trkpt>
      <trkpt lat="43.39243" lon="6.72888">
        <ele>3.7999999523163</ele>
        <time>2013-10-10T12:09:00Z</time>
      </trkpt>
      <trkpt lat="43.39259" lon="6.72852">
        <ele>4.8000001907349</ele>
        <time>2013-10-10T12:09:11Z</time>
      </trkpt>
      <trkpt lat="43.3927" lon="6.72819">
        <ele>5.8000001907349</ele>
        <time>2013-10-10T12:09:25Z</time>
      </trkpt>
      <trkpt lat="43.39273" lon="6.72807">
        <ele>5.8000001907349</ele>
        <time>2013-10-10T12:09:34Z</time>
      </trkpt>
      <trkpt lat="43.3928" lon="6.7279">
        <ele>5.8000001907349</ele>
        <time>2013-10-10T12:09:46Z</time>
      </trkpt>
      <trkpt lat="43.39295" lon="6.72765">
        <ele>5</ele>
        <time>2013-10-10T12:09:56Z</time>
      </trkpt>
      <trkpt lat="43.39302" lon="6.72766">
        <ele>4.5999999046326</ele>
        <time>2013-10-10T12:10:00Z</time>
      </trkpt>
      <trkpt lat="43.39347" lon="6.72782">
        <ele>2.4000000953674</ele>
        <time>2013-10-10T12:10:15Z</time>
      </trkpt>
      <trkpt lat="43.39358" lon="6.72785">
        <ele>2.4000000953674</ele>
        <time>2013-10-10T12:10:18Z</time>
      </trkpt>
      <trkpt lat="43.39382" lon="6.72783">
        <ele>2.2000000476837</ele>
        <time>2013-10-10T12:10:28Z</time>
      </trkpt>
      <trkpt lat="43.39425" lon="6.72795">
        <ele>2</ele>
        <time>2013-10-10T12:10:39Z</time>
      </trkpt>
      <trkpt lat="43.39526" lon="6.72832">
        <ele>2.2000000476837</ele>
        <time>2013-10-10T12:10:59Z</time>
      </trkpt>
      <trkpt lat="43.3963" lon="6.72868">
        <ele>2.2000000476837</ele>
        <time>2013-10-10T12:11:18Z</time>
      </trkpt>
      <trkpt lat="43.39747" lon="6.72911">
        <ele>2.5999999046326</ele>
        <time>2013-10-10T12:11:39Z</time>
      </trkpt>
      <trkpt lat="43.39851" lon="6.72949">
        <ele>3.4000000953674</ele>
        <time>2013-10-10T12:11:58Z</time>
      </trkpt>
      <trkpt lat="43.39951" lon="6.72978">
        <ele>3.2000000476837</ele>
        <time>2013-10-10T12:12:17Z</time>
      </trkpt>
      <trkpt lat="43.4005" lon="6.72983">
        <ele>0.60000002384186</ele>
        <time>2013-10-10T12:12:35Z</time>
      </trkpt>
      <trkpt lat="43.40164" lon="6.72992">
        <ele>2</ele>
        <time>2013-10-10T12:12:55Z</time>
      </trkpt>
      <trkpt lat="43.40278" lon="6.72979">
        <ele>1.6000000238419</ele>
        <time>2013-10-10T12:13:14Z</time>
      </trkpt>
      <trkpt lat="43.40377" lon="6.72934">
        <ele>2.4000000953674</ele>
        <time>2013-10-10T12:13:32Z</time>
      </trkpt>
      <trkpt lat="43.40463" lon="6.72864">
        <ele>2.4000000953674</ele>
        <time>2013-10-10T12:13:50Z</time>
      </trkpt>
      <trkpt lat="43.40549" lon="6.72778">
        <ele>1.7999999523163</ele>
        <time>2013-10-10T12:14:09Z</time>
      </trkpt>
      <trkpt lat="43.40622" lon="6.72705">
        <ele>2.2000000476837</ele>
        <time>2013-10-10T12:14:24Z</time>
      </trkpt>
      <trkpt lat="43.40684" lon="6.72641">
        <ele>1.3999999761581</ele>
        <time>2013-10-10T12:14:38Z</time>
      </trkpt>
      <trkpt lat="43.4075" lon="6.72575">
        <ele>1.6000000238419</ele>
        <time>2013-10-10T12:14:54Z</time>
      </trkpt>
      <trkpt lat="43.40763" lon="6.72562">
        <ele>1.3999999761581</ele>
        <time>2013-10-10T12:14:57Z</time>
      </trkpt>
      <trkpt lat="43.40818" lon="6.72506">
        <ele>1.6000000238419</ele>
        <time>2013-10-10T12:15:10Z</time>
      </trkpt>
      <trkpt lat="43.40868" lon="6.72461">
        <ele>2</ele>
        <time>2013-10-10T12:15:23Z</time>
      </trkpt>
      <trkpt lat="43.40897" lon="6.72435">
        <ele>2.4000000953674</ele>
        <time>2013-10-10T12:15:30Z</time>
      </trkpt>
      <trkpt lat="43.40916" lon="6.7243">
        <ele>2.7999999523163</ele>
        <time>2013-10-10T12:15:34Z</time>
      </trkpt>
      <trkpt lat="43.40925" lon="6.7243">
        <ele>3</ele>
        <time>2013-10-10T12:15:36Z</time>
      </trkpt>
      <trkpt lat="43.40988" lon="6.72422">
        <ele>3</ele>
        <time>2013-10-10T12:15:49Z</time>
      </trkpt>
      <trkpt lat="43.41072" lon="6.72449">
        <ele>3</ele>
        <time>2013-10-10T12:16:06Z</time>
      </trkpt>
      <trkpt lat="43.41144" lon="6.72497">
        <ele>3.5999999046326</ele>
        <time>2013-10-10T12:16:22Z</time>
      </trkpt>
      <trkpt lat="43.41164" lon="6.7251">
        <ele>4.1999998092651</ele>
        <time>2013-10-10T12:16:27Z</time>
      </trkpt>
      <trkpt lat="43.41189" lon="6.725">
        <ele>4.1999998092651</ele>
        <time>2013-10-10T12:16:33Z</time>
      </trkpt>
      <trkpt lat="43.41194" lon="6.72493">
        <ele>4</ele>
        <time>2013-10-10T12:16:35Z</time>
      </trkpt>
      <trkpt lat="43.41217" lon="6.72476">
        <ele>3.7999999523163</ele>
        <time>2013-10-10T12:16:41Z</time>
      </trkpt>
      <trkpt lat="43.41242" lon="6.72477">
        <ele>4</ele>
        <time>2013-10-10T12:16:46Z</time>
      </trkpt>
      <trkpt lat="43.41251" lon="6.72475">
        <ele>4</ele>
        <time>2013-10-10T12:16:48Z</time>
      </trkpt>
      <trkpt lat="43.41275" lon="6.72474">
        <ele>3.4000000953674</ele>
        <time>2013-10-10T12:16:53Z</time>
      </trkpt>
      <trkpt lat="43.41294" lon="6.72463">
        <ele>2.7999999523163</ele>
        <time>2013-10-10T12:16:57Z</time>
      </trkpt>
      <trkpt lat="43.41331" lon="6.72452">
        <ele>1.7999999523163</ele>
        <time>2013-10-10T12:17:05Z</time>
      </trkpt>
      <trkpt lat="43.41351" lon="6.7246">
        <ele>1.7999999523163</ele>
        <time>2013-10-10T12:17:09Z</time>
      </trkpt>
      <trkpt lat="43.41368" lon="6.72473">
        <ele>1.7999999523163</ele>
        <time>2013-10-10T12:17:13Z</time>
      </trkpt>
      <trkpt lat="43.41376" lon="6.72481">
        <ele>2</ele>
        <time>2013-10-10T12:17:15Z</time>
      </trkpt>
      <trkpt lat="43.41404" lon="6.72521">
        <ele>2.4000000953674</ele>
        <time>2013-10-10T12:17:23Z</time>
      </trkpt>
      <trkpt lat="43.41411" lon="6.72543">
        <ele>2.5999999046326</ele>
        <time>2013-10-10T12:17:27Z</time>
      </trkpt>
      <trkpt lat="43.4142" lon="6.72565">
        <ele>2.5999999046326</ele>
        <time>2013-10-10T12:17:31Z</time>
      </trkpt>
      <trkpt lat="43.41447" lon="6.72619">
        <ele>3.7999999523163</ele>
        <time>2013-10-10T12:17:43Z</time>
      </trkpt>
      <trkpt lat="43.41498" lon="6.72648">
        <ele>4.4000000953674</ele>
        <time>2013-10-10T12:17:56Z</time>
      </trkpt>
      <trkpt lat="43.41536" lon="6.7266">
        <ele>3.5999999046326</ele>
        <time>2013-10-10T12:18:05Z</time>
      </trkpt>
      <trkpt lat="43.41531" lon="6.72669">
        <ele>3.7999999523163</ele>
        <time>2013-10-10T12:18:10Z</time>
      </trkpt>
      <trkpt lat="43.41518" lon="6.72686">
        <ele>4.4000000953674</ele>
        <time>2013-10-10T12:18:18Z</time>
      </trkpt>
      <trkpt lat="43.41539" lon="6.72699">
        <ele>3.7999999523163</ele>
        <time>2013-10-10T12:18:25Z</time>
      </trkpt>
      <trkpt lat="43.41562" lon="6.72712">
        <ele>3.4000000953674</ele>
        <time>2013-10-10T12:18:31Z</time>
      </trkpt>
      <trkpt lat="43.41582" lon="6.72692">
        <ele>2.5999999046326</ele>
        <time>2013-10-10T12:18:38Z</time>
      </trkpt>
      <trkpt lat="43.41581" lon="6.72704">
        <ele>2.7999999523163</ele>
        <time>2013-10-10T12:18:43Z</time>
      </trkpt>
      <trkpt lat="43.41579" lon="6.72709">
        <ele>3</ele>
        <time>2013-10-10T12:18:44Z</time>
      </trkpt>
      <trkpt lat="43.4157" lon="6.72726">
        <ele>3.5999999046326</ele>
        <time>2013-10-10T12:18:48Z</time>
      </trkpt>
      <trkpt lat="43.41564" lon="6.72756">
        <ele>4.1999998092651</ele>
        <time>2013-10-10T12:18:54Z</time>
      </trkpt>
      <trkpt lat="43.41553" lon="6.72767">
        <ele>4.5999999046326</ele>
        <time>2013-10-10T12:18:57Z</time>
      </trkpt>
      <trkpt lat="43.4152" lon="6.72803">
        <ele>5.4000000953674</ele>
        <time>2013-10-10T12:19:08Z</time>
      </trkpt>
      <trkpt lat="43.41521" lon="6.72804">
        <ele>5.4000000953674</ele>
        <time>2013-10-10T12:19:12Z</time>
      </trkpt>
      <trkpt lat="43.4153" lon="6.72801">
        <ele>5.4000000953674</ele>
        <time>2013-10-10T12:19:15Z</time>
      </trkpt>
      <trkpt lat="43.41548" lon="6.72798">
        <ele>5.1999998092651</ele>
        <time>2013-10-10T12:19:18Z</time>
      </trkpt>
      <trkpt lat="43.41557" lon="6.7281">
        <ele>5.4000000953674</ele>
        <time>2013-10-10T12:19:24Z</time>
      </trkpt>
      <trkpt lat="43.41567" lon="6.72825">
        <ele>5.8000001907349</ele>
        <time>2013-10-10T12:19:31Z</time>
      </trkpt>
      <trkpt lat="43.41575" lon="6.72822">
        <ele>5.5999999046326</ele>
        <time>2013-10-10T12:19:33Z</time>
      </trkpt>
      <trkpt lat="43.41596" lon="6.72816">
        <ele>5.1999998092651</ele>
        <time>2013-10-10T12:19:38Z</time>
      </trkpt>
      <trkpt lat="43.41613" lon="6.72811">
        <ele>4.8000001907349</ele>
        <time>2013-10-10T12:19:42Z</time>
      </trkpt>
      <trkpt lat="43.41626" lon="6.72816">
        <ele>4.5999999046326</ele>
        <time>2013-10-10T12:19:45Z</time>
      </trkpt>
      <trkpt lat="43.4164" lon="6.7282">
        <ele>4.4000000953674</ele>
        <time>2013-10-10T12:19:48Z</time>
      </trkpt>
      <trkpt lat="43.41677" lon="6.72829">
        <ele>4</ele>
        <time>2013-10-10T12:19:58Z</time>
      </trkpt>
      <trkpt lat="43.41687" lon="6.72833">
        <ele>4.1999998092651</ele>
        <time>2013-10-10T12:20:01Z</time>
      </trkpt>
      <trkpt lat="43.41679" lon="6.72851">
        <ele>3.5999999046326</ele>
        <time>2013-10-10T12:20:07Z</time>
      </trkpt>
      <trkpt lat="43.41669" lon="6.72854">
        <ele>3.4000000953674</ele>
        <time>2013-10-10T12:20:09Z</time>
      </trkpt>
      <trkpt lat="43.41643" lon="6.72864">
        <ele>4</ele>
        <time>2013-10-10T12:20:16Z</time>
      </trkpt>
      <trkpt lat="43.41612" lon="6.72878">
        <ele>5.1999998092651</ele>
        <time>2013-10-10T12:20:22Z</time>
      </trkpt>
      <trkpt lat="43.41576" lon="6.72912">
        <ele>7</ele>
        <time>2013-10-10T12:20:32Z</time>
      </trkpt>
      <trkpt lat="43.4158" lon="6.72925">
        <ele>6.4000000953674</ele>
        <time>2013-10-10T12:20:35Z</time>
      </trkpt>
      <trkpt lat="43.41574" lon="6.72945">
        <ele>5.4000000953674</ele>
        <time>2013-10-10T12:20:39Z</time>
      </trkpt>
      <trkpt lat="43.4156" lon="6.72958">
        <ele>5</ele>
        <time>2013-10-10T12:20:44Z</time>
      </trkpt>
      <trkpt lat="43.41545" lon="6.72973">
        <ele>4.5999999046326</ele>
        <time>2013-10-10T12:20:49Z</time>
      </trkpt>
      <trkpt lat="43.41519" lon="6.72975">
        <ele>5.1999998092651</ele>
        <time>2013-10-10T12:20:55Z</time>
      </trkpt>
      <trkpt lat="43.41506" lon="6.72971">
        <ele>5.8000001907349</ele>
        <time>2013-10-10T12:20:58Z</time>
      </trkpt>
      <trkpt lat="43.41494" lon="6.72993">
        <ele>5.1999998092651</ele>
        <time>2013-10-10T12:21:04Z</time>
      </trkpt>
      <trkpt lat="43.41494" lon="6.72998">
        <ele>5</ele>
        <time>2013-10-10T12:21:05Z</time>
      </trkpt>
      <trkpt lat="43.41493" lon="6.7302">
        <ele>4.4000000953674</ele>
        <time>2013-10-10T12:21:09Z</time>
      </trkpt>
      <trkpt lat="43.41474" lon="6.73039">
        <ele>4.1999998092651</ele>
        <time>2013-10-10T12:21:16Z</time>
      </trkpt>
      <trkpt lat="43.41445" lon="6.73034">
        <ele>4.4000000953674</ele>
        <time>2013-10-10T12:21:24Z</time>
      </trkpt>
      <trkpt lat="43.41436" lon="6.73047">
        <ele>4.1999998092651</ele>
        <time>2013-10-10T12:21:28Z</time>
      </trkpt>
      <trkpt lat="43.41429" lon="6.73071">
        <ele>4</ele>
        <time>2013-10-10T12:21:33Z</time>
      </trkpt>
      <trkpt lat="43.41426" lon="6.73091">
        <ele>3.7999999523163</ele>
        <time>2013-10-10T12:21:36Z</time>
      </trkpt>
      <trkpt lat="43.41426" lon="6.73104">
        <ele>4</ele>
        <time>2013-10-10T12:21:38Z</time>
      </trkpt>
      <trkpt lat="43.41447" lon="6.7313">
        <ele>3.5999999046326</ele>
        <time>2013-10-10T12:21:45Z</time>
      </trkpt>
      <trkpt lat="43.41455" lon="6.73132">
        <ele>3.4000000953674</ele>
        <time>2013-10-10T12:21:47Z</time>
      </trkpt>
      <trkpt lat="43.41449" lon="6.73153">
        <ele>3.5999999046326</ele>
        <time>2013-10-10T12:21:53Z</time>
      </trkpt>
      <trkpt lat="43.41444" lon="6.73174">
        <ele>4</ele>
        <time>2013-10-10T12:21:59Z</time>
      </trkpt>
      <trkpt lat="43.41446" lon="6.73178">
        <ele>3.7999999523163</ele>
        <time>2013-10-10T12:22:00Z</time>
      </trkpt>
      <trkpt lat="43.41439" lon="6.73216">
        <ele>4</ele>
        <time>2013-10-10T12:22:07Z</time>
      </trkpt>
      <trkpt lat="43.41427" lon="6.73222">
        <ele>4.4000000953674</ele>
        <time>2013-10-10T12:22:10Z</time>
      </trkpt>
      <trkpt lat="43.41411" lon="6.73228">
        <ele>4.8000001907349</ele>
        <time>2013-10-10T12:22:14Z</time>
      </trkpt>
      <trkpt lat="43.41397" lon="6.73241">
        <ele>4.8000001907349</ele>
        <time>2013-10-10T12:22:19Z</time>
      </trkpt>
      <trkpt lat="43.41391" lon="6.73287">
        <ele>4.8000001907349</ele>
        <time>2013-10-10T12:22:26Z</time>
      </trkpt>
      <trkpt lat="43.41392" lon="6.73333">
        <ele>4.8000001907349</ele>
        <time>2013-10-10T12:22:33Z</time>
      </trkpt>
      <trkpt lat="43.41395" lon="6.73372">
        <ele>3.5999999046326</ele>
        <time>2013-10-10T12:22:39Z</time>
      </trkpt>
      <trkpt lat="43.41426" lon="6.73453">
        <ele>1.7999999523163</ele>
        <time>2013-10-10T12:22:51Z</time>
      </trkpt>
      <trkpt lat="43.41443" lon="6.73466">
        <ele>1.7999999523163</ele>
        <time>2013-10-10T12:22:55Z</time>
      </trkpt>
      <trkpt lat="43.41532" lon="6.73486">
        <ele>0.20000000298023</ele>
        <time>2013-10-10T12:23:12Z</time>
      </trkpt>
      <trkpt lat="43.41573" lon="6.73496">
        <ele>-0.80000001192093</ele>
        <time>2013-10-10T12:23:21Z</time>
      </trkpt>
      <trkpt lat="43.41597" lon="6.73505">
        <ele>-1.2000000476837</ele>
        <time>2013-10-10T12:23:27Z</time>
      </trkpt>
      <trkpt lat="43.41598" lon="6.73535">
        <ele>-1.7999999523163</ele>
        <time>2013-10-10T12:23:33Z</time>
      </trkpt>
      <trkpt lat="43.41595" lon="6.73568">
        <ele>-2.4000000953674</ele>
        <time>2013-10-10T12:23:38Z</time>
      </trkpt>
      <trkpt lat="43.41602" lon="6.73594">
        <ele>-2.2000000476837</ele>
        <time>2013-10-10T12:23:42Z</time>
      </trkpt>
      <trkpt lat="43.41646" lon="6.73676">
        <ele>0.80000001192093</ele>
        <time>2013-10-10T12:23:57Z</time>
      </trkpt>
      <trkpt lat="43.41691" lon="6.73718">
        <ele>1.2000000476837</ele>
        <time>2013-10-10T12:24:09Z</time>
      </trkpt>
      <trkpt lat="43.4169" lon="6.73746">
        <ele>1.6000000238419</ele>
        <time>2013-10-10T12:24:15Z</time>
      </trkpt>
      <trkpt lat="43.41686" lon="6.73747">
        <ele>1.6000000238419</ele>
        <time>2013-10-10T12:24:16Z</time>
      </trkpt>
      <trkpt lat="43.41677" lon="6.73749">
        <ele>1.7999999523163</ele>
        <time>2013-10-10T12:24:18Z</time>
      </trkpt>
      <trkpt lat="43.41664" lon="6.73749">
        <ele>1.7999999523163</ele>
        <time>2013-10-10T12:24:21Z</time>
      </trkpt>
      <trkpt lat="43.41617" lon="6.73743">
        <ele>0.60000002384186</ele>
        <time>2013-10-10T12:24:33Z</time>
      </trkpt>
      <trkpt lat="43.41581" lon="6.73754">
        <ele>1</ele>
        <time>2013-10-10T12:24:43Z</time>
      </trkpt>
      <trkpt lat="43.41564" lon="6.73785">
        <ele>0.40000000596046</ele>
        <time>2013-10-10T12:24:50Z</time>
      </trkpt>
      <trkpt lat="43.41553" lon="6.73793">
        <ele>0.60000002384186</ele>
        <time>2013-10-10T12:24:53Z</time>
      </trkpt>
      <trkpt lat="43.41554" lon="6.73825">
        <ele>0.80000001192093</ele>
        <time>2013-10-10T12:25:00Z</time>
      </trkpt>
      <trkpt lat="43.41557" lon="6.73827">
        <ele>0.80000001192093</ele>
        <time>2013-10-10T12:25:01Z</time>
      </trkpt>
      <trkpt lat="43.41594" lon="6.73853">
        <ele>1</ele>
        <time>2013-10-10T12:25:15Z</time>
      </trkpt>
      <trkpt lat="43.41601" lon="6.73859">
        <ele>1</ele>
        <time>2013-10-10T12:25:20Z</time>
      </trkpt>
    </trkseg>
  </trk>
</gpx>